<?xml version="1.0" encoding="UTF-8" standalone="no" ?>
<gpx xmlns="http://www.topografix.com/GPX/1/1" xmlns:xsi="http://www.w3.org/2001/XMLSchema-instance" xsi:schemaLocation="http://www.topografix.com/GPX/1/1 http://www.topografix.com/GPX/1/1/gpx.xsd" version="1.1" creator="VisuGPX - https://www.visugpx.com">
  <metadata>
    <name>-1-Lanne-Sud 2</name>
    <desc><![CDATA[SEMAINE LSVC 2024]]></desc>
  </metadata>
  <wpt lat="43.0036" lon="-0.73141">
    <ele>1352.6</ele>
    <name><![CDATA[Col de Labays]]></name>
    <type><![CDATA[GENERIC]]></type>
  </wpt>
  <wpt lat="43.0036" lon="-0.73141">
    <ele>1352.6</ele>
    <name><![CDATA[Col de Labays]]></name>
    <type><![CDATA[GENERIC]]></type>
  </wpt>
  <wpt lat="43.0036" lon="-0.73141">
    <ele>1352.6</ele>
    <name><![CDATA[Col de Labays]]></name>
    <type><![CDATA[GENERIC]]></type>
  </wpt>
  <trk>
    <name><![CDATA[-1-Lanne-Sud 2]]></name>
    <extensions>
      <line xmlns="http://www.topografix.com/GPX/gpx_style/0/2">
        <color>0000FF</color>
        <width>4</width>
      </line>
    </extensions>
    <trkseg>
      <trkpt lat="43.09735" lon="-0.77864">
        <ele>336.49</ele>
        <time>2024-05-29T13:26:01.000Z</time>
      </trkpt>
      <trkpt lat="43.09746" lon="-0.77859">
        <ele>336.6</ele>
        <time>2024-05-29T13:26:01.002Z</time>
      </trkpt>
      <trkpt lat="43.09807" lon="-0.7786">
        <ele>336.3</ele>
        <time>2024-05-29T13:26:01.016Z</time>
      </trkpt>
      <trkpt lat="43.09821" lon="-0.77857">
        <ele>335.85</ele>
        <time>2024-05-29T13:26:01.032Z</time>
      </trkpt>
      <trkpt lat="43.09835" lon="-0.77849">
        <ele>335.45</ele>
        <time>2024-05-29T13:26:01.051Z</time>
      </trkpt>
      <trkpt lat="43.09929" lon="-0.77777">
        <ele>335.07</ele>
        <time>2024-05-29T13:26:01.090Z</time>
      </trkpt>
      <trkpt lat="43.09979" lon="-0.77746">
        <ele>334.58</ele>
        <time>2024-05-29T13:26:01.139Z</time>
      </trkpt>
      <trkpt lat="43.10012" lon="-0.77728">
        <ele>334</ele>
        <time>2024-05-29T13:26:01.195Z</time>
      </trkpt>
      <trkpt lat="43.10049" lon="-0.77722">
        <ele>333.34</ele>
        <time>2024-05-29T13:26:01.258Z</time>
      </trkpt>
      <trkpt lat="43.10061" lon="-0.77718">
        <ele>332.75</ele>
        <time>2024-05-29T13:26:01.323Z</time>
      </trkpt>
      <trkpt lat="43.10072" lon="-0.7771">
        <ele>332.15</ele>
        <time>2024-05-29T13:26:01.390Z</time>
      </trkpt>
      <trkpt lat="43.10084" lon="-0.77691">
        <ele>331.48</ele>
        <time>2024-05-29T13:26:01.461Z</time>
      </trkpt>
      <trkpt lat="43.10092" lon="-0.77669">
        <ele>330.87</ele>
        <time>2024-05-29T13:26:01.535Z</time>
      </trkpt>
      <trkpt lat="43.10097" lon="-0.77604">
        <ele>330.37</ele>
        <time>2024-05-29T13:26:01.618Z</time>
      </trkpt>
      <trkpt lat="43.10103" lon="-0.77574">
        <ele>329.91</ele>
        <time>2024-05-29T13:26:01.705Z</time>
      </trkpt>
      <trkpt lat="43.10134" lon="-0.77485">
        <ele>329.38</ele>
        <time>2024-05-29T13:26:01.806Z</time>
      </trkpt>
      <trkpt lat="43.10141" lon="-0.77471">
        <ele>328.94</ele>
        <time>2024-05-29T13:26:01.909Z</time>
      </trkpt>
      <trkpt lat="43.10184" lon="-0.77415">
        <ele>328.85</ele>
        <time>2024-05-29T13:26:02.023Z</time>
      </trkpt>
      <trkpt lat="43.10196" lon="-0.77406">
        <ele>328.68</ele>
        <time>2024-05-29T13:26:02.140Z</time>
      </trkpt>
      <trkpt lat="43.10313" lon="-0.77378">
        <ele>327.92</ele>
        <time>2024-05-29T13:26:02.279Z</time>
      </trkpt>
      <trkpt lat="43.10375" lon="-0.77356">
        <ele>327.64</ele>
        <time>2024-05-29T13:26:02.430Z</time>
      </trkpt>
      <trkpt lat="43.10401" lon="-0.7735">
        <ele>327.01</ele>
        <time>2024-05-29T13:26:02.586Z</time>
      </trkpt>
      <trkpt lat="43.10436" lon="-0.77335">
        <ele>326.22</ele>
        <time>2024-05-29T13:26:02.748Z</time>
      </trkpt>
      <trkpt lat="43.10448" lon="-0.77334">
        <ele>325.54</ele>
        <time>2024-05-29T13:26:02.913Z</time>
      </trkpt>
      <trkpt lat="43.105" lon="-0.77354">
        <ele>325.02</ele>
        <time>2024-05-29T13:26:03.088Z</time>
      </trkpt>
      <trkpt lat="43.10522" lon="-0.7736">
        <ele>324.6</ele>
        <time>2024-05-29T13:26:03.267Z</time>
      </trkpt>
      <trkpt lat="43.10545" lon="-0.77357">
        <ele>324.15</ele>
        <time>2024-05-29T13:26:03.450Z</time>
      </trkpt>
      <trkpt lat="43.10559" lon="-0.77352">
        <ele>323.72</ele>
        <time>2024-05-29T13:26:03.636Z</time>
      </trkpt>
      <trkpt lat="43.10579" lon="-0.77339">
        <ele>323.29</ele>
        <time>2024-05-29T13:26:03.826Z</time>
      </trkpt>
      <trkpt lat="43.10614" lon="-0.77311">
        <ele>322.9</ele>
        <time>2024-05-29T13:26:04.024Z</time>
      </trkpt>
      <trkpt lat="43.10682" lon="-0.77277">
        <ele>322.44</ele>
        <time>2024-05-29T13:26:04.235Z</time>
      </trkpt>
      <trkpt lat="43.10702" lon="-0.7727">
        <ele>322.09</ele>
        <time>2024-05-29T13:26:04.450Z</time>
      </trkpt>
      <trkpt lat="43.10842" lon="-0.77252">
        <ele>321.66</ele>
        <time>2024-05-29T13:26:04.691Z</time>
      </trkpt>
      <trkpt lat="43.10905" lon="-0.77263">
        <ele>321.08</ele>
        <time>2024-05-29T13:26:04.944Z</time>
      </trkpt>
      <trkpt lat="43.10927" lon="-0.77263">
        <ele>320.81</ele>
        <time>2024-05-29T13:26:05.201Z</time>
      </trkpt>
      <trkpt lat="43.10945" lon="-0.7726">
        <ele>320.61</ele>
        <time>2024-05-29T13:26:05.461Z</time>
      </trkpt>
      <trkpt lat="43.10965" lon="-0.77247">
        <ele>320.51</ele>
        <time>2024-05-29T13:26:05.725Z</time>
      </trkpt>
      <trkpt lat="43.10988" lon="-0.77229">
        <ele>320.42</ele>
        <time>2024-05-29T13:26:05.994Z</time>
      </trkpt>
      <trkpt lat="43.11028" lon="-0.7722">
        <ele>320.34</ele>
        <time>2024-05-29T13:26:06.271Z</time>
      </trkpt>
      <trkpt lat="43.11037" lon="-0.77481">
        <ele>323.01</ele>
        <time>2024-05-29T13:26:06.583Z</time>
      </trkpt>
      <trkpt lat="43.11048" lon="-0.77815">
        <ele>325.04</ele>
        <time>2024-05-29T13:26:06.941Z</time>
      </trkpt>
      <trkpt lat="43.11057" lon="-0.77848">
        <ele>326.62</ele>
        <time>2024-05-29T13:26:07.304Z</time>
      </trkpt>
      <trkpt lat="43.11101" lon="-0.77977">
        <ele>328.37</ele>
        <time>2024-05-29T13:26:07.686Z</time>
      </trkpt>
      <trkpt lat="43.11145" lon="-0.78117">
        <ele>330.47</ele>
        <time>2024-05-29T13:26:08.089Z</time>
      </trkpt>
      <trkpt lat="43.11154" lon="-0.78155">
        <ele>332.2</ele>
        <time>2024-05-29T13:26:08.497Z</time>
      </trkpt>
      <trkpt lat="43.11158" lon="-0.78197">
        <ele>333.94</ele>
        <time>2024-05-29T13:26:08.911Z</time>
      </trkpt>
      <trkpt lat="43.11151" lon="-0.78389">
        <ele>334.56</ele>
        <time>2024-05-29T13:26:09.351Z</time>
      </trkpt>
      <trkpt lat="43.11143" lon="-0.78416">
        <ele>336.03</ele>
        <time>2024-05-29T13:26:09.795Z</time>
      </trkpt>
      <trkpt lat="43.11127" lon="-0.78447">
        <ele>337.65</ele>
        <time>2024-05-29T13:26:10.245Z</time>
      </trkpt>
      <trkpt lat="43.11098" lon="-0.78491">
        <ele>339.18</ele>
        <time>2024-05-29T13:26:10.703Z</time>
      </trkpt>
      <trkpt lat="43.11091" lon="-0.78512">
        <ele>340.78</ele>
        <time>2024-05-29T13:26:11.164Z</time>
      </trkpt>
      <trkpt lat="43.11079" lon="-0.78625">
        <ele>343.1</ele>
        <time>2024-05-29T13:26:11.640Z</time>
      </trkpt>
      <trkpt lat="43.11071" lon="-0.78662">
        <ele>344.86</ele>
        <time>2024-05-29T13:26:12.122Z</time>
      </trkpt>
      <trkpt lat="43.11037" lon="-0.78762">
        <ele>346.58</ele>
        <time>2024-05-29T13:26:12.619Z</time>
      </trkpt>
      <trkpt lat="43.11021" lon="-0.78801">
        <ele>348.6</ele>
        <time>2024-05-29T13:26:13.122Z</time>
      </trkpt>
      <trkpt lat="43.10958" lon="-0.78889">
        <ele>350.08</ele>
        <time>2024-05-29T13:26:13.641Z</time>
      </trkpt>
      <trkpt lat="43.10936" lon="-0.78907">
        <ele>351.56</ele>
        <time>2024-05-29T13:26:14.165Z</time>
      </trkpt>
      <trkpt lat="43.10879" lon="-0.78941">
        <ele>352.97</ele>
        <time>2024-05-29T13:26:14.701Z</time>
      </trkpt>
      <trkpt lat="43.10829" lon="-0.78987">
        <ele>354.72</ele>
        <time>2024-05-29T13:26:15.248Z</time>
      </trkpt>
      <trkpt lat="43.1078" lon="-0.79037">
        <ele>356.42</ele>
        <time>2024-05-29T13:26:15.806Z</time>
      </trkpt>
      <trkpt lat="43.10759" lon="-0.79072">
        <ele>357.92</ele>
        <time>2024-05-29T13:26:16.371Z</time>
      </trkpt>
      <trkpt lat="43.10735" lon="-0.79118">
        <ele>359.6</ele>
        <time>2024-05-29T13:26:16.943Z</time>
      </trkpt>
      <trkpt lat="43.10699" lon="-0.79187">
        <ele>361.08</ele>
        <time>2024-05-29T13:26:17.527Z</time>
      </trkpt>
      <trkpt lat="43.10585" lon="-0.79323">
        <ele>362.14</ele>
        <time>2024-05-29T13:26:18.139Z</time>
      </trkpt>
      <trkpt lat="43.10567" lon="-0.79357">
        <ele>363.21</ele>
        <time>2024-05-29T13:26:18.757Z</time>
      </trkpt>
      <trkpt lat="43.10527" lon="-0.79457">
        <ele>364.18</ele>
        <time>2024-05-29T13:26:19.390Z</time>
      </trkpt>
      <trkpt lat="43.10518" lon="-0.79484">
        <ele>364.89</ele>
        <time>2024-05-29T13:26:20.027Z</time>
      </trkpt>
      <trkpt lat="43.10457" lon="-0.79637">
        <ele>365.42</ele>
        <time>2024-05-29T13:26:20.688Z</time>
      </trkpt>
      <trkpt lat="43.10373" lon="-0.79854">
        <ele>366.04</ele>
        <time>2024-05-29T13:26:21.382Z</time>
      </trkpt>
      <trkpt lat="43.1034" lon="-0.79935">
        <ele>366.47</ele>
        <time>2024-05-29T13:26:22.089Z</time>
      </trkpt>
      <trkpt lat="43.10306" lon="-0.80009">
        <ele>366.56</ele>
        <time>2024-05-29T13:26:22.808Z</time>
      </trkpt>
      <trkpt lat="43.10293" lon="-0.80044">
        <ele>366.24</ele>
        <time>2024-05-29T13:26:23.532Z</time>
      </trkpt>
      <trkpt lat="43.10288" lon="-0.80074">
        <ele>365.59</ele>
        <time>2024-05-29T13:26:24.261Z</time>
      </trkpt>
      <trkpt lat="43.10288" lon="-0.80131">
        <ele>364.56</ele>
        <time>2024-05-29T13:26:24.997Z</time>
      </trkpt>
      <trkpt lat="43.10297" lon="-0.8026">
        <ele>363</ele>
        <time>2024-05-29T13:26:25.751Z</time>
      </trkpt>
      <trkpt lat="43.10295" lon="-0.8029">
        <ele>361.33</ele>
        <time>2024-05-29T13:26:26.509Z</time>
      </trkpt>
      <trkpt lat="43.10284" lon="-0.80349">
        <ele>359.26</ele>
        <time>2024-05-29T13:26:27.275Z</time>
      </trkpt>
      <trkpt lat="43.10286" lon="-0.80382">
        <ele>357.18</ele>
        <time>2024-05-29T13:26:28.046Z</time>
      </trkpt>
      <trkpt lat="43.10293" lon="-0.80404">
        <ele>354.97</ele>
        <time>2024-05-29T13:26:28.820Z</time>
      </trkpt>
      <trkpt lat="43.10308" lon="-0.80435">
        <ele>352.7</ele>
        <time>2024-05-29T13:26:29.599Z</time>
      </trkpt>
      <trkpt lat="43.10317" lon="-0.80463">
        <ele>350.17</ele>
        <time>2024-05-29T13:26:30.382Z</time>
      </trkpt>
      <trkpt lat="43.10319" lon="-0.80489">
        <ele>347.39</ele>
        <time>2024-05-29T13:26:31.169Z</time>
      </trkpt>
      <trkpt lat="43.10315" lon="-0.80523">
        <ele>344.35</ele>
        <time>2024-05-29T13:26:31.961Z</time>
      </trkpt>
      <trkpt lat="43.10308" lon="-0.8055">
        <ele>341.24</ele>
        <time>2024-05-29T13:26:32.757Z</time>
      </trkpt>
      <trkpt lat="43.10285" lon="-0.80617">
        <ele>337.88</ele>
        <time>2024-05-29T13:26:33.563Z</time>
      </trkpt>
      <trkpt lat="43.10265" lon="-0.80655">
        <ele>334.43</ele>
        <time>2024-05-29T13:26:34.375Z</time>
      </trkpt>
      <trkpt lat="43.10252" lon="-0.80672">
        <ele>331.05</ele>
        <time>2024-05-29T13:26:35.190Z</time>
      </trkpt>
      <trkpt lat="43.10239" lon="-0.80685">
        <ele>327.66</ele>
        <time>2024-05-29T13:26:36.008Z</time>
      </trkpt>
      <trkpt lat="43.10082" lon="-0.8081">
        <ele>323.29</ele>
        <time>2024-05-29T13:26:36.860Z</time>
      </trkpt>
      <trkpt lat="43.10065" lon="-0.80832">
        <ele>319.72</ele>
        <time>2024-05-29T13:26:37.717Z</time>
      </trkpt>
      <trkpt lat="43.10054" lon="-0.80859">
        <ele>316.17</ele>
        <time>2024-05-29T13:26:38.578Z</time>
      </trkpt>
      <trkpt lat="43.10051" lon="-0.80887">
        <ele>312.69</ele>
        <time>2024-05-29T13:26:39.443Z</time>
      </trkpt>
      <trkpt lat="43.10051" lon="-0.80909">
        <ele>309.32</ele>
        <time>2024-05-29T13:26:40.311Z</time>
      </trkpt>
      <trkpt lat="43.10057" lon="-0.80939">
        <ele>306.11</ele>
        <time>2024-05-29T13:26:41.183Z</time>
      </trkpt>
      <trkpt lat="43.1007" lon="-0.80971">
        <ele>302.87</ele>
        <time>2024-05-29T13:26:42.060Z</time>
      </trkpt>
      <trkpt lat="43.10111" lon="-0.81049">
        <ele>299.38</ele>
        <time>2024-05-29T13:26:42.950Z</time>
      </trkpt>
      <trkpt lat="43.10119" lon="-0.81072">
        <ele>296.32</ele>
        <time>2024-05-29T13:26:43.843Z</time>
      </trkpt>
      <trkpt lat="43.10138" lon="-0.81142">
        <ele>293.12</ele>
        <time>2024-05-29T13:26:44.747Z</time>
      </trkpt>
      <trkpt lat="43.10143" lon="-0.81174">
        <ele>290.38</ele>
        <time>2024-05-29T13:26:45.655Z</time>
      </trkpt>
      <trkpt lat="43.10144" lon="-0.81213">
        <ele>287.94</ele>
        <time>2024-05-29T13:26:46.568Z</time>
      </trkpt>
      <trkpt lat="43.1014" lon="-0.81269">
        <ele>285.72</ele>
        <time>2024-05-29T13:26:47.489Z</time>
      </trkpt>
      <trkpt lat="43.10131" lon="-0.81318">
        <ele>283.74</ele>
        <time>2024-05-29T13:26:48.417Z</time>
      </trkpt>
      <trkpt lat="43.10117" lon="-0.81378">
        <ele>281.99</ele>
        <time>2024-05-29T13:26:49.353Z</time>
      </trkpt>
      <trkpt lat="43.10104" lon="-0.81431">
        <ele>280.47</ele>
        <time>2024-05-29T13:26:50.297Z</time>
      </trkpt>
      <trkpt lat="43.10096" lon="-0.81449">
        <ele>278.92</ele>
        <time>2024-05-29T13:26:51.244Z</time>
      </trkpt>
      <trkpt lat="43.10083" lon="-0.81473">
        <ele>277.46</ele>
        <time>2024-05-29T13:26:52.195Z</time>
      </trkpt>
      <trkpt lat="43.10068" lon="-0.81491">
        <ele>276.03</ele>
        <time>2024-05-29T13:26:53.150Z</time>
      </trkpt>
      <trkpt lat="43.10053" lon="-0.81505">
        <ele>274.58</ele>
        <time>2024-05-29T13:26:54.108Z</time>
      </trkpt>
      <trkpt lat="43.1002" lon="-0.81525">
        <ele>273.09</ele>
        <time>2024-05-29T13:26:55.073Z</time>
      </trkpt>
      <trkpt lat="43.09971" lon="-0.81543">
        <ele>271.47</ele>
        <time>2024-05-29T13:26:56.047Z</time>
      </trkpt>
      <trkpt lat="43.09959" lon="-0.81548">
        <ele>270.1</ele>
        <time>2024-05-29T13:26:57.024Z</time>
      </trkpt>
      <trkpt lat="43.09946" lon="-0.81558">
        <ele>268.67</ele>
        <time>2024-05-29T13:26:58.003Z</time>
      </trkpt>
      <trkpt lat="43.09934" lon="-0.81572">
        <ele>267.28</ele>
        <time>2024-05-29T13:26:58.985Z</time>
      </trkpt>
      <trkpt lat="43.09868" lon="-0.81678">
        <ele>265.68</ele>
        <time>2024-05-29T13:26:59.986Z</time>
      </trkpt>
      <trkpt lat="43.09859" lon="-0.81694">
        <ele>264.52</ele>
        <time>2024-05-29T13:27:00.990Z</time>
      </trkpt>
      <trkpt lat="43.09839" lon="-0.81729">
        <ele>263.43</ele>
        <time>2024-05-29T13:27:02.000Z</time>
      </trkpt>
      <trkpt lat="43.09827" lon="-0.81765">
        <ele>262.4</ele>
        <time>2024-05-29T13:27:03.015Z</time>
      </trkpt>
      <trkpt lat="43.09796" lon="-0.81925">
        <ele>261.5</ele>
        <time>2024-05-29T13:27:04.053Z</time>
      </trkpt>
      <trkpt lat="43.09797" lon="-0.81951">
        <ele>260.59</ele>
        <time>2024-05-29T13:27:05.095Z</time>
      </trkpt>
      <trkpt lat="43.09821" lon="-0.82019">
        <ele>259.67</ele>
        <time>2024-05-29T13:27:06.147Z</time>
      </trkpt>
      <trkpt lat="43.09965" lon="-0.82424">
        <ele>258.59</ele>
        <time>2024-05-29T13:27:07.260Z</time>
      </trkpt>
      <trkpt lat="43.09981" lon="-0.82466">
        <ele>257.68</ele>
        <time>2024-05-29T13:27:08.380Z</time>
      </trkpt>
      <trkpt lat="43.10015" lon="-0.82539">
        <ele>256.8</ele>
        <time>2024-05-29T13:27:09.511Z</time>
      </trkpt>
      <trkpt lat="43.10023" lon="-0.82569">
        <ele>256.07</ele>
        <time>2024-05-29T13:27:10.647Z</time>
      </trkpt>
      <trkpt lat="43.10028" lon="-0.82598">
        <ele>255.27</ele>
        <time>2024-05-29T13:27:11.787Z</time>
      </trkpt>
      <trkpt lat="43.10027" lon="-0.82638">
        <ele>254.44</ele>
        <time>2024-05-29T13:27:12.932Z</time>
      </trkpt>
      <trkpt lat="43.10021" lon="-0.82666">
        <ele>253.61</ele>
        <time>2024-05-29T13:27:14.081Z</time>
      </trkpt>
      <trkpt lat="43.09998" lon="-0.82724">
        <ele>252.73</ele>
        <time>2024-05-29T13:27:15.239Z</time>
      </trkpt>
      <trkpt lat="43.09988" lon="-0.82758">
        <ele>251.8</ele>
        <time>2024-05-29T13:27:16.402Z</time>
      </trkpt>
      <trkpt lat="43.09984" lon="-0.82801">
        <ele>250.86</ele>
        <time>2024-05-29T13:27:17.571Z</time>
      </trkpt>
      <trkpt lat="43.09995" lon="-0.82875">
        <ele>249.91</ele>
        <time>2024-05-29T13:27:18.751Z</time>
      </trkpt>
      <trkpt lat="43.10044" lon="-0.83139">
        <ele>249.33</ele>
        <time>2024-05-29T13:27:19.968Z</time>
      </trkpt>
      <trkpt lat="43.10053" lon="-0.83186">
        <ele>248.59</ele>
        <time>2024-05-29T13:27:21.191Z</time>
      </trkpt>
      <trkpt lat="43.10079" lon="-0.83401">
        <ele>247.94</ele>
        <time>2024-05-29T13:27:22.444Z</time>
      </trkpt>
      <trkpt lat="43.10096" lon="-0.83562">
        <ele>246.9</ele>
        <time>2024-05-29T13:27:23.719Z</time>
      </trkpt>
      <trkpt lat="43.10128" lon="-0.83864">
        <ele>246.29</ele>
        <time>2024-05-29T13:27:25.036Z</time>
      </trkpt>
      <trkpt lat="43.10128" lon="-0.83905">
        <ele>245.74</ele>
        <time>2024-05-29T13:27:26.358Z</time>
      </trkpt>
      <trkpt lat="43.10124" lon="-0.83951">
        <ele>245.12</ele>
        <time>2024-05-29T13:27:27.687Z</time>
      </trkpt>
      <trkpt lat="43.10113" lon="-0.84006">
        <ele>244.4</ele>
        <time>2024-05-29T13:27:29.023Z</time>
      </trkpt>
      <trkpt lat="43.10107" lon="-0.8406">
        <ele>243.77</ele>
        <time>2024-05-29T13:27:30.367Z</time>
      </trkpt>
      <trkpt lat="43.10105" lon="-0.84095">
        <ele>243.08</ele>
        <time>2024-05-29T13:27:31.716Z</time>
      </trkpt>
      <trkpt lat="43.10113" lon="-0.84165">
        <ele>242.3</ele>
        <time>2024-05-29T13:27:33.074Z</time>
      </trkpt>
      <trkpt lat="43.10136" lon="-0.84289">
        <ele>241.7</ele>
        <time>2024-05-29T13:27:34.450Z</time>
      </trkpt>
      <trkpt lat="43.10138" lon="-0.84326">
        <ele>241.26</ele>
        <time>2024-05-29T13:27:35.831Z</time>
      </trkpt>
      <trkpt lat="43.10135" lon="-0.84521">
        <ele>240.88</ele>
        <time>2024-05-29T13:27:37.238Z</time>
      </trkpt>
      <trkpt lat="43.10138" lon="-0.84584">
        <ele>240.41</ele>
        <time>2024-05-29T13:27:38.654Z</time>
      </trkpt>
      <trkpt lat="43.10168" lon="-0.84834">
        <ele>240.16</ele>
        <time>2024-05-29T13:27:40.104Z</time>
      </trkpt>
      <trkpt lat="43.10188" lon="-0.84977">
        <ele>239.99</ele>
        <time>2024-05-29T13:27:41.574Z</time>
      </trkpt>
      <trkpt lat="43.10195" lon="-0.85022">
        <ele>239.88</ele>
        <time>2024-05-29T13:27:43.051Z</time>
      </trkpt>
      <trkpt lat="43.10205" lon="-0.85051">
        <ele>239.79</ele>
        <time>2024-05-29T13:27:44.532Z</time>
      </trkpt>
      <trkpt lat="43.10197" lon="-0.85061">
        <ele>239.7</ele>
        <time>2024-05-29T13:27:46.015Z</time>
      </trkpt>
      <trkpt lat="43.10189" lon="-0.85075">
        <ele>239.68</ele>
        <time>2024-05-29T13:27:47.500Z</time>
      </trkpt>
      <trkpt lat="43.10183" lon="-0.85091">
        <ele>239.76</ele>
        <time>2024-05-29T13:27:48.988Z</time>
      </trkpt>
      <trkpt lat="43.10164" lon="-0.85199">
        <ele>239.91</ele>
        <time>2024-05-29T13:27:50.491Z</time>
      </trkpt>
      <trkpt lat="43.10159" lon="-0.85213">
        <ele>240.17</ele>
        <time>2024-05-29T13:27:51.996Z</time>
      </trkpt>
      <trkpt lat="43.1015" lon="-0.85227">
        <ele>240.49</ele>
        <time>2024-05-29T13:27:53.504Z</time>
      </trkpt>
      <trkpt lat="43.1013" lon="-0.85246">
        <ele>240.85</ele>
        <time>2024-05-29T13:27:55.016Z</time>
      </trkpt>
      <trkpt lat="43.10117" lon="-0.85261">
        <ele>241.32</ele>
        <time>2024-05-29T13:27:56.531Z</time>
      </trkpt>
      <trkpt lat="43.10113" lon="-0.85271">
        <ele>241.83</ele>
        <time>2024-05-29T13:27:58.048Z</time>
      </trkpt>
      <trkpt lat="43.1011" lon="-0.85286">
        <ele>242.39</ele>
        <time>2024-05-29T13:27:59.567Z</time>
      </trkpt>
      <trkpt lat="43.1011" lon="-0.85312">
        <ele>242.98</ele>
        <time>2024-05-29T13:28:01.090Z</time>
      </trkpt>
      <trkpt lat="43.10118" lon="-0.85346">
        <ele>243.68</ele>
        <time>2024-05-29T13:28:02.617Z</time>
      </trkpt>
      <trkpt lat="43.10118" lon="-0.85366">
        <ele>244.46</ele>
        <time>2024-05-29T13:28:04.147Z</time>
      </trkpt>
      <trkpt lat="43.10119" lon="-0.85389">
        <ele>245.3</ele>
        <time>2024-05-29T13:28:05.680Z</time>
      </trkpt>
      <trkpt lat="43.1012" lon="-0.85421">
        <ele>246.23</ele>
        <time>2024-05-29T13:28:07.218Z</time>
      </trkpt>
      <trkpt lat="43.10109" lon="-0.85451">
        <ele>247.26</ele>
        <time>2024-05-29T13:28:08.760Z</time>
      </trkpt>
      <trkpt lat="43.10109" lon="-0.85457">
        <ele>248.14</ele>
        <time>2024-05-29T13:28:10.303Z</time>
      </trkpt>
      <trkpt lat="43.10113" lon="-0.85466">
        <ele>249</ele>
        <time>2024-05-29T13:28:11.848Z</time>
      </trkpt>
      <trkpt lat="43.10125" lon="-0.85483">
        <ele>249.81</ele>
        <time>2024-05-29T13:28:13.396Z</time>
      </trkpt>
      <trkpt lat="43.10127" lon="-0.85493">
        <ele>250.65</ele>
        <time>2024-05-29T13:28:14.945Z</time>
      </trkpt>
      <trkpt lat="43.10128" lon="-0.85503">
        <ele>251.47</ele>
        <time>2024-05-29T13:28:16.496Z</time>
      </trkpt>
      <trkpt lat="43.10116" lon="-0.85557">
        <ele>252.43</ele>
        <time>2024-05-29T13:28:18.054Z</time>
      </trkpt>
      <trkpt lat="43.10099" lon="-0.85623">
        <ele>253.52</ele>
        <time>2024-05-29T13:28:19.622Z</time>
      </trkpt>
      <trkpt lat="43.10088" lon="-0.85661">
        <ele>254.41</ele>
        <time>2024-05-29T13:28:21.195Z</time>
      </trkpt>
      <trkpt lat="43.10076" lon="-0.85687">
        <ele>255.14</ele>
        <time>2024-05-29T13:28:22.772Z</time>
      </trkpt>
      <trkpt lat="43.10049" lon="-0.8573">
        <ele>255.78</ele>
        <time>2024-05-29T13:28:24.357Z</time>
      </trkpt>
      <trkpt lat="43.10039" lon="-0.85749">
        <ele>256.32</ele>
        <time>2024-05-29T13:28:25.945Z</time>
      </trkpt>
      <trkpt lat="43.1002" lon="-0.85802">
        <ele>256.8</ele>
        <time>2024-05-29T13:28:27.541Z</time>
      </trkpt>
      <trkpt lat="43.10011" lon="-0.8582">
        <ele>257.18</ele>
        <time>2024-05-29T13:28:29.140Z</time>
      </trkpt>
      <trkpt lat="43.09948" lon="-0.85913">
        <ele>257.71</ele>
        <time>2024-05-29T13:28:30.757Z</time>
      </trkpt>
      <trkpt lat="43.09922" lon="-0.85949">
        <ele>257.84</ele>
        <time>2024-05-29T13:28:32.381Z</time>
      </trkpt>
      <trkpt lat="43.0989" lon="-0.85962">
        <ele>257.82</ele>
        <time>2024-05-29T13:28:34.011Z</time>
      </trkpt>
      <trkpt lat="43.09859" lon="-0.85972">
        <ele>257.66</ele>
        <time>2024-05-29T13:28:35.647Z</time>
      </trkpt>
      <trkpt lat="43.09806" lon="-0.85957">
        <ele>257.36</ele>
        <time>2024-05-29T13:28:37.293Z</time>
      </trkpt>
      <trkpt lat="43.09798" lon="-0.85956">
        <ele>257.04</ele>
        <time>2024-05-29T13:28:38.940Z</time>
      </trkpt>
      <trkpt lat="43.09783" lon="-0.85958">
        <ele>256.58</ele>
        <time>2024-05-29T13:28:40.590Z</time>
      </trkpt>
      <trkpt lat="43.09768" lon="-0.85965">
        <ele>256.03</ele>
        <time>2024-05-29T13:28:42.243Z</time>
      </trkpt>
      <trkpt lat="43.09757" lon="-0.85976">
        <ele>255.44</ele>
        <time>2024-05-29T13:28:43.899Z</time>
      </trkpt>
      <trkpt lat="43.09751" lon="-0.85986">
        <ele>254.84</ele>
        <time>2024-05-29T13:28:45.556Z</time>
      </trkpt>
      <trkpt lat="43.0972" lon="-0.86064">
        <ele>254.02</ele>
        <time>2024-05-29T13:28:47.225Z</time>
      </trkpt>
      <trkpt lat="43.09716" lon="-0.86084">
        <ele>253.38</ele>
        <time>2024-05-29T13:28:48.897Z</time>
      </trkpt>
      <trkpt lat="43.09712" lon="-0.86118">
        <ele>252.76</ele>
        <time>2024-05-29T13:28:50.574Z</time>
      </trkpt>
      <trkpt lat="43.09716" lon="-0.86197">
        <ele>251.91</ele>
        <time>2024-05-29T13:28:52.262Z</time>
      </trkpt>
      <trkpt lat="43.09723" lon="-0.86221">
        <ele>251.23</ele>
        <time>2024-05-29T13:28:53.953Z</time>
      </trkpt>
      <trkpt lat="43.09737" lon="-0.86266">
        <ele>250.45</ele>
        <time>2024-05-29T13:28:55.651Z</time>
      </trkpt>
      <trkpt lat="43.0972" lon="-0.86277">
        <ele>249.85</ele>
        <time>2024-05-29T13:28:57.352Z</time>
      </trkpt>
      <trkpt lat="43.09708" lon="-0.86289">
        <ele>249.28</ele>
        <time>2024-05-29T13:28:59.056Z</time>
      </trkpt>
      <trkpt lat="43.09685" lon="-0.86316">
        <ele>248.75</ele>
        <time>2024-05-29T13:29:00.766Z</time>
      </trkpt>
      <trkpt lat="43.09663" lon="-0.86357">
        <ele>248.35</ele>
        <time>2024-05-29T13:29:02.483Z</time>
      </trkpt>
      <trkpt lat="43.09573" lon="-0.86541">
        <ele>247.85</ele>
        <time>2024-05-29T13:29:04.230Z</time>
      </trkpt>
      <trkpt lat="43.09556" lon="-0.86573">
        <ele>247.52</ele>
        <time>2024-05-29T13:29:05.982Z</time>
      </trkpt>
      <trkpt lat="43.09539" lon="-0.86599">
        <ele>247.24</ele>
        <time>2024-05-29T13:29:07.739Z</time>
      </trkpt>
      <trkpt lat="43.09522" lon="-0.8662">
        <ele>247.03</ele>
        <time>2024-05-29T13:29:09.500Z</time>
      </trkpt>
      <trkpt lat="43.09487" lon="-0.86654">
        <ele>247.02</ele>
        <time>2024-05-29T13:29:11.269Z</time>
      </trkpt>
      <trkpt lat="43.09453" lon="-0.86677">
        <ele>246.94</ele>
        <time>2024-05-29T13:29:13.045Z</time>
      </trkpt>
      <trkpt lat="43.09257" lon="-0.86792">
        <ele>247.21</ele>
        <time>2024-05-29T13:29:14.861Z</time>
      </trkpt>
      <trkpt lat="43.0917" lon="-0.8685">
        <ele>247.37</ele>
        <time>2024-05-29T13:29:16.695Z</time>
      </trkpt>
      <trkpt lat="43.08996" lon="-0.86973">
        <ele>247.9</ele>
        <time>2024-05-29T13:29:18.566Z</time>
      </trkpt>
      <trkpt lat="43.08936" lon="-0.87009">
        <ele>248.46</ele>
        <time>2024-05-29T13:29:20.449Z</time>
      </trkpt>
      <trkpt lat="43.08878" lon="-0.8704">
        <ele>248.85</ele>
        <time>2024-05-29T13:29:22.343Z</time>
      </trkpt>
      <trkpt lat="43.0874" lon="-0.87093">
        <ele>249.16</ele>
        <time>2024-05-29T13:29:24.264Z</time>
      </trkpt>
      <trkpt lat="43.08644" lon="-0.87136">
        <ele>249.26</ele>
        <time>2024-05-29T13:29:26.204Z</time>
      </trkpt>
      <trkpt lat="43.0862" lon="-0.87144">
        <ele>249.58</ele>
        <time>2024-05-29T13:29:28.148Z</time>
      </trkpt>
      <trkpt lat="43.08581" lon="-0.87151">
        <ele>249.8</ele>
        <time>2024-05-29T13:29:30.100Z</time>
      </trkpt>
      <trkpt lat="43.08529" lon="-0.87151">
        <ele>250</ele>
        <time>2024-05-29T13:29:32.061Z</time>
      </trkpt>
      <trkpt lat="43.08492" lon="-0.87154">
        <ele>250.47</ele>
        <time>2024-05-29T13:29:34.029Z</time>
      </trkpt>
      <trkpt lat="43.08435" lon="-0.87161">
        <ele>250.88</ele>
        <time>2024-05-29T13:29:36.008Z</time>
      </trkpt>
      <trkpt lat="43.08377" lon="-0.87161">
        <ele>251.33</ele>
        <time>2024-05-29T13:29:37.998Z</time>
      </trkpt>
      <trkpt lat="43.08311" lon="-0.87172">
        <ele>251.48</ele>
        <time>2024-05-29T13:29:40.000Z</time>
      </trkpt>
      <trkpt lat="43.08292" lon="-0.87172">
        <ele>251.83</ele>
        <time>2024-05-29T13:29:42.006Z</time>
      </trkpt>
      <trkpt lat="43.0828" lon="-0.87171">
        <ele>252.19</ele>
        <time>2024-05-29T13:29:44.014Z</time>
      </trkpt>
      <trkpt lat="43.08237" lon="-0.87158">
        <ele>252.52</ele>
        <time>2024-05-29T13:29:46.030Z</time>
      </trkpt>
      <trkpt lat="43.08155" lon="-0.87149">
        <ele>253.03</ele>
        <time>2024-05-29T13:29:48.061Z</time>
      </trkpt>
      <trkpt lat="43.08113" lon="-0.87145">
        <ele>253.47</ele>
        <time>2024-05-29T13:29:50.100Z</time>
      </trkpt>
      <trkpt lat="43.08078" lon="-0.87148">
        <ele>254.01</ele>
        <time>2024-05-29T13:29:52.146Z</time>
      </trkpt>
      <trkpt lat="43.08056" lon="-0.87145">
        <ele>254.45</ele>
        <time>2024-05-29T13:29:54.196Z</time>
      </trkpt>
      <trkpt lat="43.07994" lon="-0.87112">
        <ele>255.21</ele>
        <time>2024-05-29T13:29:56.258Z</time>
      </trkpt>
      <trkpt lat="43.07979" lon="-0.87107">
        <ele>255.67</ele>
        <time>2024-05-29T13:29:58.323Z</time>
      </trkpt>
      <trkpt lat="43.07912" lon="-0.87112">
        <ele>255.68</ele>
        <time>2024-05-29T13:30:00.401Z</time>
      </trkpt>
      <trkpt lat="43.07898" lon="-0.8711">
        <ele>255.96</ele>
        <time>2024-05-29T13:30:02.481Z</time>
      </trkpt>
      <trkpt lat="43.0785" lon="-0.87095">
        <ele>256.24</ele>
        <time>2024-05-29T13:30:04.570Z</time>
      </trkpt>
      <trkpt lat="43.07827" lon="-0.8709">
        <ele>256.52</ele>
        <time>2024-05-29T13:30:06.664Z</time>
      </trkpt>
      <trkpt lat="43.07815" lon="-0.87094">
        <ele>256.7</ele>
        <time>2024-05-29T13:30:08.760Z</time>
      </trkpt>
      <trkpt lat="43.07808" lon="-0.87098">
        <ele>256.93</ele>
        <time>2024-05-29T13:30:10.857Z</time>
      </trkpt>
      <trkpt lat="43.07798" lon="-0.8711">
        <ele>257.14</ele>
        <time>2024-05-29T13:30:12.957Z</time>
      </trkpt>
      <trkpt lat="43.07785" lon="-0.87129">
        <ele>257.38</ele>
        <time>2024-05-29T13:30:15.060Z</time>
      </trkpt>
      <trkpt lat="43.07749" lon="-0.87198">
        <ele>257.69</ele>
        <time>2024-05-29T13:30:17.175Z</time>
      </trkpt>
      <trkpt lat="43.0774" lon="-0.87211">
        <ele>257.98</ele>
        <time>2024-05-29T13:30:19.292Z</time>
      </trkpt>
      <trkpt lat="43.07717" lon="-0.87231">
        <ele>258.31</ele>
        <time>2024-05-29T13:30:21.414Z</time>
      </trkpt>
      <trkpt lat="43.07678" lon="-0.87258">
        <ele>258.83</ele>
        <time>2024-05-29T13:30:23.545Z</time>
      </trkpt>
      <trkpt lat="43.0766" lon="-0.87274">
        <ele>259.21</ele>
        <time>2024-05-29T13:30:25.680Z</time>
      </trkpt>
      <trkpt lat="43.0766" lon="-0.87274">
        <ele>259.21</ele>
        <time>2024-05-29T13:30:27.815Z</time>
      </trkpt>
      <trkpt lat="43.0766" lon="-0.87274">
        <ele>259.21</ele>
        <time>2024-05-29T13:30:29.950Z</time>
      </trkpt>
      <trkpt lat="43.07589" lon="-0.8736">
        <ele>259.23</ele>
        <time>2024-05-29T13:30:32.102Z</time>
      </trkpt>
      <trkpt lat="43.07513" lon="-0.87434">
        <ele>259.37</ele>
        <time>2024-05-29T13:30:34.272Z</time>
      </trkpt>
      <trkpt lat="43.07487" lon="-0.87475">
        <ele>259.55</ele>
        <time>2024-05-29T13:30:36.449Z</time>
      </trkpt>
      <trkpt lat="43.07471" lon="-0.87493">
        <ele>259.78</ele>
        <time>2024-05-29T13:30:38.630Z</time>
      </trkpt>
      <trkpt lat="43.07465" lon="-0.87497">
        <ele>260.05</ele>
        <time>2024-05-29T13:30:40.812Z</time>
      </trkpt>
      <trkpt lat="43.07429" lon="-0.87506">
        <ele>260.46</ele>
        <time>2024-05-29T13:30:43.001Z</time>
      </trkpt>
      <trkpt lat="43.07387" lon="-0.87522">
        <ele>260.72</ele>
        <time>2024-05-29T13:30:45.198Z</time>
      </trkpt>
      <trkpt lat="43.07347" lon="-0.87542">
        <ele>261.02</ele>
        <time>2024-05-29T13:30:47.403Z</time>
      </trkpt>
      <trkpt lat="43.07313" lon="-0.8758">
        <ele>261.41</ele>
        <time>2024-05-29T13:30:49.616Z</time>
      </trkpt>
      <trkpt lat="43.07284" lon="-0.87597">
        <ele>261.81</ele>
        <time>2024-05-29T13:30:51.835Z</time>
      </trkpt>
      <trkpt lat="43.07227" lon="-0.87619">
        <ele>262.42</ele>
        <time>2024-05-29T13:30:54.065Z</time>
      </trkpt>
      <trkpt lat="43.07188" lon="-0.8762">
        <ele>262.71</ele>
        <time>2024-05-29T13:30:56.302Z</time>
      </trkpt>
      <trkpt lat="43.07155" lon="-0.87616">
        <ele>263.06</ele>
        <time>2024-05-29T13:30:58.545Z</time>
      </trkpt>
      <trkpt lat="43.07144" lon="-0.8761">
        <ele>263.42</ele>
        <time>2024-05-29T13:31:00.791Z</time>
      </trkpt>
      <trkpt lat="43.07131" lon="-0.87595">
        <ele>263.83</ele>
        <time>2024-05-29T13:31:03.040Z</time>
      </trkpt>
      <trkpt lat="43.07106" lon="-0.87561">
        <ele>264.48</ele>
        <time>2024-05-29T13:31:05.295Z</time>
      </trkpt>
      <trkpt lat="43.07094" lon="-0.87549">
        <ele>264.95</ele>
        <time>2024-05-29T13:31:07.553Z</time>
      </trkpt>
      <trkpt lat="43.07078" lon="-0.87541">
        <ele>265.3</ele>
        <time>2024-05-29T13:31:09.814Z</time>
      </trkpt>
      <trkpt lat="43.0705" lon="-0.87532">
        <ele>265.65</ele>
        <time>2024-05-29T13:31:12.081Z</time>
      </trkpt>
      <trkpt lat="43.07029" lon="-0.87532">
        <ele>266.27</ele>
        <time>2024-05-29T13:31:14.352Z</time>
      </trkpt>
      <trkpt lat="43.07006" lon="-0.87537">
        <ele>266.93</ele>
        <time>2024-05-29T13:31:16.627Z</time>
      </trkpt>
      <trkpt lat="43.06986" lon="-0.8755">
        <ele>267.56</ele>
        <time>2024-05-29T13:31:18.906Z</time>
      </trkpt>
      <trkpt lat="43.06921" lon="-0.87598">
        <ele>268.1</ele>
        <time>2024-05-29T13:31:21.199Z</time>
      </trkpt>
      <trkpt lat="43.0689" lon="-0.87615">
        <ele>268.81</ele>
        <time>2024-05-29T13:31:23.498Z</time>
      </trkpt>
      <trkpt lat="43.06859" lon="-0.87625">
        <ele>269.6</ele>
        <time>2024-05-29T13:31:25.803Z</time>
      </trkpt>
      <trkpt lat="43.06817" lon="-0.87632">
        <ele>270.49</ele>
        <time>2024-05-29T13:31:28.116Z</time>
      </trkpt>
      <trkpt lat="43.06771" lon="-0.87644">
        <ele>271.2</ele>
        <time>2024-05-29T13:31:30.437Z</time>
      </trkpt>
      <trkpt lat="43.06741" lon="-0.87657">
        <ele>271.95</ele>
        <time>2024-05-29T13:31:32.764Z</time>
      </trkpt>
      <trkpt lat="43.06706" lon="-0.87659">
        <ele>272.83</ele>
        <time>2024-05-29T13:31:35.098Z</time>
      </trkpt>
      <trkpt lat="43.06667" lon="-0.87643">
        <ele>273.81</ele>
        <time>2024-05-29T13:31:37.439Z</time>
      </trkpt>
      <trkpt lat="43.06652" lon="-0.87639">
        <ele>274.68</ele>
        <time>2024-05-29T13:31:39.783Z</time>
      </trkpt>
      <trkpt lat="43.06609" lon="-0.87615">
        <ele>275.65</ele>
        <time>2024-05-29T13:31:42.136Z</time>
      </trkpt>
      <trkpt lat="43.06591" lon="-0.87611">
        <ele>276.61</ele>
        <time>2024-05-29T13:31:44.492Z</time>
      </trkpt>
      <trkpt lat="43.06531" lon="-0.87606">
        <ele>278.18</ele>
        <time>2024-05-29T13:31:46.859Z</time>
      </trkpt>
      <trkpt lat="43.06509" lon="-0.87608">
        <ele>279.26</ele>
        <time>2024-05-29T13:31:49.231Z</time>
      </trkpt>
      <trkpt lat="43.06488" lon="-0.87616">
        <ele>280.08</ele>
        <time>2024-05-29T13:31:51.607Z</time>
      </trkpt>
      <trkpt lat="43.06433" lon="-0.8766">
        <ele>280.45</ele>
        <time>2024-05-29T13:31:53.994Z</time>
      </trkpt>
      <trkpt lat="43.06418" lon="-0.87669">
        <ele>281.06</ele>
        <time>2024-05-29T13:31:56.385Z</time>
      </trkpt>
      <trkpt lat="43.06404" lon="-0.8767">
        <ele>281.71</ele>
        <time>2024-05-29T13:31:58.778Z</time>
      </trkpt>
      <trkpt lat="43.06388" lon="-0.87654">
        <ele>282.4</ele>
        <time>2024-05-29T13:32:01.175Z</time>
      </trkpt>
      <trkpt lat="43.06367" lon="-0.87624">
        <ele>283.02</ele>
        <time>2024-05-29T13:32:03.578Z</time>
      </trkpt>
      <trkpt lat="43.06362" lon="-0.87619">
        <ele>283.61</ele>
        <time>2024-05-29T13:32:05.982Z</time>
      </trkpt>
      <trkpt lat="43.06355" lon="-0.87616">
        <ele>284.14</ele>
        <time>2024-05-29T13:32:08.387Z</time>
      </trkpt>
      <trkpt lat="43.06341" lon="-0.87616">
        <ele>284.61</ele>
        <time>2024-05-29T13:32:10.795Z</time>
      </trkpt>
      <trkpt lat="43.0633" lon="-0.8762">
        <ele>285.11</ele>
        <time>2024-05-29T13:32:13.205Z</time>
      </trkpt>
      <trkpt lat="43.06322" lon="-0.87628">
        <ele>285.59</ele>
        <time>2024-05-29T13:32:15.617Z</time>
      </trkpt>
      <trkpt lat="43.06316" lon="-0.87643">
        <ele>286.13</ele>
        <time>2024-05-29T13:32:18.031Z</time>
      </trkpt>
      <trkpt lat="43.06311" lon="-0.87667">
        <ele>286.6</ele>
        <time>2024-05-29T13:32:20.448Z</time>
      </trkpt>
      <trkpt lat="43.06304" lon="-0.87684">
        <ele>287.05</ele>
        <time>2024-05-29T13:32:22.868Z</time>
      </trkpt>
      <trkpt lat="43.06268" lon="-0.87716">
        <ele>287.8</ele>
        <time>2024-05-29T13:32:25.296Z</time>
      </trkpt>
      <trkpt lat="43.06243" lon="-0.87733">
        <ele>288.28</ele>
        <time>2024-05-29T13:32:27.729Z</time>
      </trkpt>
      <trkpt lat="43.06225" lon="-0.87739">
        <ele>288.74</ele>
        <time>2024-05-29T13:32:30.166Z</time>
      </trkpt>
      <trkpt lat="43.0621" lon="-0.87742">
        <ele>289.21</ele>
        <time>2024-05-29T13:32:32.605Z</time>
      </trkpt>
      <trkpt lat="43.06167" lon="-0.87744">
        <ele>289.66</ele>
        <time>2024-05-29T13:32:35.052Z</time>
      </trkpt>
      <trkpt lat="43.06136" lon="-0.87741">
        <ele>290</ele>
        <time>2024-05-29T13:32:37.505Z</time>
      </trkpt>
      <trkpt lat="43.06112" lon="-0.87729">
        <ele>290.34</ele>
        <time>2024-05-29T13:32:39.963Z</time>
      </trkpt>
      <trkpt lat="43.06084" lon="-0.87711">
        <ele>290.55</ele>
        <time>2024-05-29T13:32:42.427Z</time>
      </trkpt>
      <trkpt lat="43.06051" lon="-0.87682">
        <ele>290.9</ele>
        <time>2024-05-29T13:32:44.898Z</time>
      </trkpt>
      <trkpt lat="43.06033" lon="-0.87672">
        <ele>291.18</ele>
        <time>2024-05-29T13:32:47.373Z</time>
      </trkpt>
      <trkpt lat="43.05983" lon="-0.87657">
        <ele>291.18</ele>
        <time>2024-05-29T13:32:49.857Z</time>
      </trkpt>
      <trkpt lat="43.05959" lon="-0.8766">
        <ele>291.4</ele>
        <time>2024-05-29T13:32:52.346Z</time>
      </trkpt>
      <trkpt lat="43.0594" lon="-0.87677">
        <ele>291.43</ele>
        <time>2024-05-29T13:32:54.839Z</time>
      </trkpt>
      <trkpt lat="43.05853" lon="-0.87766">
        <ele>291.7</ele>
        <time>2024-05-29T13:32:57.352Z</time>
      </trkpt>
      <trkpt lat="43.05802" lon="-0.87822">
        <ele>292.22</ele>
        <time>2024-05-29T13:32:59.877Z</time>
      </trkpt>
      <trkpt lat="43.05786" lon="-0.87828">
        <ele>292.74</ele>
        <time>2024-05-29T13:33:02.405Z</time>
      </trkpt>
      <trkpt lat="43.05757" lon="-0.87828">
        <ele>293.21</ele>
        <time>2024-05-29T13:33:04.939Z</time>
      </trkpt>
      <trkpt lat="43.05737" lon="-0.87833">
        <ele>293.63</ele>
        <time>2024-05-29T13:33:07.477Z</time>
      </trkpt>
      <trkpt lat="43.05712" lon="-0.87849">
        <ele>294.12</ele>
        <time>2024-05-29T13:33:10.020Z</time>
      </trkpt>
      <trkpt lat="43.05694" lon="-0.87867">
        <ele>294.61</ele>
        <time>2024-05-29T13:33:12.567Z</time>
      </trkpt>
      <trkpt lat="43.0566" lon="-0.8791">
        <ele>295.13</ele>
        <time>2024-05-29T13:33:15.122Z</time>
      </trkpt>
      <trkpt lat="43.05626" lon="-0.87962">
        <ele>295.46</ele>
        <time>2024-05-29T13:33:17.687Z</time>
      </trkpt>
      <trkpt lat="43.05593" lon="-0.88042">
        <ele>295.66</ele>
        <time>2024-05-29T13:33:20.265Z</time>
      </trkpt>
      <trkpt lat="43.05579" lon="-0.88063">
        <ele>296.25</ele>
        <time>2024-05-29T13:33:22.846Z</time>
      </trkpt>
      <trkpt lat="43.05543" lon="-0.88094">
        <ele>296.85</ele>
        <time>2024-05-29T13:33:25.435Z</time>
      </trkpt>
      <trkpt lat="43.0553" lon="-0.881">
        <ele>297.57</ele>
        <time>2024-05-29T13:33:28.027Z</time>
      </trkpt>
      <trkpt lat="43.05514" lon="-0.88104">
        <ele>298.42</ele>
        <time>2024-05-29T13:33:30.622Z</time>
      </trkpt>
      <trkpt lat="43.05473" lon="-0.88103">
        <ele>299.75</ele>
        <time>2024-05-29T13:33:33.225Z</time>
      </trkpt>
      <trkpt lat="43.05449" lon="-0.88098">
        <ele>300.68</ele>
        <time>2024-05-29T13:33:35.832Z</time>
      </trkpt>
      <trkpt lat="43.0543" lon="-0.88098">
        <ele>301.39</ele>
        <time>2024-05-29T13:33:38.443Z</time>
      </trkpt>
      <trkpt lat="43.05398" lon="-0.88104">
        <ele>302.03</ele>
        <time>2024-05-29T13:33:41.060Z</time>
      </trkpt>
      <trkpt lat="43.05356" lon="-0.881">
        <ele>302.79</ele>
        <time>2024-05-29T13:33:43.684Z</time>
      </trkpt>
      <trkpt lat="43.05321" lon="-0.88102">
        <ele>303.46</ele>
        <time>2024-05-29T13:33:46.315Z</time>
      </trkpt>
      <trkpt lat="43.05289" lon="-0.88111">
        <ele>304.31</ele>
        <time>2024-05-29T13:33:48.952Z</time>
      </trkpt>
      <trkpt lat="43.05194" lon="-0.88155">
        <ele>304.98</ele>
        <time>2024-05-29T13:33:51.608Z</time>
      </trkpt>
      <trkpt lat="43.05159" lon="-0.88158">
        <ele>306.12</ele>
        <time>2024-05-29T13:33:54.270Z</time>
      </trkpt>
      <trkpt lat="43.05128" lon="-0.88163">
        <ele>307.16</ele>
        <time>2024-05-29T13:33:56.938Z</time>
      </trkpt>
      <trkpt lat="43.05072" lon="-0.8818">
        <ele>308.57</ele>
        <time>2024-05-29T13:33:59.617Z</time>
      </trkpt>
      <trkpt lat="43.05056" lon="-0.88188">
        <ele>309.6</ele>
        <time>2024-05-29T13:34:02.299Z</time>
      </trkpt>
      <trkpt lat="43.0504" lon="-0.88204">
        <ele>310.53</ele>
        <time>2024-05-29T13:34:04.985Z</time>
      </trkpt>
      <trkpt lat="43.05028" lon="-0.88211">
        <ele>311.65</ele>
        <time>2024-05-29T13:34:07.673Z</time>
      </trkpt>
      <trkpt lat="43.05014" lon="-0.88232">
        <ele>312.62</ele>
        <time>2024-05-29T13:34:10.365Z</time>
      </trkpt>
      <trkpt lat="43.0501" lon="-0.88235">
        <ele>313.71</ele>
        <time>2024-05-29T13:34:13.058Z</time>
      </trkpt>
      <trkpt lat="43.05005" lon="-0.88244">
        <ele>314.75</ele>
        <time>2024-05-29T13:34:15.752Z</time>
      </trkpt>
      <trkpt lat="43.05002" lon="-0.88248">
        <ele>315.82</ele>
        <time>2024-05-29T13:34:18.447Z</time>
      </trkpt>
      <trkpt lat="43.04956" lon="-0.88355">
        <ele>316.24</ele>
        <time>2024-05-29T13:34:21.159Z</time>
      </trkpt>
      <trkpt lat="43.04938" lon="-0.88379">
        <ele>317.67</ele>
        <time>2024-05-29T13:34:23.876Z</time>
      </trkpt>
      <trkpt lat="43.04912" lon="-0.8841">
        <ele>318.91</ele>
        <time>2024-05-29T13:34:26.599Z</time>
      </trkpt>
      <trkpt lat="43.04884" lon="-0.88432">
        <ele>319.9</ele>
        <time>2024-05-29T13:34:29.328Z</time>
      </trkpt>
      <trkpt lat="43.04808" lon="-0.88476">
        <ele>321.08</ele>
        <time>2024-05-29T13:34:32.072Z</time>
      </trkpt>
      <trkpt lat="43.04782" lon="-0.88494">
        <ele>322.08</ele>
        <time>2024-05-29T13:34:34.822Z</time>
      </trkpt>
      <trkpt lat="43.04774" lon="-0.88497">
        <ele>323.14</ele>
        <time>2024-05-29T13:34:37.573Z</time>
      </trkpt>
      <trkpt lat="43.04748" lon="-0.88496">
        <ele>324.34</ele>
        <time>2024-05-29T13:34:40.329Z</time>
      </trkpt>
      <trkpt lat="43.0471" lon="-0.88487">
        <ele>325.48</ele>
        <time>2024-05-29T13:34:43.092Z</time>
      </trkpt>
      <trkpt lat="43.04544" lon="-0.88405">
        <ele>326.62</ele>
        <time>2024-05-29T13:34:45.888Z</time>
      </trkpt>
      <trkpt lat="43.0449" lon="-0.88369">
        <ele>327.81</ele>
        <time>2024-05-29T13:34:48.695Z</time>
      </trkpt>
      <trkpt lat="43.0445" lon="-0.88321">
        <ele>328.7</ele>
        <time>2024-05-29T13:34:51.512Z</time>
      </trkpt>
      <trkpt lat="43.04431" lon="-0.88304">
        <ele>329.39</ele>
        <time>2024-05-29T13:34:54.334Z</time>
      </trkpt>
      <trkpt lat="43.0441" lon="-0.88292">
        <ele>330.14</ele>
        <time>2024-05-29T13:34:57.160Z</time>
      </trkpt>
      <trkpt lat="43.04353" lon="-0.88226">
        <ele>331.23</ele>
        <time>2024-05-29T13:35:00.000Z</time>
      </trkpt>
      <trkpt lat="43.04323" lon="-0.88206">
        <ele>331.86</ele>
        <time>2024-05-29T13:35:02.846Z</time>
      </trkpt>
      <trkpt lat="43.043" lon="-0.88198">
        <ele>332.14</ele>
        <time>2024-05-29T13:35:05.696Z</time>
      </trkpt>
      <trkpt lat="43.04266" lon="-0.88181">
        <ele>332.52</ele>
        <time>2024-05-29T13:35:08.553Z</time>
      </trkpt>
      <trkpt lat="43.04233" lon="-0.88152">
        <ele>333.06</ele>
        <time>2024-05-29T13:35:11.417Z</time>
      </trkpt>
      <trkpt lat="43.04207" lon="-0.88126">
        <ele>333.36</ele>
        <time>2024-05-29T13:35:14.287Z</time>
      </trkpt>
      <trkpt lat="43.04134" lon="-0.88024">
        <ele>334.07</ele>
        <time>2024-05-29T13:35:17.177Z</time>
      </trkpt>
      <trkpt lat="43.04105" lon="-0.87996">
        <ele>334.25</ele>
        <time>2024-05-29T13:35:20.073Z</time>
      </trkpt>
      <trkpt lat="43.0403" lon="-0.87938">
        <ele>334.84</ele>
        <time>2024-05-29T13:35:22.985Z</time>
      </trkpt>
      <trkpt lat="43.03964" lon="-0.87869">
        <ele>335.03</ele>
        <time>2024-05-29T13:35:25.913Z</time>
      </trkpt>
      <trkpt lat="43.03925" lon="-0.87822">
        <ele>335.48</ele>
        <time>2024-05-29T13:35:28.851Z</time>
      </trkpt>
      <trkpt lat="43.03877" lon="-0.87809">
        <ele>335.24</ele>
        <time>2024-05-29T13:35:31.798Z</time>
      </trkpt>
      <trkpt lat="43.03836" lon="-0.87804">
        <ele>335.23</ele>
        <time>2024-05-29T13:35:34.752Z</time>
      </trkpt>
      <trkpt lat="43.03749" lon="-0.87795">
        <ele>335.43</ele>
        <time>2024-05-29T13:35:37.723Z</time>
      </trkpt>
      <trkpt lat="43.03701" lon="-0.87781">
        <ele>336.18</ele>
        <time>2024-05-29T13:35:40.703Z</time>
      </trkpt>
      <trkpt lat="43.03678" lon="-0.87776">
        <ele>336.69</ele>
        <time>2024-05-29T13:35:43.687Z</time>
      </trkpt>
      <trkpt lat="43.03636" lon="-0.87774">
        <ele>336.79</ele>
        <time>2024-05-29T13:35:46.679Z</time>
      </trkpt>
      <trkpt lat="43.03624" lon="-0.87771">
        <ele>336.93</ele>
        <time>2024-05-29T13:35:49.673Z</time>
      </trkpt>
      <trkpt lat="43.03613" lon="-0.87762">
        <ele>337.34</ele>
        <time>2024-05-29T13:35:52.670Z</time>
      </trkpt>
      <trkpt lat="43.03607" lon="-0.87752">
        <ele>338.08</ele>
        <time>2024-05-29T13:35:55.668Z</time>
      </trkpt>
      <trkpt lat="43.03605" lon="-0.8774">
        <ele>338.78</ele>
        <time>2024-05-29T13:35:58.668Z</time>
      </trkpt>
      <trkpt lat="43.03603" lon="-0.87706">
        <ele>340.19</ele>
        <time>2024-05-29T13:36:01.673Z</time>
      </trkpt>
      <trkpt lat="43.03599" lon="-0.87684">
        <ele>341.61</ele>
        <time>2024-05-29T13:36:04.681Z</time>
      </trkpt>
      <trkpt lat="43.03592" lon="-0.87668">
        <ele>342.61</ele>
        <time>2024-05-29T13:36:07.691Z</time>
      </trkpt>
      <trkpt lat="43.03569" lon="-0.87636">
        <ele>343.18</ele>
        <time>2024-05-29T13:36:10.707Z</time>
      </trkpt>
      <trkpt lat="43.03554" lon="-0.87618">
        <ele>343.83</ele>
        <time>2024-05-29T13:36:13.727Z</time>
      </trkpt>
      <trkpt lat="43.03516" lon="-0.87547">
        <ele>344.69</ele>
        <time>2024-05-29T13:36:16.759Z</time>
      </trkpt>
      <trkpt lat="43.03504" lon="-0.87514">
        <ele>345.89</ele>
        <time>2024-05-29T13:36:19.796Z</time>
      </trkpt>
      <trkpt lat="43.03497" lon="-0.87504">
        <ele>346.91</ele>
        <time>2024-05-29T13:36:22.835Z</time>
      </trkpt>
      <trkpt lat="43.03488" lon="-0.87497">
        <ele>347.88</ele>
        <time>2024-05-29T13:36:25.876Z</time>
      </trkpt>
      <trkpt lat="43.03452" lon="-0.87481">
        <ele>348.83</ele>
        <time>2024-05-29T13:36:28.924Z</time>
      </trkpt>
      <trkpt lat="43.03372" lon="-0.87412">
        <ele>350.37</ele>
        <time>2024-05-29T13:36:31.990Z</time>
      </trkpt>
      <trkpt lat="43.03328" lon="-0.87388">
        <ele>350.79</ele>
        <time>2024-05-29T13:36:35.064Z</time>
      </trkpt>
      <trkpt lat="43.03315" lon="-0.87378">
        <ele>351.88</ele>
        <time>2024-05-29T13:36:38.141Z</time>
      </trkpt>
      <trkpt lat="43.03303" lon="-0.87362">
        <ele>352.85</ele>
        <time>2024-05-29T13:36:41.221Z</time>
      </trkpt>
      <trkpt lat="43.03275" lon="-0.87292">
        <ele>353.96</ele>
        <time>2024-05-29T13:36:44.312Z</time>
      </trkpt>
      <trkpt lat="43.03268" lon="-0.87282">
        <ele>354.99</ele>
        <time>2024-05-29T13:36:47.405Z</time>
      </trkpt>
      <trkpt lat="43.03206" lon="-0.8722">
        <ele>355.87</ele>
        <time>2024-05-29T13:36:50.512Z</time>
      </trkpt>
      <trkpt lat="43.03181" lon="-0.8718">
        <ele>357.18</ele>
        <time>2024-05-29T13:36:53.627Z</time>
      </trkpt>
      <trkpt lat="43.03129" lon="-0.87131">
        <ele>357.92</ele>
        <time>2024-05-29T13:36:56.753Z</time>
      </trkpt>
      <trkpt lat="43.03103" lon="-0.87103">
        <ele>358.92</ele>
        <time>2024-05-29T13:36:59.885Z</time>
      </trkpt>
      <trkpt lat="43.03068" lon="-0.87059">
        <ele>360.11</ele>
        <time>2024-05-29T13:37:03.026Z</time>
      </trkpt>
      <trkpt lat="43.03033" lon="-0.8703">
        <ele>360.93</ele>
        <time>2024-05-29T13:37:06.175Z</time>
      </trkpt>
      <trkpt lat="43.02996" lon="-0.86987">
        <ele>361.81</ele>
        <time>2024-05-29T13:37:09.333Z</time>
      </trkpt>
      <trkpt lat="43.02989" lon="-0.86986">
        <ele>362.51</ele>
        <time>2024-05-29T13:37:12.492Z</time>
      </trkpt>
      <trkpt lat="43.02923" lon="-0.87001">
        <ele>363.17</ele>
        <time>2024-05-29T13:37:15.664Z</time>
      </trkpt>
      <trkpt lat="43.02914" lon="-0.87">
        <ele>364.04</ele>
        <time>2024-05-29T13:37:18.837Z</time>
      </trkpt>
      <trkpt lat="43.02837" lon="-0.86937">
        <ele>365.36</ele>
        <time>2024-05-29T13:37:22.027Z</time>
      </trkpt>
      <trkpt lat="43.02805" lon="-0.86917">
        <ele>365.94</ele>
        <time>2024-05-29T13:37:25.224Z</time>
      </trkpt>
      <trkpt lat="43.02779" lon="-0.86907">
        <ele>366.56</ele>
        <time>2024-05-29T13:37:28.426Z</time>
      </trkpt>
      <trkpt lat="43.02756" lon="-0.86884">
        <ele>367.62</ele>
        <time>2024-05-29T13:37:31.633Z</time>
      </trkpt>
      <trkpt lat="43.02745" lon="-0.86875">
        <ele>368.5</ele>
        <time>2024-05-29T13:37:34.842Z</time>
      </trkpt>
      <trkpt lat="43.0271" lon="-0.86868">
        <ele>369.13</ele>
        <time>2024-05-29T13:37:38.058Z</time>
      </trkpt>
      <trkpt lat="43.02693" lon="-0.86857">
        <ele>369.99</ele>
        <time>2024-05-29T13:37:41.277Z</time>
      </trkpt>
      <trkpt lat="43.02629" lon="-0.86785">
        <ele>371.31</ele>
        <time>2024-05-29T13:37:44.512Z</time>
      </trkpt>
      <trkpt lat="43.02601" lon="-0.86766">
        <ele>371.74</ele>
        <time>2024-05-29T13:37:47.753Z</time>
      </trkpt>
      <trkpt lat="43.02586" lon="-0.86741">
        <ele>372.79</ele>
        <time>2024-05-29T13:37:50.998Z</time>
      </trkpt>
      <trkpt lat="43.02569" lon="-0.86684">
        <ele>373.85</ele>
        <time>2024-05-29T13:37:54.252Z</time>
      </trkpt>
      <trkpt lat="43.02559" lon="-0.86661">
        <ele>374.68</ele>
        <time>2024-05-29T13:37:57.509Z</time>
      </trkpt>
      <trkpt lat="43.02533" lon="-0.8657">
        <ele>375.63</ele>
        <time>2024-05-29T13:38:00.779Z</time>
      </trkpt>
      <trkpt lat="43.02517" lon="-0.86532">
        <ele>376.42</ele>
        <time>2024-05-29T13:38:04.055Z</time>
      </trkpt>
      <trkpt lat="43.02499" lon="-0.86498">
        <ele>377.17</ele>
        <time>2024-05-29T13:38:07.337Z</time>
      </trkpt>
      <trkpt lat="43.02477" lon="-0.86462">
        <ele>377.72</ele>
        <time>2024-05-29T13:38:10.626Z</time>
      </trkpt>
      <trkpt lat="43.02433" lon="-0.8636">
        <ele>378.8</ele>
        <time>2024-05-29T13:38:13.931Z</time>
      </trkpt>
      <trkpt lat="43.02423" lon="-0.86342">
        <ele>379.45</ele>
        <time>2024-05-29T13:38:17.239Z</time>
      </trkpt>
      <trkpt lat="43.0239" lon="-0.86304">
        <ele>379.99</ele>
        <time>2024-05-29T13:38:20.555Z</time>
      </trkpt>
      <trkpt lat="43.02381" lon="-0.86291">
        <ele>380.7</ele>
        <time>2024-05-29T13:38:23.873Z</time>
      </trkpt>
      <trkpt lat="43.02363" lon="-0.8624">
        <ele>381.57</ele>
        <time>2024-05-29T13:38:27.199Z</time>
      </trkpt>
      <trkpt lat="43.02355" lon="-0.86227">
        <ele>382.34</ele>
        <time>2024-05-29T13:38:30.527Z</time>
      </trkpt>
      <trkpt lat="43.02344" lon="-0.86217">
        <ele>383.11</ele>
        <time>2024-05-29T13:38:33.858Z</time>
      </trkpt>
      <trkpt lat="43.02311" lon="-0.86204">
        <ele>383.95</ele>
        <time>2024-05-29T13:38:37.195Z</time>
      </trkpt>
      <trkpt lat="43.02288" lon="-0.86203">
        <ele>384.72</ele>
        <time>2024-05-29T13:38:40.536Z</time>
      </trkpt>
      <trkpt lat="43.02276" lon="-0.86206">
        <ele>385.42</ele>
        <time>2024-05-29T13:38:43.880Z</time>
      </trkpt>
      <trkpt lat="43.02236" lon="-0.86231">
        <ele>386.03</ele>
        <time>2024-05-29T13:38:47.232Z</time>
      </trkpt>
      <trkpt lat="43.02224" lon="-0.86235">
        <ele>386.76</ele>
        <time>2024-05-29T13:38:50.586Z</time>
      </trkpt>
      <trkpt lat="43.02213" lon="-0.86235">
        <ele>387.56</ele>
        <time>2024-05-29T13:38:53.942Z</time>
      </trkpt>
      <trkpt lat="43.02186" lon="-0.8623">
        <ele>388.4</ele>
        <time>2024-05-29T13:38:57.303Z</time>
      </trkpt>
      <trkpt lat="43.02174" lon="-0.86229">
        <ele>389.36</ele>
        <time>2024-05-29T13:39:00.667Z</time>
      </trkpt>
      <trkpt lat="43.02166" lon="-0.86231">
        <ele>390.34</ele>
        <time>2024-05-29T13:39:04.032Z</time>
      </trkpt>
      <trkpt lat="43.02158" lon="-0.86237">
        <ele>391.3</ele>
        <time>2024-05-29T13:39:07.399Z</time>
      </trkpt>
      <trkpt lat="43.02068" lon="-0.86323">
        <ele>392.42</ele>
        <time>2024-05-29T13:39:10.786Z</time>
      </trkpt>
      <trkpt lat="43.0204" lon="-0.86346">
        <ele>393.81</ele>
        <time>2024-05-29T13:39:14.179Z</time>
      </trkpt>
      <trkpt lat="43.02014" lon="-0.86362">
        <ele>394.83</ele>
        <time>2024-05-29T13:39:17.578Z</time>
      </trkpt>
      <trkpt lat="43.01985" lon="-0.86373">
        <ele>395.9</ele>
        <time>2024-05-29T13:39:20.982Z</time>
      </trkpt>
      <trkpt lat="43.01959" lon="-0.86381">
        <ele>397.18</ele>
        <time>2024-05-29T13:39:24.391Z</time>
      </trkpt>
      <trkpt lat="43.01944" lon="-0.86383">
        <ele>398.34</ele>
        <time>2024-05-29T13:39:27.803Z</time>
      </trkpt>
      <trkpt lat="43.01882" lon="-0.86377">
        <ele>399.74</ele>
        <time>2024-05-29T13:39:31.227Z</time>
      </trkpt>
      <trkpt lat="43.0186" lon="-0.86369">
        <ele>400.86</ele>
        <time>2024-05-29T13:39:34.655Z</time>
      </trkpt>
      <trkpt lat="43.01842" lon="-0.86355">
        <ele>402.05</ele>
        <time>2024-05-29T13:39:38.087Z</time>
      </trkpt>
      <trkpt lat="43.01816" lon="-0.86328">
        <ele>403.33</ele>
        <time>2024-05-29T13:39:41.525Z</time>
      </trkpt>
      <trkpt lat="43.01777" lon="-0.86275">
        <ele>404.98</ele>
        <time>2024-05-29T13:39:44.973Z</time>
      </trkpt>
      <trkpt lat="43.01759" lon="-0.86246">
        <ele>406.3</ele>
        <time>2024-05-29T13:39:48.426Z</time>
      </trkpt>
      <trkpt lat="43.01726" lon="-0.86176">
        <ele>407.49</ele>
        <time>2024-05-29T13:39:51.890Z</time>
      </trkpt>
      <trkpt lat="43.0171" lon="-0.86129">
        <ele>408.67</ele>
        <time>2024-05-29T13:39:55.362Z</time>
      </trkpt>
      <trkpt lat="43.01695" lon="-0.86098">
        <ele>409.8</ele>
        <time>2024-05-29T13:39:58.839Z</time>
      </trkpt>
      <trkpt lat="43.01684" lon="-0.86079">
        <ele>410.87</ele>
        <time>2024-05-29T13:40:02.319Z</time>
      </trkpt>
      <trkpt lat="43.01663" lon="-0.86052">
        <ele>412.04</ele>
        <time>2024-05-29T13:40:05.804Z</time>
      </trkpt>
      <trkpt lat="43.01654" lon="-0.86036">
        <ele>413.2</ele>
        <time>2024-05-29T13:40:09.292Z</time>
      </trkpt>
      <trkpt lat="43.01649" lon="-0.86019">
        <ele>414.52</ele>
        <time>2024-05-29T13:40:12.783Z</time>
      </trkpt>
      <trkpt lat="43.01644" lon="-0.85996">
        <ele>415.82</ele>
        <time>2024-05-29T13:40:16.277Z</time>
      </trkpt>
      <trkpt lat="43.01642" lon="-0.85975">
        <ele>417.05</ele>
        <time>2024-05-29T13:40:19.774Z</time>
      </trkpt>
      <trkpt lat="43.01642" lon="-0.85933">
        <ele>418.43</ele>
        <time>2024-05-29T13:40:23.276Z</time>
      </trkpt>
      <trkpt lat="43.01639" lon="-0.85906">
        <ele>419.84</ele>
        <time>2024-05-29T13:40:26.782Z</time>
      </trkpt>
      <trkpt lat="43.01627" lon="-0.85854">
        <ele>421.15</ele>
        <time>2024-05-29T13:40:30.296Z</time>
      </trkpt>
      <trkpt lat="43.0162" lon="-0.85794">
        <ele>422.46</ele>
        <time>2024-05-29T13:40:33.818Z</time>
      </trkpt>
      <trkpt lat="43.01607" lon="-0.8575">
        <ele>423.79</ele>
        <time>2024-05-29T13:40:37.346Z</time>
      </trkpt>
      <trkpt lat="43.01598" lon="-0.85723">
        <ele>424.99</ele>
        <time>2024-05-29T13:40:40.878Z</time>
      </trkpt>
      <trkpt lat="43.01579" lon="-0.85683">
        <ele>426.05</ele>
        <time>2024-05-29T13:40:44.417Z</time>
      </trkpt>
      <trkpt lat="43.01564" lon="-0.85658">
        <ele>427.08</ele>
        <time>2024-05-29T13:40:47.960Z</time>
      </trkpt>
      <trkpt lat="43.0155" lon="-0.85642">
        <ele>428.07</ele>
        <time>2024-05-29T13:40:51.507Z</time>
      </trkpt>
      <trkpt lat="43.01533" lon="-0.85626">
        <ele>428.99</ele>
        <time>2024-05-29T13:40:55.058Z</time>
      </trkpt>
      <trkpt lat="43.01511" lon="-0.85611">
        <ele>429.8</ele>
        <time>2024-05-29T13:40:58.613Z</time>
      </trkpt>
      <trkpt lat="43.01444" lon="-0.85567">
        <ele>430.6</ele>
        <time>2024-05-29T13:41:02.182Z</time>
      </trkpt>
      <trkpt lat="43.01434" lon="-0.85563">
        <ele>431.37</ele>
        <time>2024-05-29T13:41:05.753Z</time>
      </trkpt>
      <trkpt lat="43.01398" lon="-0.85555">
        <ele>431.93</ele>
        <time>2024-05-29T13:41:09.331Z</time>
      </trkpt>
      <trkpt lat="43.01388" lon="-0.85551">
        <ele>432.62</ele>
        <time>2024-05-29T13:41:12.911Z</time>
      </trkpt>
      <trkpt lat="43.01381" lon="-0.85546">
        <ele>433.34</ele>
        <time>2024-05-29T13:41:16.492Z</time>
      </trkpt>
      <trkpt lat="43.01371" lon="-0.85534">
        <ele>434.03</ele>
        <time>2024-05-29T13:41:20.076Z</time>
      </trkpt>
      <trkpt lat="43.01367" lon="-0.85523">
        <ele>434.66</ele>
        <time>2024-05-29T13:41:23.661Z</time>
      </trkpt>
      <trkpt lat="43.01365" lon="-0.85501">
        <ele>435.32</ele>
        <time>2024-05-29T13:41:27.249Z</time>
      </trkpt>
      <trkpt lat="43.01368" lon="-0.85483">
        <ele>435.94</ele>
        <time>2024-05-29T13:41:30.840Z</time>
      </trkpt>
      <trkpt lat="43.01384" lon="-0.8544">
        <ele>436.58</ele>
        <time>2024-05-29T13:41:34.437Z</time>
      </trkpt>
      <trkpt lat="43.01386" lon="-0.85427">
        <ele>437.17</ele>
        <time>2024-05-29T13:41:38.036Z</time>
      </trkpt>
      <trkpt lat="43.01386" lon="-0.85417">
        <ele>437.75</ele>
        <time>2024-05-29T13:41:41.637Z</time>
      </trkpt>
      <trkpt lat="43.01379" lon="-0.85402">
        <ele>438.3</ele>
        <time>2024-05-29T13:41:45.240Z</time>
      </trkpt>
      <trkpt lat="43.01362" lon="-0.85385">
        <ele>438.98</ele>
        <time>2024-05-29T13:41:48.847Z</time>
      </trkpt>
      <trkpt lat="43.0135" lon="-0.85378">
        <ele>439.57</ele>
        <time>2024-05-29T13:41:52.456Z</time>
      </trkpt>
      <trkpt lat="43.01334" lon="-0.85373">
        <ele>440.19</ele>
        <time>2024-05-29T13:41:56.068Z</time>
      </trkpt>
      <trkpt lat="43.01303" lon="-0.8538">
        <ele>440.67</ele>
        <time>2024-05-29T13:41:59.686Z</time>
      </trkpt>
      <trkpt lat="43.01282" lon="-0.8538">
        <ele>441.14</ele>
        <time>2024-05-29T13:42:03.308Z</time>
      </trkpt>
      <trkpt lat="43.01262" lon="-0.85384">
        <ele>441.5</ele>
        <time>2024-05-29T13:42:06.934Z</time>
      </trkpt>
      <trkpt lat="43.01247" lon="-0.85383">
        <ele>441.95</ele>
        <time>2024-05-29T13:42:10.563Z</time>
      </trkpt>
      <trkpt lat="43.01235" lon="-0.8538">
        <ele>442.43</ele>
        <time>2024-05-29T13:42:14.194Z</time>
      </trkpt>
      <trkpt lat="43.01164" lon="-0.85335">
        <ele>443.18</ele>
        <time>2024-05-29T13:42:17.840Z</time>
      </trkpt>
      <trkpt lat="43.0114" lon="-0.85323">
        <ele>443.87</ele>
        <time>2024-05-29T13:42:21.490Z</time>
      </trkpt>
      <trkpt lat="43.01054" lon="-0.8529">
        <ele>444.58</ele>
        <time>2024-05-29T13:42:25.157Z</time>
      </trkpt>
      <trkpt lat="43.00984" lon="-0.85256">
        <ele>445.14</ele>
        <time>2024-05-29T13:42:28.838Z</time>
      </trkpt>
      <trkpt lat="43.00965" lon="-0.85249">
        <ele>445.6</ele>
        <time>2024-05-29T13:42:32.522Z</time>
      </trkpt>
      <trkpt lat="43.00936" lon="-0.85243">
        <ele>445.92</ele>
        <time>2024-05-29T13:42:36.212Z</time>
      </trkpt>
      <trkpt lat="43.00922" lon="-0.85238">
        <ele>446.38</ele>
        <time>2024-05-29T13:42:39.905Z</time>
      </trkpt>
      <trkpt lat="43.00886" lon="-0.85214">
        <ele>447.03</ele>
        <time>2024-05-29T13:42:43.605Z</time>
      </trkpt>
      <trkpt lat="43.00864" lon="-0.85211">
        <ele>447.51</ele>
        <time>2024-05-29T13:42:47.309Z</time>
      </trkpt>
      <trkpt lat="43.00856" lon="-0.85208">
        <ele>448.05</ele>
        <time>2024-05-29T13:42:51.015Z</time>
      </trkpt>
      <trkpt lat="43.0083" lon="-0.85186">
        <ele>448.66</ele>
        <time>2024-05-29T13:42:54.726Z</time>
      </trkpt>
      <trkpt lat="43.0081" lon="-0.85174">
        <ele>449.13</ele>
        <time>2024-05-29T13:42:58.441Z</time>
      </trkpt>
      <trkpt lat="43.00802" lon="-0.85167">
        <ele>449.78</ele>
        <time>2024-05-29T13:43:02.158Z</time>
      </trkpt>
      <trkpt lat="43.00796" lon="-0.85157">
        <ele>450.46</ele>
        <time>2024-05-29T13:43:05.877Z</time>
      </trkpt>
      <trkpt lat="43.00792" lon="-0.85145">
        <ele>451.22</ele>
        <time>2024-05-29T13:43:09.598Z</time>
      </trkpt>
      <trkpt lat="43.00788" lon="-0.85129">
        <ele>452.08</ele>
        <time>2024-05-29T13:43:13.321Z</time>
      </trkpt>
      <trkpt lat="43.00781" lon="-0.8509">
        <ele>453.19</ele>
        <time>2024-05-29T13:43:17.050Z</time>
      </trkpt>
      <trkpt lat="43.00777" lon="-0.85078">
        <ele>454.03</ele>
        <time>2024-05-29T13:43:20.780Z</time>
      </trkpt>
      <trkpt lat="43.0077" lon="-0.85069">
        <ele>454.8</ele>
        <time>2024-05-29T13:43:24.512Z</time>
      </trkpt>
      <trkpt lat="43.00762" lon="-0.85062">
        <ele>455.48</ele>
        <time>2024-05-29T13:43:28.246Z</time>
      </trkpt>
      <trkpt lat="43.00709" lon="-0.85032">
        <ele>455.5</ele>
        <time>2024-05-29T13:43:31.991Z</time>
      </trkpt>
      <trkpt lat="43.0067" lon="-0.84994">
        <ele>456.75</ele>
        <time>2024-05-29T13:43:35.745Z</time>
      </trkpt>
      <trkpt lat="43.0064" lon="-0.84975">
        <ele>457.55</ele>
        <time>2024-05-29T13:43:39.505Z</time>
      </trkpt>
      <trkpt lat="43.00631" lon="-0.84966">
        <ele>458.49</ele>
        <time>2024-05-29T13:43:43.267Z</time>
      </trkpt>
      <trkpt lat="43.00613" lon="-0.84955">
        <ele>459.19</ele>
        <time>2024-05-29T13:43:47.032Z</time>
      </trkpt>
      <trkpt lat="43.00591" lon="-0.84937">
        <ele>459.87</ele>
        <time>2024-05-29T13:43:50.802Z</time>
      </trkpt>
      <trkpt lat="43.00576" lon="-0.84927">
        <ele>460.62</ele>
        <time>2024-05-29T13:43:54.575Z</time>
      </trkpt>
      <trkpt lat="43.00558" lon="-0.84919">
        <ele>461.26</ele>
        <time>2024-05-29T13:43:58.352Z</time>
      </trkpt>
      <trkpt lat="43.00487" lon="-0.84901">
        <ele>461.73</ele>
        <time>2024-05-29T13:44:02.142Z</time>
      </trkpt>
      <trkpt lat="43.00435" lon="-0.84894">
        <ele>462.46</ele>
        <time>2024-05-29T13:44:05.942Z</time>
      </trkpt>
      <trkpt lat="43.00422" lon="-0.8489">
        <ele>463.19</ele>
        <time>2024-05-29T13:44:09.744Z</time>
      </trkpt>
      <trkpt lat="43.00411" lon="-0.84884">
        <ele>463.95</ele>
        <time>2024-05-29T13:44:13.549Z</time>
      </trkpt>
      <trkpt lat="43.00398" lon="-0.84871">
        <ele>464.71</ele>
        <time>2024-05-29T13:44:17.357Z</time>
      </trkpt>
      <trkpt lat="43.0039" lon="-0.8485">
        <ele>465.62</ele>
        <time>2024-05-29T13:44:21.168Z</time>
      </trkpt>
      <trkpt lat="43.00387" lon="-0.84822">
        <ele>466.45</ele>
        <time>2024-05-29T13:44:24.983Z</time>
      </trkpt>
      <trkpt lat="43.00383" lon="-0.84749">
        <ele>467.69</ele>
        <time>2024-05-29T13:44:28.808Z</time>
      </trkpt>
      <trkpt lat="43.00379" lon="-0.84733">
        <ele>468.54</ele>
        <time>2024-05-29T13:44:32.635Z</time>
      </trkpt>
      <trkpt lat="43.00368" lon="-0.84702">
        <ele>469.47</ele>
        <time>2024-05-29T13:44:36.467Z</time>
      </trkpt>
      <trkpt lat="43.00357" lon="-0.84686">
        <ele>470.27</ele>
        <time>2024-05-29T13:44:40.302Z</time>
      </trkpt>
      <trkpt lat="43.00349" lon="-0.84681">
        <ele>470.93</ele>
        <time>2024-05-29T13:44:44.138Z</time>
      </trkpt>
      <trkpt lat="43.00307" lon="-0.84675">
        <ele>471.09</ele>
        <time>2024-05-29T13:44:47.982Z</time>
      </trkpt>
      <trkpt lat="43.00289" lon="-0.84669">
        <ele>471.69</ele>
        <time>2024-05-29T13:44:51.830Z</time>
      </trkpt>
      <trkpt lat="43.00268" lon="-0.84656">
        <ele>472.49</ele>
        <time>2024-05-29T13:44:55.682Z</time>
      </trkpt>
      <trkpt lat="43.00257" lon="-0.84645">
        <ele>473.29</ele>
        <time>2024-05-29T13:44:59.537Z</time>
      </trkpt>
      <trkpt lat="43.0023" lon="-0.84605">
        <ele>474.44</ele>
        <time>2024-05-29T13:45:03.399Z</time>
      </trkpt>
      <trkpt lat="43.00198" lon="-0.84575">
        <ele>475.04</ele>
        <time>2024-05-29T13:45:07.268Z</time>
      </trkpt>
      <trkpt lat="43.00165" lon="-0.84532">
        <ele>475.61</ele>
        <time>2024-05-29T13:45:11.146Z</time>
      </trkpt>
      <trkpt lat="43.00159" lon="-0.84521">
        <ele>476.44</ele>
        <time>2024-05-29T13:45:15.026Z</time>
      </trkpt>
      <trkpt lat="43.00144" lon="-0.84482">
        <ele>477.32</ele>
        <time>2024-05-29T13:45:18.912Z</time>
      </trkpt>
      <trkpt lat="43.0013" lon="-0.84442">
        <ele>478.08</ele>
        <time>2024-05-29T13:45:22.804Z</time>
      </trkpt>
      <trkpt lat="43.00123" lon="-0.84418">
        <ele>478.96</ele>
        <time>2024-05-29T13:45:26.699Z</time>
      </trkpt>
      <trkpt lat="43.00119" lon="-0.84368">
        <ele>480.22</ele>
        <time>2024-05-29T13:45:30.601Z</time>
      </trkpt>
      <trkpt lat="43.00113" lon="-0.84346">
        <ele>481.37</ele>
        <time>2024-05-29T13:45:34.506Z</time>
      </trkpt>
      <trkpt lat="43.00102" lon="-0.84335">
        <ele>482.37</ele>
        <time>2024-05-29T13:45:38.414Z</time>
      </trkpt>
      <trkpt lat="43.00083" lon="-0.84323">
        <ele>483.39</ele>
        <time>2024-05-29T13:45:42.326Z</time>
      </trkpt>
      <trkpt lat="42.99932" lon="-0.84285">
        <ele>484.85</ele>
        <time>2024-05-29T13:45:46.266Z</time>
      </trkpt>
      <trkpt lat="42.9992" lon="-0.84275">
        <ele>485.96</ele>
        <time>2024-05-29T13:45:50.209Z</time>
      </trkpt>
      <trkpt lat="42.99893" lon="-0.84234">
        <ele>487.14</ele>
        <time>2024-05-29T13:45:54.159Z</time>
      </trkpt>
      <trkpt lat="42.99879" lon="-0.84205">
        <ele>488.28</ele>
        <time>2024-05-29T13:45:58.114Z</time>
      </trkpt>
      <trkpt lat="42.99871" lon="-0.84179">
        <ele>489.36</ele>
        <time>2024-05-29T13:46:02.073Z</time>
      </trkpt>
      <trkpt lat="42.9987" lon="-0.84165">
        <ele>490.5</ele>
        <time>2024-05-29T13:46:06.034Z</time>
      </trkpt>
      <trkpt lat="42.9987" lon="-0.84142">
        <ele>491.59</ele>
        <time>2024-05-29T13:46:09.998Z</time>
      </trkpt>
      <trkpt lat="42.99874" lon="-0.84129">
        <ele>492.76</ele>
        <time>2024-05-29T13:46:13.964Z</time>
      </trkpt>
      <trkpt lat="42.99907" lon="-0.84053">
        <ele>494.55</ele>
        <time>2024-05-29T13:46:17.942Z</time>
      </trkpt>
      <trkpt lat="42.99909" lon="-0.84029">
        <ele>495.78</ele>
        <time>2024-05-29T13:46:21.923Z</time>
      </trkpt>
      <trkpt lat="42.99906" lon="-0.84012">
        <ele>496.97</ele>
        <time>2024-05-29T13:46:25.907Z</time>
      </trkpt>
      <trkpt lat="42.99891" lon="-0.83966">
        <ele>498.01</ele>
        <time>2024-05-29T13:46:29.898Z</time>
      </trkpt>
      <trkpt lat="42.99891" lon="-0.83955">
        <ele>499.27</ele>
        <time>2024-05-29T13:46:33.890Z</time>
      </trkpt>
      <trkpt lat="42.99894" lon="-0.83944">
        <ele>500.51</ele>
        <time>2024-05-29T13:46:37.884Z</time>
      </trkpt>
      <trkpt lat="42.99918" lon="-0.83905">
        <ele>502.06</ele>
        <time>2024-05-29T13:46:41.885Z</time>
      </trkpt>
      <trkpt lat="42.99925" lon="-0.83891">
        <ele>503.36</ele>
        <time>2024-05-29T13:46:45.888Z</time>
      </trkpt>
      <trkpt lat="42.99923" lon="-0.83873">
        <ele>504.58</ele>
        <time>2024-05-29T13:46:49.893Z</time>
      </trkpt>
      <trkpt lat="42.99919" lon="-0.83865">
        <ele>505.73</ele>
        <time>2024-05-29T13:46:53.900Z</time>
      </trkpt>
      <trkpt lat="42.99911" lon="-0.83856">
        <ele>506.87</ele>
        <time>2024-05-29T13:46:57.909Z</time>
      </trkpt>
      <trkpt lat="42.99903" lon="-0.8385">
        <ele>507.93</ele>
        <time>2024-05-29T13:47:01.919Z</time>
      </trkpt>
      <trkpt lat="42.99893" lon="-0.83846">
        <ele>508.98</ele>
        <time>2024-05-29T13:47:05.931Z</time>
      </trkpt>
      <trkpt lat="42.99824" lon="-0.83838">
        <ele>510.3</ele>
        <time>2024-05-29T13:47:09.956Z</time>
      </trkpt>
      <trkpt lat="42.99813" lon="-0.8384">
        <ele>511.09</ele>
        <time>2024-05-29T13:47:13.983Z</time>
      </trkpt>
      <trkpt lat="42.99769" lon="-0.83862">
        <ele>511.69</ele>
        <time>2024-05-29T13:47:18.019Z</time>
      </trkpt>
      <trkpt lat="42.99736" lon="-0.83888">
        <ele>511.88</ele>
        <time>2024-05-29T13:47:22.062Z</time>
      </trkpt>
      <trkpt lat="42.99727" lon="-0.83893">
        <ele>512.38</ele>
        <time>2024-05-29T13:47:26.107Z</time>
      </trkpt>
      <trkpt lat="42.99718" lon="-0.83894">
        <ele>512.91</ele>
        <time>2024-05-29T13:47:30.153Z</time>
      </trkpt>
      <trkpt lat="42.99708" lon="-0.83891">
        <ele>513.48</ele>
        <time>2024-05-29T13:47:34.201Z</time>
      </trkpt>
      <trkpt lat="42.99702" lon="-0.83885">
        <ele>514.07</ele>
        <time>2024-05-29T13:47:38.251Z</time>
      </trkpt>
      <trkpt lat="42.99697" lon="-0.83874">
        <ele>514.72</ele>
        <time>2024-05-29T13:47:42.303Z</time>
      </trkpt>
      <trkpt lat="42.99679" lon="-0.83836">
        <ele>515.55</ele>
        <time>2024-05-29T13:47:46.361Z</time>
      </trkpt>
      <trkpt lat="42.99666" lon="-0.83813">
        <ele>516.07</ele>
        <time>2024-05-29T13:47:50.423Z</time>
      </trkpt>
      <trkpt lat="42.99656" lon="-0.83799">
        <ele>516.49</ele>
        <time>2024-05-29T13:47:54.487Z</time>
      </trkpt>
      <trkpt lat="42.99618" lon="-0.83769">
        <ele>516.86</ele>
        <time>2024-05-29T13:47:58.560Z</time>
      </trkpt>
      <trkpt lat="42.99591" lon="-0.83734">
        <ele>517.23</ele>
        <time>2024-05-29T13:48:02.639Z</time>
      </trkpt>
      <trkpt lat="42.99579" lon="-0.83707">
        <ele>517.56</ele>
        <time>2024-05-29T13:48:06.723Z</time>
      </trkpt>
      <trkpt lat="42.99577" lon="-0.83692">
        <ele>518.1</ele>
        <time>2024-05-29T13:48:10.809Z</time>
      </trkpt>
      <trkpt lat="42.99577" lon="-0.83679">
        <ele>518.74</ele>
        <time>2024-05-29T13:48:14.897Z</time>
      </trkpt>
      <trkpt lat="42.9959" lon="-0.8365">
        <ele>519.73</ele>
        <time>2024-05-29T13:48:18.989Z</time>
      </trkpt>
      <trkpt lat="42.99594" lon="-0.83636">
        <ele>520.53</ele>
        <time>2024-05-29T13:48:23.083Z</time>
      </trkpt>
      <trkpt lat="42.99599" lon="-0.83597">
        <ele>521.54</ele>
        <time>2024-05-29T13:48:27.183Z</time>
      </trkpt>
      <trkpt lat="42.99599" lon="-0.83583">
        <ele>522.38</ele>
        <time>2024-05-29T13:48:31.285Z</time>
      </trkpt>
      <trkpt lat="42.99595" lon="-0.83573">
        <ele>523.11</ele>
        <time>2024-05-29T13:48:35.388Z</time>
      </trkpt>
      <trkpt lat="42.99589" lon="-0.83564">
        <ele>523.79</ele>
        <time>2024-05-29T13:48:39.493Z</time>
      </trkpt>
      <trkpt lat="42.99567" lon="-0.8355">
        <ele>524.17</ele>
        <time>2024-05-29T13:48:43.602Z</time>
      </trkpt>
      <trkpt lat="42.99554" lon="-0.83533">
        <ele>524.94</ele>
        <time>2024-05-29T13:48:47.715Z</time>
      </trkpt>
      <trkpt lat="42.99508" lon="-0.83452">
        <ele>526.04</ele>
        <time>2024-05-29T13:48:51.842Z</time>
      </trkpt>
      <trkpt lat="42.99489" lon="-0.83415">
        <ele>527.05</ele>
        <time>2024-05-29T13:48:55.975Z</time>
      </trkpt>
      <trkpt lat="42.99452" lon="-0.83339">
        <ele>528.02</ele>
        <time>2024-05-29T13:49:00.120Z</time>
      </trkpt>
      <trkpt lat="42.99443" lon="-0.83318">
        <ele>528.98</ele>
        <time>2024-05-29T13:49:04.269Z</time>
      </trkpt>
      <trkpt lat="42.9944" lon="-0.83307">
        <ele>530.03</ele>
        <time>2024-05-29T13:49:08.419Z</time>
      </trkpt>
      <trkpt lat="42.9944" lon="-0.83296">
        <ele>531.17</ele>
        <time>2024-05-29T13:49:12.571Z</time>
      </trkpt>
      <trkpt lat="42.99443" lon="-0.83285">
        <ele>532.43</ele>
        <time>2024-05-29T13:49:16.724Z</time>
      </trkpt>
      <trkpt lat="42.9946" lon="-0.83259">
        <ele>534.03</ele>
        <time>2024-05-29T13:49:20.882Z</time>
      </trkpt>
      <trkpt lat="42.99474" lon="-0.83222">
        <ele>535.42</ele>
        <time>2024-05-29T13:49:25.046Z</time>
      </trkpt>
      <trkpt lat="42.99482" lon="-0.83176">
        <ele>536.92</ele>
        <time>2024-05-29T13:49:29.216Z</time>
      </trkpt>
      <trkpt lat="42.99482" lon="-0.83114">
        <ele>538.27</ele>
        <time>2024-05-29T13:49:33.395Z</time>
      </trkpt>
      <trkpt lat="42.99485" lon="-0.8306">
        <ele>539.9</ele>
        <time>2024-05-29T13:49:37.581Z</time>
      </trkpt>
      <trkpt lat="42.99479" lon="-0.83021">
        <ele>541.41</ele>
        <time>2024-05-29T13:49:41.773Z</time>
      </trkpt>
      <trkpt lat="42.99474" lon="-0.83">
        <ele>542.93</ele>
        <time>2024-05-29T13:49:45.968Z</time>
      </trkpt>
      <trkpt lat="42.99457" lon="-0.82952">
        <ele>544.46</ele>
        <time>2024-05-29T13:49:50.170Z</time>
      </trkpt>
      <trkpt lat="42.99412" lon="-0.82877">
        <ele>546.31</ele>
        <time>2024-05-29T13:49:54.385Z</time>
      </trkpt>
      <trkpt lat="42.99363" lon="-0.82813">
        <ele>548.05</ele>
        <time>2024-05-29T13:49:58.613Z</time>
      </trkpt>
      <trkpt lat="42.99347" lon="-0.82786">
        <ele>549.54</ele>
        <time>2024-05-29T13:50:02.845Z</time>
      </trkpt>
      <trkpt lat="42.9934" lon="-0.8277">
        <ele>551.15</ele>
        <time>2024-05-29T13:50:07.080Z</time>
      </trkpt>
      <trkpt lat="42.99337" lon="-0.82756">
        <ele>552.81</ele>
        <time>2024-05-29T13:50:11.317Z</time>
      </trkpt>
      <trkpt lat="42.99337" lon="-0.82741">
        <ele>554.53</ele>
        <time>2024-05-29T13:50:15.556Z</time>
      </trkpt>
      <trkpt lat="42.99339" lon="-0.82727">
        <ele>556.3</ele>
        <time>2024-05-29T13:50:19.797Z</time>
      </trkpt>
      <trkpt lat="42.99346" lon="-0.82711">
        <ele>558.11</ele>
        <time>2024-05-29T13:50:24.040Z</time>
      </trkpt>
      <trkpt lat="42.99367" lon="-0.82673">
        <ele>560.12</ele>
        <time>2024-05-29T13:50:28.290Z</time>
      </trkpt>
      <trkpt lat="42.99376" lon="-0.82659">
        <ele>561.91</ele>
        <time>2024-05-29T13:50:32.543Z</time>
      </trkpt>
      <trkpt lat="42.99386" lon="-0.82652">
        <ele>563.81</ele>
        <time>2024-05-29T13:50:36.798Z</time>
      </trkpt>
      <trkpt lat="42.99397" lon="-0.82648">
        <ele>565.77</ele>
        <time>2024-05-29T13:50:41.055Z</time>
      </trkpt>
      <trkpt lat="42.99409" lon="-0.82649">
        <ele>567.78</ele>
        <time>2024-05-29T13:50:45.314Z</time>
      </trkpt>
      <trkpt lat="42.99424" lon="-0.82653">
        <ele>569.85</ele>
        <time>2024-05-29T13:50:49.576Z</time>
      </trkpt>
      <trkpt lat="42.99447" lon="-0.82655">
        <ele>571.99</ele>
        <time>2024-05-29T13:50:53.842Z</time>
      </trkpt>
      <trkpt lat="42.99463" lon="-0.82653">
        <ele>573.91</ele>
        <time>2024-05-29T13:50:58.111Z</time>
      </trkpt>
      <trkpt lat="42.99502" lon="-0.8263">
        <ele>575.31</ele>
        <time>2024-05-29T13:51:02.388Z</time>
      </trkpt>
      <trkpt lat="42.99516" lon="-0.82617">
        <ele>576.83</ele>
        <time>2024-05-29T13:51:06.668Z</time>
      </trkpt>
      <trkpt lat="42.99551" lon="-0.82572">
        <ele>578.58</ele>
        <time>2024-05-29T13:51:10.957Z</time>
      </trkpt>
      <trkpt lat="42.99551" lon="-0.82572">
        <ele>578.59</ele>
        <time>2024-05-29T13:51:15.246Z</time>
      </trkpt>
      <trkpt lat="42.99551" lon="-0.82572">
        <ele>578.6</ele>
        <time>2024-05-29T13:51:19.535Z</time>
      </trkpt>
      <trkpt lat="42.99551" lon="-0.82572">
        <ele>578.61</ele>
        <time>2024-05-29T13:51:23.824Z</time>
      </trkpt>
      <trkpt lat="42.99563" lon="-0.8255">
        <ele>580.28</ele>
        <time>2024-05-29T13:51:28.117Z</time>
      </trkpt>
      <trkpt lat="42.99583" lon="-0.82507">
        <ele>581.95</ele>
        <time>2024-05-29T13:51:32.417Z</time>
      </trkpt>
      <trkpt lat="42.99593" lon="-0.82497">
        <ele>583.56</ele>
        <time>2024-05-29T13:51:36.719Z</time>
      </trkpt>
      <trkpt lat="42.99632" lon="-0.82468">
        <ele>585.31</ele>
        <time>2024-05-29T13:51:41.029Z</time>
      </trkpt>
      <trkpt lat="42.9969" lon="-0.82429">
        <ele>587.11</ele>
        <time>2024-05-29T13:51:45.351Z</time>
      </trkpt>
      <trkpt lat="42.99709" lon="-0.82403">
        <ele>588.54</ele>
        <time>2024-05-29T13:51:49.678Z</time>
      </trkpt>
      <trkpt lat="42.99721" lon="-0.82376">
        <ele>589.96</ele>
        <time>2024-05-29T13:51:54.010Z</time>
      </trkpt>
      <trkpt lat="42.99724" lon="-0.82366">
        <ele>591.34</ele>
        <time>2024-05-29T13:51:58.343Z</time>
      </trkpt>
      <trkpt lat="42.99723" lon="-0.82357">
        <ele>592.68</ele>
        <time>2024-05-29T13:52:02.677Z</time>
      </trkpt>
      <trkpt lat="42.99719" lon="-0.8235">
        <ele>593.96</ele>
        <time>2024-05-29T13:52:07.013Z</time>
      </trkpt>
      <trkpt lat="42.99695" lon="-0.82327">
        <ele>595.25</ele>
        <time>2024-05-29T13:52:11.354Z</time>
      </trkpt>
      <trkpt lat="42.99678" lon="-0.8232">
        <ele>596.35</ele>
        <time>2024-05-29T13:52:15.698Z</time>
      </trkpt>
      <trkpt lat="42.99673" lon="-0.82316">
        <ele>597.5</ele>
        <time>2024-05-29T13:52:20.043Z</time>
      </trkpt>
      <trkpt lat="42.99668" lon="-0.82299">
        <ele>598.69</ele>
        <time>2024-05-29T13:52:24.391Z</time>
      </trkpt>
      <trkpt lat="42.99668" lon="-0.82258">
        <ele>599.93</ele>
        <time>2024-05-29T13:52:28.745Z</time>
      </trkpt>
      <trkpt lat="42.99667" lon="-0.8224">
        <ele>601.07</ele>
        <time>2024-05-29T13:52:33.101Z</time>
      </trkpt>
      <trkpt lat="42.99664" lon="-0.82228">
        <ele>602.15</ele>
        <time>2024-05-29T13:52:37.459Z</time>
      </trkpt>
      <trkpt lat="42.99656" lon="-0.82213">
        <ele>603.22</ele>
        <time>2024-05-29T13:52:41.819Z</time>
      </trkpt>
      <trkpt lat="42.99652" lon="-0.82208">
        <ele>604.28</ele>
        <time>2024-05-29T13:52:46.180Z</time>
      </trkpt>
      <trkpt lat="42.99613" lon="-0.82178">
        <ele>605.23</ele>
        <time>2024-05-29T13:52:50.550Z</time>
      </trkpt>
      <trkpt lat="42.99603" lon="-0.82161">
        <ele>606.34</ele>
        <time>2024-05-29T13:52:54.923Z</time>
      </trkpt>
      <trkpt lat="42.99596" lon="-0.82137">
        <ele>607.53</ele>
        <time>2024-05-29T13:52:59.299Z</time>
      </trkpt>
      <trkpt lat="42.99593" lon="-0.82054">
        <ele>608.5</ele>
        <time>2024-05-29T13:53:03.687Z</time>
      </trkpt>
      <trkpt lat="42.99596" lon="-0.82029">
        <ele>609.58</ele>
        <time>2024-05-29T13:53:08.078Z</time>
      </trkpt>
      <trkpt lat="42.99602" lon="-0.82012">
        <ele>610.79</ele>
        <time>2024-05-29T13:53:12.472Z</time>
      </trkpt>
      <trkpt lat="42.99632" lon="-0.81966">
        <ele>612.36</ele>
        <time>2024-05-29T13:53:16.874Z</time>
      </trkpt>
      <trkpt lat="42.99636" lon="-0.81955">
        <ele>613.51</ele>
        <time>2024-05-29T13:53:21.278Z</time>
      </trkpt>
      <trkpt lat="42.99638" lon="-0.81931">
        <ele>614.58</ele>
        <time>2024-05-29T13:53:25.685Z</time>
      </trkpt>
      <trkpt lat="42.99636" lon="-0.8189">
        <ele>615.67</ele>
        <time>2024-05-29T13:53:30.098Z</time>
      </trkpt>
      <trkpt lat="42.99629" lon="-0.81805">
        <ele>617.03</ele>
        <time>2024-05-29T13:53:34.522Z</time>
      </trkpt>
      <trkpt lat="42.99621" lon="-0.81742">
        <ele>618.44</ele>
        <time>2024-05-29T13:53:38.955Z</time>
      </trkpt>
      <trkpt lat="42.99613" lon="-0.81716">
        <ele>619.59</ele>
        <time>2024-05-29T13:53:43.392Z</time>
      </trkpt>
      <trkpt lat="42.99605" lon="-0.81698">
        <ele>620.78</ele>
        <time>2024-05-29T13:53:47.832Z</time>
      </trkpt>
      <trkpt lat="42.99589" lon="-0.81677">
        <ele>621.9</ele>
        <time>2024-05-29T13:53:52.276Z</time>
      </trkpt>
      <trkpt lat="42.99578" lon="-0.81668">
        <ele>623.1</ele>
        <time>2024-05-29T13:53:56.722Z</time>
      </trkpt>
      <trkpt lat="42.99568" lon="-0.81655">
        <ele>624.32</ele>
        <time>2024-05-29T13:54:01.171Z</time>
      </trkpt>
      <trkpt lat="42.99558" lon="-0.81632">
        <ele>625.65</ele>
        <time>2024-05-29T13:54:05.623Z</time>
      </trkpt>
      <trkpt lat="42.99556" lon="-0.81622">
        <ele>626.92</ele>
        <time>2024-05-29T13:54:10.077Z</time>
      </trkpt>
      <trkpt lat="42.99556" lon="-0.81552">
        <ele>628.33</ele>
        <time>2024-05-29T13:54:14.540Z</time>
      </trkpt>
      <trkpt lat="42.99549" lon="-0.81504">
        <ele>629.52</ele>
        <time>2024-05-29T13:54:19.010Z</time>
      </trkpt>
      <trkpt lat="42.9952" lon="-0.81331">
        <ele>630.99</ele>
        <time>2024-05-29T13:54:23.504Z</time>
      </trkpt>
      <trkpt lat="42.9952" lon="-0.81308">
        <ele>632.27</ele>
        <time>2024-05-29T13:54:28.001Z</time>
      </trkpt>
      <trkpt lat="42.99531" lon="-0.81251">
        <ele>633.42</ele>
        <time>2024-05-29T13:54:32.506Z</time>
      </trkpt>
      <trkpt lat="42.99538" lon="-0.81236">
        <ele>634.66</ele>
        <time>2024-05-29T13:54:37.014Z</time>
      </trkpt>
      <trkpt lat="42.99545" lon="-0.81225">
        <ele>635.96</ele>
        <time>2024-05-29T13:54:41.524Z</time>
      </trkpt>
      <trkpt lat="42.99605" lon="-0.81163">
        <ele>637.57</ele>
        <time>2024-05-29T13:54:46.048Z</time>
      </trkpt>
      <trkpt lat="42.99617" lon="-0.81139">
        <ele>638.96</ele>
        <time>2024-05-29T13:54:50.576Z</time>
      </trkpt>
      <trkpt lat="42.99621" lon="-0.81126">
        <ele>640.34</ele>
        <time>2024-05-29T13:54:55.106Z</time>
      </trkpt>
      <trkpt lat="42.99623" lon="-0.81112">
        <ele>641.73</ele>
        <time>2024-05-29T13:54:59.638Z</time>
      </trkpt>
      <trkpt lat="42.99629" lon="-0.80963">
        <ele>643.27</ele>
        <time>2024-05-29T13:55:04.190Z</time>
      </trkpt>
      <trkpt lat="42.99632" lon="-0.8092">
        <ele>644.73</ele>
        <time>2024-05-29T13:55:08.748Z</time>
      </trkpt>
      <trkpt lat="42.99638" lon="-0.80869">
        <ele>646.28</ele>
        <time>2024-05-29T13:55:13.313Z</time>
      </trkpt>
      <trkpt lat="42.99643" lon="-0.80844">
        <ele>647.72</ele>
        <time>2024-05-29T13:55:17.882Z</time>
      </trkpt>
      <trkpt lat="42.9965" lon="-0.80818">
        <ele>649.18</ele>
        <time>2024-05-29T13:55:22.454Z</time>
      </trkpt>
      <trkpt lat="42.99655" lon="-0.80805">
        <ele>650.75</ele>
        <time>2024-05-29T13:55:27.028Z</time>
      </trkpt>
      <trkpt lat="42.9966" lon="-0.80797">
        <ele>652.36</ele>
        <time>2024-05-29T13:55:31.604Z</time>
      </trkpt>
      <trkpt lat="42.99681" lon="-0.80775">
        <ele>654.3</ele>
        <time>2024-05-29T13:55:36.185Z</time>
      </trkpt>
      <trkpt lat="42.99685" lon="-0.80767">
        <ele>656</ele>
        <time>2024-05-29T13:55:40.767Z</time>
      </trkpt>
      <trkpt lat="42.99687" lon="-0.80757">
        <ele>657.71</ele>
        <time>2024-05-29T13:55:45.350Z</time>
      </trkpt>
      <trkpt lat="42.99685" lon="-0.80746">
        <ele>659.42</ele>
        <time>2024-05-29T13:55:49.935Z</time>
      </trkpt>
      <trkpt lat="42.99681" lon="-0.80736">
        <ele>661.09</ele>
        <time>2024-05-29T13:55:54.522Z</time>
      </trkpt>
      <trkpt lat="42.99675" lon="-0.80729">
        <ele>662.75</ele>
        <time>2024-05-29T13:55:59.110Z</time>
      </trkpt>
      <trkpt lat="42.99659" lon="-0.80719">
        <ele>664.25</ele>
        <time>2024-05-29T13:56:03.701Z</time>
      </trkpt>
      <trkpt lat="42.99652" lon="-0.80712">
        <ele>666.01</ele>
        <time>2024-05-29T13:56:08.294Z</time>
      </trkpt>
      <trkpt lat="42.99649" lon="-0.807">
        <ele>667.97</ele>
        <time>2024-05-29T13:56:12.889Z</time>
      </trkpt>
      <trkpt lat="42.99631" lon="-0.80612">
        <ele>670.54</ele>
        <time>2024-05-29T13:56:17.496Z</time>
      </trkpt>
      <trkpt lat="42.99606" lon="-0.80551">
        <ele>672.44</ele>
        <time>2024-05-29T13:56:22.113Z</time>
      </trkpt>
      <trkpt lat="42.99602" lon="-0.80538">
        <ele>674.52</ele>
        <time>2024-05-29T13:56:26.732Z</time>
      </trkpt>
      <trkpt lat="42.99593" lon="-0.80489">
        <ele>676.95</ele>
        <time>2024-05-29T13:56:31.358Z</time>
      </trkpt>
      <trkpt lat="42.99591" lon="-0.80469">
        <ele>679.22</ele>
        <time>2024-05-29T13:56:35.986Z</time>
      </trkpt>
      <trkpt lat="42.99591" lon="-0.80448">
        <ele>681.54</ele>
        <time>2024-05-29T13:56:40.617Z</time>
      </trkpt>
      <trkpt lat="42.99595" lon="-0.80437">
        <ele>683.97</ele>
        <time>2024-05-29T13:56:45.250Z</time>
      </trkpt>
      <trkpt lat="42.99602" lon="-0.80425">
        <ele>686.47</ele>
        <time>2024-05-29T13:56:49.885Z</time>
      </trkpt>
      <trkpt lat="42.99635" lon="-0.80388">
        <ele>689.18</ele>
        <time>2024-05-29T13:56:54.528Z</time>
      </trkpt>
      <trkpt lat="42.99642" lon="-0.80378">
        <ele>691.65</ele>
        <time>2024-05-29T13:56:59.173Z</time>
      </trkpt>
      <trkpt lat="42.99649" lon="-0.80357">
        <ele>694.25</ele>
        <time>2024-05-29T13:57:03.821Z</time>
      </trkpt>
      <trkpt lat="42.99649" lon="-0.80345">
        <ele>696.81</ele>
        <time>2024-05-29T13:57:08.471Z</time>
      </trkpt>
      <trkpt lat="42.99637" lon="-0.80299">
        <ele>699.49</ele>
        <time>2024-05-29T13:57:13.127Z</time>
      </trkpt>
      <trkpt lat="42.99619" lon="-0.80151">
        <ele>702.49</ele>
        <time>2024-05-29T13:57:17.804Z</time>
      </trkpt>
      <trkpt lat="42.9961" lon="-0.80103">
        <ele>704.99</ele>
        <time>2024-05-29T13:57:22.487Z</time>
      </trkpt>
      <trkpt lat="42.9961" lon="-0.80088">
        <ele>707.58</ele>
        <time>2024-05-29T13:57:27.172Z</time>
      </trkpt>
      <trkpt lat="42.99613" lon="-0.8006">
        <ele>710.24</ele>
        <time>2024-05-29T13:57:31.861Z</time>
      </trkpt>
      <trkpt lat="42.99613" lon="-0.80049">
        <ele>712.81</ele>
        <time>2024-05-29T13:57:36.552Z</time>
      </trkpt>
      <trkpt lat="42.99608" lon="-0.80018">
        <ele>715.36</ele>
        <time>2024-05-29T13:57:41.247Z</time>
      </trkpt>
      <trkpt lat="42.99596" lon="-0.79971">
        <ele>717.9</ele>
        <time>2024-05-29T13:57:45.949Z</time>
      </trkpt>
      <trkpt lat="42.99594" lon="-0.79953">
        <ele>720.48</ele>
        <time>2024-05-29T13:57:50.653Z</time>
      </trkpt>
      <trkpt lat="42.99595" lon="-0.79939">
        <ele>723.1</ele>
        <time>2024-05-29T13:57:55.359Z</time>
      </trkpt>
      <trkpt lat="42.99598" lon="-0.79929">
        <ele>725.78</ele>
        <time>2024-05-29T13:58:00.067Z</time>
      </trkpt>
      <trkpt lat="42.99603" lon="-0.7992">
        <ele>728.52</ele>
        <time>2024-05-29T13:58:04.776Z</time>
      </trkpt>
      <trkpt lat="42.99611" lon="-0.79913">
        <ele>731.33</ele>
        <time>2024-05-29T13:58:09.487Z</time>
      </trkpt>
      <trkpt lat="42.99635" lon="-0.79904">
        <ele>734.57</ele>
        <time>2024-05-29T13:58:14.203Z</time>
      </trkpt>
      <trkpt lat="42.99643" lon="-0.79899">
        <ele>737.5</ele>
        <time>2024-05-29T13:58:18.920Z</time>
      </trkpt>
      <trkpt lat="42.9965" lon="-0.79888">
        <ele>740.46</ele>
        <time>2024-05-29T13:58:23.639Z</time>
      </trkpt>
      <trkpt lat="42.99653" lon="-0.79874">
        <ele>743.36</ele>
        <time>2024-05-29T13:58:28.360Z</time>
      </trkpt>
      <trkpt lat="42.99649" lon="-0.79861">
        <ele>746.08</ele>
        <time>2024-05-29T13:58:33.083Z</time>
      </trkpt>
      <trkpt lat="42.99641" lon="-0.79851">
        <ele>748.73</ele>
        <time>2024-05-29T13:58:37.808Z</time>
      </trkpt>
      <trkpt lat="42.99625" lon="-0.79846">
        <ele>751.35</ele>
        <time>2024-05-29T13:58:42.536Z</time>
      </trkpt>
      <trkpt lat="42.99608" lon="-0.79844">
        <ele>754.07</ele>
        <time>2024-05-29T13:58:47.268Z</time>
      </trkpt>
      <trkpt lat="42.99592" lon="-0.79835">
        <ele>757.01</ele>
        <time>2024-05-29T13:58:52.003Z</time>
      </trkpt>
      <trkpt lat="42.99575" lon="-0.7982">
        <ele>760.14</ele>
        <time>2024-05-29T13:58:56.742Z</time>
      </trkpt>
      <trkpt lat="42.9954" lon="-0.79783">
        <ele>763.46</ele>
        <time>2024-05-29T13:59:01.489Z</time>
      </trkpt>
      <trkpt lat="42.99492" lon="-0.79702">
        <ele>767.04</ele>
        <time>2024-05-29T13:59:06.250Z</time>
      </trkpt>
      <trkpt lat="42.99468" lon="-0.79654">
        <ele>770.46</ele>
        <time>2024-05-29T13:59:11.019Z</time>
      </trkpt>
      <trkpt lat="42.9944" lon="-0.79618">
        <ele>773.71</ele>
        <time>2024-05-29T13:59:15.795Z</time>
      </trkpt>
      <trkpt lat="42.99418" lon="-0.79586">
        <ele>777.04</ele>
        <time>2024-05-29T13:59:20.577Z</time>
      </trkpt>
      <trkpt lat="42.99408" lon="-0.7957">
        <ele>780.4</ele>
        <time>2024-05-29T13:59:25.362Z</time>
      </trkpt>
      <trkpt lat="42.994" lon="-0.79546">
        <ele>784</ele>
        <time>2024-05-29T13:59:30.151Z</time>
      </trkpt>
      <trkpt lat="42.99396" lon="-0.7954">
        <ele>787.37</ele>
        <time>2024-05-29T13:59:34.941Z</time>
      </trkpt>
      <trkpt lat="42.9937" lon="-0.79528">
        <ele>790.62</ele>
        <time>2024-05-29T13:59:39.736Z</time>
      </trkpt>
      <trkpt lat="42.99359" lon="-0.79519">
        <ele>793.94</ele>
        <time>2024-05-29T13:59:44.533Z</time>
      </trkpt>
      <trkpt lat="42.99337" lon="-0.79489">
        <ele>797.44</ele>
        <time>2024-05-29T13:59:49.336Z</time>
      </trkpt>
      <trkpt lat="42.9933" lon="-0.79476">
        <ele>800.84</ele>
        <time>2024-05-29T13:59:54.141Z</time>
      </trkpt>
      <trkpt lat="42.99312" lon="-0.79429">
        <ele>804.38</ele>
        <time>2024-05-29T13:59:58.953Z</time>
      </trkpt>
      <trkpt lat="42.99308" lon="-0.79411">
        <ele>807.94</ele>
        <time>2024-05-29T14:00:03.768Z</time>
      </trkpt>
      <trkpt lat="42.99305" lon="-0.7939">
        <ele>811.61</ele>
        <time>2024-05-29T14:00:08.586Z</time>
      </trkpt>
      <trkpt lat="42.99306" lon="-0.7936">
        <ele>815.44</ele>
        <time>2024-05-29T14:00:13.408Z</time>
      </trkpt>
      <trkpt lat="42.99303" lon="-0.79343">
        <ele>818.96</ele>
        <time>2024-05-29T14:00:18.232Z</time>
      </trkpt>
      <trkpt lat="42.993" lon="-0.79309">
        <ele>822.56</ele>
        <time>2024-05-29T14:00:23.061Z</time>
      </trkpt>
      <trkpt lat="42.99285" lon="-0.79254">
        <ele>826.07</ele>
        <time>2024-05-29T14:00:27.898Z</time>
      </trkpt>
      <trkpt lat="42.99271" lon="-0.79187">
        <ele>829.81</ele>
        <time>2024-05-29T14:00:32.745Z</time>
      </trkpt>
      <trkpt lat="42.99266" lon="-0.79158">
        <ele>833.22</ele>
        <time>2024-05-29T14:00:37.596Z</time>
      </trkpt>
      <trkpt lat="42.99265" lon="-0.79132">
        <ele>836.5</ele>
        <time>2024-05-29T14:00:42.450Z</time>
      </trkpt>
      <trkpt lat="42.9927" lon="-0.79055">
        <ele>840.02</ele>
        <time>2024-05-29T14:00:47.315Z</time>
      </trkpt>
      <trkpt lat="42.9927" lon="-0.79038">
        <ele>843.06</ele>
        <time>2024-05-29T14:00:52.182Z</time>
      </trkpt>
      <trkpt lat="42.99267" lon="-0.79005">
        <ele>846.03</ele>
        <time>2024-05-29T14:00:57.054Z</time>
      </trkpt>
      <trkpt lat="42.99268" lon="-0.78987">
        <ele>848.89</ele>
        <time>2024-05-29T14:01:01.928Z</time>
      </trkpt>
      <trkpt lat="42.99273" lon="-0.78969">
        <ele>851.58</ele>
        <time>2024-05-29T14:01:06.805Z</time>
      </trkpt>
      <trkpt lat="42.99281" lon="-0.7895">
        <ele>854.16</ele>
        <time>2024-05-29T14:01:11.685Z</time>
      </trkpt>
      <trkpt lat="42.99292" lon="-0.7893">
        <ele>856.59</ele>
        <time>2024-05-29T14:01:16.568Z</time>
      </trkpt>
      <trkpt lat="42.9931" lon="-0.78908">
        <ele>858.89</ele>
        <time>2024-05-29T14:01:21.456Z</time>
      </trkpt>
      <trkpt lat="42.99315" lon="-0.78898">
        <ele>861.04</ele>
        <time>2024-05-29T14:01:26.345Z</time>
      </trkpt>
      <trkpt lat="42.99322" lon="-0.78864">
        <ele>863.06</ele>
        <time>2024-05-29T14:01:31.239Z</time>
      </trkpt>
      <trkpt lat="42.99328" lon="-0.78845">
        <ele>865</ele>
        <time>2024-05-29T14:01:36.136Z</time>
      </trkpt>
      <trkpt lat="42.9933" lon="-0.78831">
        <ele>866.83</ele>
        <time>2024-05-29T14:01:41.035Z</time>
      </trkpt>
      <trkpt lat="42.9933" lon="-0.78818">
        <ele>868.6</ele>
        <time>2024-05-29T14:01:45.936Z</time>
      </trkpt>
      <trkpt lat="42.99328" lon="-0.788">
        <ele>870.31</ele>
        <time>2024-05-29T14:01:50.839Z</time>
      </trkpt>
      <trkpt lat="42.99321" lon="-0.78771">
        <ele>871.92</ele>
        <time>2024-05-29T14:01:55.746Z</time>
      </trkpt>
      <trkpt lat="42.99322" lon="-0.78747">
        <ele>873.49</ele>
        <time>2024-05-29T14:02:00.657Z</time>
      </trkpt>
      <trkpt lat="42.99325" lon="-0.78737">
        <ele>874.99</ele>
        <time>2024-05-29T14:02:05.569Z</time>
      </trkpt>
      <trkpt lat="42.99341" lon="-0.78708">
        <ele>876.45</ele>
        <time>2024-05-29T14:02:10.486Z</time>
      </trkpt>
      <trkpt lat="42.99342" lon="-0.787">
        <ele>877.91</ele>
        <time>2024-05-29T14:02:15.404Z</time>
      </trkpt>
      <trkpt lat="42.9934" lon="-0.78693">
        <ele>879.38</ele>
        <time>2024-05-29T14:02:20.323Z</time>
      </trkpt>
      <trkpt lat="42.99333" lon="-0.78685">
        <ele>880.86</ele>
        <time>2024-05-29T14:02:25.244Z</time>
      </trkpt>
      <trkpt lat="42.99326" lon="-0.78683">
        <ele>882.31</ele>
        <time>2024-05-29T14:02:30.166Z</time>
      </trkpt>
      <trkpt lat="42.99295" lon="-0.78697">
        <ele>883.85</ele>
        <time>2024-05-29T14:02:35.094Z</time>
      </trkpt>
      <trkpt lat="42.9927" lon="-0.787">
        <ele>885.5</ele>
        <time>2024-05-29T14:02:40.027Z</time>
      </trkpt>
      <trkpt lat="42.99242" lon="-0.78693">
        <ele>887.09</ele>
        <time>2024-05-29T14:02:44.965Z</time>
      </trkpt>
      <trkpt lat="42.99221" lon="-0.78681">
        <ele>888.64</ele>
        <time>2024-05-29T14:02:49.907Z</time>
      </trkpt>
      <trkpt lat="42.99197" lon="-0.78661">
        <ele>890.31</ele>
        <time>2024-05-29T14:02:54.855Z</time>
      </trkpt>
      <trkpt lat="42.99184" lon="-0.78642">
        <ele>892.15</ele>
        <time>2024-05-29T14:02:59.806Z</time>
      </trkpt>
      <trkpt lat="42.9918" lon="-0.78628">
        <ele>893.99</ele>
        <time>2024-05-29T14:03:04.759Z</time>
      </trkpt>
      <trkpt lat="42.99181" lon="-0.78616">
        <ele>895.85</ele>
        <time>2024-05-29T14:03:09.714Z</time>
      </trkpt>
      <trkpt lat="42.99184" lon="-0.7861">
        <ele>897.73</ele>
        <time>2024-05-29T14:03:14.670Z</time>
      </trkpt>
      <trkpt lat="42.99194" lon="-0.78598">
        <ele>899.73</ele>
        <time>2024-05-29T14:03:19.628Z</time>
      </trkpt>
      <trkpt lat="42.99218" lon="-0.7859">
        <ele>901.75</ele>
        <time>2024-05-29T14:03:24.591Z</time>
      </trkpt>
      <trkpt lat="42.99237" lon="-0.78592">
        <ele>903.69</ele>
        <time>2024-05-29T14:03:29.558Z</time>
      </trkpt>
      <trkpt lat="42.99289" lon="-0.78606">
        <ele>905.78</ele>
        <time>2024-05-29T14:03:34.534Z</time>
      </trkpt>
      <trkpt lat="42.993" lon="-0.78607">
        <ele>907.84</ele>
        <time>2024-05-29T14:03:39.512Z</time>
      </trkpt>
      <trkpt lat="42.99314" lon="-0.78606">
        <ele>909.95</ele>
        <time>2024-05-29T14:03:44.493Z</time>
      </trkpt>
      <trkpt lat="42.9936" lon="-0.78577">
        <ele>912.65</ele>
        <time>2024-05-29T14:03:49.483Z</time>
      </trkpt>
      <trkpt lat="42.99372" lon="-0.78567">
        <ele>914.94</ele>
        <time>2024-05-29T14:03:54.476Z</time>
      </trkpt>
      <trkpt lat="42.99396" lon="-0.78543">
        <ele>917.35</ele>
        <time>2024-05-29T14:03:59.475Z</time>
      </trkpt>
      <trkpt lat="42.99468" lon="-0.78459">
        <ele>919.91</ele>
        <time>2024-05-29T14:04:04.491Z</time>
      </trkpt>
      <trkpt lat="42.99481" lon="-0.78441">
        <ele>921.99</ele>
        <time>2024-05-29T14:04:09.511Z</time>
      </trkpt>
      <trkpt lat="42.99494" lon="-0.78414">
        <ele>924.02</ele>
        <time>2024-05-29T14:04:14.535Z</time>
      </trkpt>
      <trkpt lat="42.99517" lon="-0.78385">
        <ele>925.67</ele>
        <time>2024-05-29T14:04:19.565Z</time>
      </trkpt>
      <trkpt lat="42.9952" lon="-0.78379">
        <ele>927.5</ele>
        <time>2024-05-29T14:04:24.596Z</time>
      </trkpt>
      <trkpt lat="42.99521" lon="-0.78365">
        <ele>929.34</ele>
        <time>2024-05-29T14:04:29.629Z</time>
      </trkpt>
      <trkpt lat="42.99514" lon="-0.78335">
        <ele>931.38</ele>
        <time>2024-05-29T14:04:34.666Z</time>
      </trkpt>
      <trkpt lat="42.99512" lon="-0.78319">
        <ele>933.22</ele>
        <time>2024-05-29T14:04:39.705Z</time>
      </trkpt>
      <trkpt lat="42.99513" lon="-0.78307">
        <ele>934.87</ele>
        <time>2024-05-29T14:04:44.746Z</time>
      </trkpt>
      <trkpt lat="42.99528" lon="-0.78244">
        <ele>936.57</ele>
        <time>2024-05-29T14:04:49.796Z</time>
      </trkpt>
      <trkpt lat="42.99536" lon="-0.7823">
        <ele>937.94</ele>
        <time>2024-05-29T14:04:54.849Z</time>
      </trkpt>
      <trkpt lat="42.99544" lon="-0.7822">
        <ele>939.22</ele>
        <time>2024-05-29T14:04:59.904Z</time>
      </trkpt>
      <trkpt lat="42.99557" lon="-0.7821">
        <ele>940.41</ele>
        <time>2024-05-29T14:05:04.961Z</time>
      </trkpt>
      <trkpt lat="42.99566" lon="-0.78206">
        <ele>941.51</ele>
        <time>2024-05-29T14:05:10.020Z</time>
      </trkpt>
      <trkpt lat="42.99574" lon="-0.78205">
        <ele>942.57</ele>
        <time>2024-05-29T14:05:15.081Z</time>
      </trkpt>
      <trkpt lat="42.99582" lon="-0.78206">
        <ele>943.58</ele>
        <time>2024-05-29T14:05:20.143Z</time>
      </trkpt>
      <trkpt lat="42.99595" lon="-0.78213">
        <ele>944.38</ele>
        <time>2024-05-29T14:05:25.208Z</time>
      </trkpt>
      <trkpt lat="42.99615" lon="-0.78236">
        <ele>945.05</ele>
        <time>2024-05-29T14:05:30.278Z</time>
      </trkpt>
      <trkpt lat="42.99621" lon="-0.78238">
        <ele>945.94</ele>
        <time>2024-05-29T14:05:35.349Z</time>
      </trkpt>
      <trkpt lat="42.99628" lon="-0.78238">
        <ele>946.8</ele>
        <time>2024-05-29T14:05:40.421Z</time>
      </trkpt>
      <trkpt lat="42.99636" lon="-0.78234">
        <ele>947.66</ele>
        <time>2024-05-29T14:05:45.495Z</time>
      </trkpt>
      <trkpt lat="42.99652" lon="-0.78222">
        <ele>948.63</ele>
        <time>2024-05-29T14:05:50.572Z</time>
      </trkpt>
      <trkpt lat="42.99724" lon="-0.7813">
        <ele>950.26</ele>
        <time>2024-05-29T14:05:55.667Z</time>
      </trkpt>
      <trkpt lat="42.99783" lon="-0.7806">
        <ele>950.78</ele>
        <time>2024-05-29T14:06:00.777Z</time>
      </trkpt>
      <trkpt lat="42.99797" lon="-0.78025">
        <ele>951.53</ele>
        <time>2024-05-29T14:06:05.892Z</time>
      </trkpt>
      <trkpt lat="42.99815" lon="-0.77964">
        <ele>952.12</ele>
        <time>2024-05-29T14:06:11.016Z</time>
      </trkpt>
      <trkpt lat="42.99821" lon="-0.77953">
        <ele>952.54</ele>
        <time>2024-05-29T14:06:16.142Z</time>
      </trkpt>
      <trkpt lat="42.99828" lon="-0.77948">
        <ele>952.85</ele>
        <time>2024-05-29T14:06:21.270Z</time>
      </trkpt>
      <trkpt lat="42.9985" lon="-0.77943">
        <ele>952.92</ele>
        <time>2024-05-29T14:06:26.402Z</time>
      </trkpt>
      <trkpt lat="42.99854" lon="-0.77938">
        <ele>953.15</ele>
        <time>2024-05-29T14:06:31.535Z</time>
      </trkpt>
      <trkpt lat="42.99858" lon="-0.7793">
        <ele>953.34</ele>
        <time>2024-05-29T14:06:36.669Z</time>
      </trkpt>
      <trkpt lat="42.9986" lon="-0.77916">
        <ele>953.52</ele>
        <time>2024-05-29T14:06:41.805Z</time>
      </trkpt>
      <trkpt lat="42.9986" lon="-0.77904">
        <ele>953.66</ele>
        <time>2024-05-29T14:06:46.943Z</time>
      </trkpt>
      <trkpt lat="42.99852" lon="-0.77811">
        <ele>954.05</ele>
        <time>2024-05-29T14:06:52.093Z</time>
      </trkpt>
      <trkpt lat="42.99848" lon="-0.77791">
        <ele>954</ele>
        <time>2024-05-29T14:06:57.246Z</time>
      </trkpt>
      <trkpt lat="42.99839" lon="-0.77763">
        <ele>954</ele>
        <time>2024-05-29T14:07:02.403Z</time>
      </trkpt>
      <trkpt lat="42.99838" lon="-0.77755">
        <ele>953.82</ele>
        <time>2024-05-29T14:07:07.562Z</time>
      </trkpt>
      <trkpt lat="42.9984" lon="-0.77749">
        <ele>953.55</ele>
        <time>2024-05-29T14:07:12.721Z</time>
      </trkpt>
      <trkpt lat="42.99846" lon="-0.77742">
        <ele>953.18</ele>
        <time>2024-05-29T14:07:17.882Z</time>
      </trkpt>
      <trkpt lat="42.99851" lon="-0.77739">
        <ele>952.85</ele>
        <time>2024-05-29T14:07:23.044Z</time>
      </trkpt>
      <trkpt lat="42.99856" lon="-0.7774">
        <ele>952.52</ele>
        <time>2024-05-29T14:07:28.207Z</time>
      </trkpt>
      <trkpt lat="42.99862" lon="-0.77744">
        <ele>952.18</ele>
        <time>2024-05-29T14:07:33.371Z</time>
      </trkpt>
      <trkpt lat="42.99906" lon="-0.77806">
        <ele>951.22</ele>
        <time>2024-05-29T14:07:38.547Z</time>
      </trkpt>
      <trkpt lat="42.99917" lon="-0.77817">
        <ele>950.86</ele>
        <time>2024-05-29T14:07:43.725Z</time>
      </trkpt>
      <trkpt lat="42.99926" lon="-0.77821">
        <ele>950.55</ele>
        <time>2024-05-29T14:07:48.905Z</time>
      </trkpt>
      <trkpt lat="42.9995" lon="-0.77824">
        <ele>950.27</ele>
        <time>2024-05-29T14:07:54.090Z</time>
      </trkpt>
      <trkpt lat="42.99965" lon="-0.77819">
        <ele>950.08</ele>
        <time>2024-05-29T14:07:59.278Z</time>
      </trkpt>
      <trkpt lat="42.99992" lon="-0.77799">
        <ele>950.04</ele>
        <time>2024-05-29T14:08:04.471Z</time>
      </trkpt>
      <trkpt lat="43.00065" lon="-0.77764">
        <ele>950</ele>
        <time>2024-05-29T14:08:09.679Z</time>
      </trkpt>
      <trkpt lat="43.00077" lon="-0.77763">
        <ele>949.91</ele>
        <time>2024-05-29T14:08:14.889Z</time>
      </trkpt>
      <trkpt lat="43.00111" lon="-0.77768">
        <ele>949.83</ele>
        <time>2024-05-29T14:08:20.105Z</time>
      </trkpt>
      <trkpt lat="43.00214" lon="-0.77771">
        <ele>950.08</ele>
        <time>2024-05-29T14:08:25.340Z</time>
      </trkpt>
      <trkpt lat="43.00261" lon="-0.77785">
        <ele>950.09</ele>
        <time>2024-05-29T14:08:30.584Z</time>
      </trkpt>
      <trkpt lat="43.003" lon="-0.77785">
        <ele>950.5</ele>
        <time>2024-05-29T14:08:35.836Z</time>
      </trkpt>
      <trkpt lat="43.00312" lon="-0.77782">
        <ele>950.82</ele>
        <time>2024-05-29T14:08:41.090Z</time>
      </trkpt>
      <trkpt lat="43.0032" lon="-0.77775">
        <ele>951.22</ele>
        <time>2024-05-29T14:08:46.346Z</time>
      </trkpt>
      <trkpt lat="43.00328" lon="-0.77763">
        <ele>951.7</ele>
        <time>2024-05-29T14:08:51.604Z</time>
      </trkpt>
      <trkpt lat="43.00334" lon="-0.77751">
        <ele>952.28</ele>
        <time>2024-05-29T14:08:56.864Z</time>
      </trkpt>
      <trkpt lat="43.00336" lon="-0.77738">
        <ele>952.97</ele>
        <time>2024-05-29T14:09:02.126Z</time>
      </trkpt>
      <trkpt lat="43.00336" lon="-0.77731">
        <ele>953.71</ele>
        <time>2024-05-29T14:09:07.389Z</time>
      </trkpt>
      <trkpt lat="43.00332" lon="-0.77718">
        <ele>954.54</ele>
        <time>2024-05-29T14:09:12.654Z</time>
      </trkpt>
      <trkpt lat="43.00316" lon="-0.77696">
        <ele>955.56</ele>
        <time>2024-05-29T14:09:17.923Z</time>
      </trkpt>
      <trkpt lat="43.00309" lon="-0.77695">
        <ele>956.65</ele>
        <time>2024-05-29T14:09:23.193Z</time>
      </trkpt>
      <trkpt lat="43.00302" lon="-0.77696">
        <ele>957.83</ele>
        <time>2024-05-29T14:09:28.464Z</time>
      </trkpt>
      <trkpt lat="43.00274" lon="-0.77714">
        <ele>959.14</ele>
        <time>2024-05-29T14:09:33.741Z</time>
      </trkpt>
      <trkpt lat="43.00258" lon="-0.77718">
        <ele>960.53</ele>
        <time>2024-05-29T14:09:39.021Z</time>
      </trkpt>
      <trkpt lat="43.00236" lon="-0.77719">
        <ele>962.01</ele>
        <time>2024-05-29T14:09:44.305Z</time>
      </trkpt>
      <trkpt lat="43.00222" lon="-0.77714">
        <ele>963.74</ele>
        <time>2024-05-29T14:09:49.592Z</time>
      </trkpt>
      <trkpt lat="43.0021" lon="-0.77708">
        <ele>965.56</ele>
        <time>2024-05-29T14:09:54.881Z</time>
      </trkpt>
      <trkpt lat="43.00197" lon="-0.77696">
        <ele>967.54</ele>
        <time>2024-05-29T14:10:00.173Z</time>
      </trkpt>
      <trkpt lat="43.00177" lon="-0.77676">
        <ele>969.69</ele>
        <time>2024-05-29T14:10:05.470Z</time>
      </trkpt>
      <trkpt lat="43.0014" lon="-0.77648">
        <ele>971.86</ele>
        <time>2024-05-29T14:10:10.775Z</time>
      </trkpt>
      <trkpt lat="43.0013" lon="-0.77639">
        <ele>974.03</ele>
        <time>2024-05-29T14:10:16.082Z</time>
      </trkpt>
      <trkpt lat="43.0012" lon="-0.77627">
        <ele>976.37</ele>
        <time>2024-05-29T14:10:21.392Z</time>
      </trkpt>
      <trkpt lat="43.00091" lon="-0.7758">
        <ele>979.39</ele>
        <time>2024-05-29T14:10:26.710Z</time>
      </trkpt>
      <trkpt lat="43.00079" lon="-0.77574">
        <ele>981.92</ele>
        <time>2024-05-29T14:10:32.030Z</time>
      </trkpt>
      <trkpt lat="43.00068" lon="-0.77578">
        <ele>984.41</ele>
        <time>2024-05-29T14:10:37.352Z</time>
      </trkpt>
      <trkpt lat="43.00048" lon="-0.77609">
        <ele>986.69</ele>
        <time>2024-05-29T14:10:42.680Z</time>
      </trkpt>
      <trkpt lat="43.00041" lon="-0.77613">
        <ele>989.53</ele>
        <time>2024-05-29T14:10:48.009Z</time>
      </trkpt>
      <trkpt lat="43.00031" lon="-0.77613">
        <ele>992.66</ele>
        <time>2024-05-29T14:10:53.340Z</time>
      </trkpt>
      <trkpt lat="42.9999" lon="-0.77597">
        <ele>996.5</ele>
        <time>2024-05-29T14:10:58.679Z</time>
      </trkpt>
      <trkpt lat="42.99935" lon="-0.77595">
        <ele>999.74</ele>
        <time>2024-05-29T14:11:04.028Z</time>
      </trkpt>
      <trkpt lat="42.99921" lon="-0.77588">
        <ele>1003.26</ele>
        <time>2024-05-29T14:11:09.380Z</time>
      </trkpt>
      <trkpt lat="42.99912" lon="-0.77579">
        <ele>1007.02</ele>
        <time>2024-05-29T14:11:14.734Z</time>
      </trkpt>
      <trkpt lat="42.99891" lon="-0.77554">
        <ele>1010.94</ele>
        <time>2024-05-29T14:11:20.093Z</time>
      </trkpt>
      <trkpt lat="42.99874" lon="-0.77528">
        <ele>1015.18</ele>
        <time>2024-05-29T14:11:25.457Z</time>
      </trkpt>
      <trkpt lat="42.99862" lon="-0.77505">
        <ele>1019.69</ele>
        <time>2024-05-29T14:11:30.825Z</time>
      </trkpt>
      <trkpt lat="42.9984" lon="-0.77455">
        <ele>1024.38</ele>
        <time>2024-05-29T14:11:36.201Z</time>
      </trkpt>
      <trkpt lat="42.99826" lon="-0.77403">
        <ele>1029.4</ele>
        <time>2024-05-29T14:11:41.585Z</time>
      </trkpt>
      <trkpt lat="42.99819" lon="-0.77346">
        <ele>1034.4</ele>
        <time>2024-05-29T14:11:46.977Z</time>
      </trkpt>
      <trkpt lat="42.99817" lon="-0.77319">
        <ele>1039.5</ele>
        <time>2024-05-29T14:11:52.372Z</time>
      </trkpt>
      <trkpt lat="42.99818" lon="-0.77295">
        <ele>1044.88</ele>
        <time>2024-05-29T14:11:57.771Z</time>
      </trkpt>
      <trkpt lat="42.99819" lon="-0.77259">
        <ele>1050.52</ele>
        <time>2024-05-29T14:12:03.174Z</time>
      </trkpt>
      <trkpt lat="42.99819" lon="-0.77208">
        <ele>1056.19</ele>
        <time>2024-05-29T14:12:08.584Z</time>
      </trkpt>
      <trkpt lat="42.99836" lon="-0.77031">
        <ele>1062.43</ele>
        <time>2024-05-29T14:12:14.019Z</time>
      </trkpt>
      <trkpt lat="42.99858" lon="-0.76887">
        <ele>1068.91</ele>
        <time>2024-05-29T14:12:19.474Z</time>
      </trkpt>
      <trkpt lat="42.99863" lon="-0.7676">
        <ele>1075.4</ele>
        <time>2024-05-29T14:12:24.946Z</time>
      </trkpt>
      <trkpt lat="42.99872" lon="-0.76696">
        <ele>1081.73</ele>
        <time>2024-05-29T14:12:30.427Z</time>
      </trkpt>
      <trkpt lat="42.99887" lon="-0.76646">
        <ele>1088.1</ele>
        <time>2024-05-29T14:12:35.915Z</time>
      </trkpt>
      <trkpt lat="42.99908" lon="-0.76603">
        <ele>1094.68</ele>
        <time>2024-05-29T14:12:41.411Z</time>
      </trkpt>
      <trkpt lat="42.99933" lon="-0.76533">
        <ele>1101.55</ele>
        <time>2024-05-29T14:12:46.917Z</time>
      </trkpt>
      <trkpt lat="42.9995" lon="-0.76492">
        <ele>1108.2</ele>
        <time>2024-05-29T14:12:52.430Z</time>
      </trkpt>
      <trkpt lat="42.99964" lon="-0.76453">
        <ele>1114.75</ele>
        <time>2024-05-29T14:12:57.949Z</time>
      </trkpt>
      <trkpt lat="42.99996" lon="-0.76359">
        <ele>1121.68</ele>
        <time>2024-05-29T14:13:03.482Z</time>
      </trkpt>
      <trkpt lat="43.00015" lon="-0.76283">
        <ele>1129</ele>
        <time>2024-05-29T14:13:09.026Z</time>
      </trkpt>
      <trkpt lat="43.0002" lon="-0.76255">
        <ele>1135.38</ele>
        <time>2024-05-29T14:13:14.574Z</time>
      </trkpt>
      <trkpt lat="43.00036" lon="-0.76118">
        <ele>1142.7</ele>
        <time>2024-05-29T14:13:20.141Z</time>
      </trkpt>
      <trkpt lat="43.00035" lon="-0.761">
        <ele>1148.87</ele>
        <time>2024-05-29T14:13:25.710Z</time>
      </trkpt>
      <trkpt lat="43.0002" lon="-0.76016">
        <ele>1154.73</ele>
        <time>2024-05-29T14:13:31.291Z</time>
      </trkpt>
      <trkpt lat="43.00018" lon="-0.75978">
        <ele>1160.57</ele>
        <time>2024-05-29T14:13:36.877Z</time>
      </trkpt>
      <trkpt lat="43.00017" lon="-0.75914">
        <ele>1166.56</ele>
        <time>2024-05-29T14:13:42.472Z</time>
      </trkpt>
      <trkpt lat="43.00008" lon="-0.75864">
        <ele>1171.49</ele>
        <time>2024-05-29T14:13:48.074Z</time>
      </trkpt>
      <trkpt lat="43.00002" lon="-0.75845">
        <ele>1176.86</ele>
        <time>2024-05-29T14:13:53.679Z</time>
      </trkpt>
      <trkpt lat="42.99979" lon="-0.75797">
        <ele>1181.96</ele>
        <time>2024-05-29T14:13:59.291Z</time>
      </trkpt>
      <trkpt lat="42.99972" lon="-0.75752">
        <ele>1187.22</ele>
        <time>2024-05-29T14:14:04.910Z</time>
      </trkpt>
      <trkpt lat="42.99957" lon="-0.75682">
        <ele>1192.32</ele>
        <time>2024-05-29T14:14:10.539Z</time>
      </trkpt>
      <trkpt lat="42.99945" lon="-0.75637">
        <ele>1197.01</ele>
        <time>2024-05-29T14:14:16.174Z</time>
      </trkpt>
      <trkpt lat="42.99939" lon="-0.75621">
        <ele>1201.36</ele>
        <time>2024-05-29T14:14:21.812Z</time>
      </trkpt>
      <trkpt lat="42.99925" lon="-0.75587">
        <ele>1205.57</ele>
        <time>2024-05-29T14:14:27.455Z</time>
      </trkpt>
      <trkpt lat="42.99919" lon="-0.75569">
        <ele>1209.67</ele>
        <time>2024-05-29T14:14:33.101Z</time>
      </trkpt>
      <trkpt lat="42.99904" lon="-0.75538">
        <ele>1213.69</ele>
        <time>2024-05-29T14:14:38.752Z</time>
      </trkpt>
      <trkpt lat="42.99889" lon="-0.75484">
        <ele>1217.91</ele>
        <time>2024-05-29T14:14:44.411Z</time>
      </trkpt>
      <trkpt lat="42.99876" lon="-0.75443">
        <ele>1221.7</ele>
        <time>2024-05-29T14:14:50.076Z</time>
      </trkpt>
      <trkpt lat="42.99848" lon="-0.75368">
        <ele>1225.6</ele>
        <time>2024-05-29T14:14:55.752Z</time>
      </trkpt>
      <trkpt lat="42.99845" lon="-0.75355">
        <ele>1228.79</ele>
        <time>2024-05-29T14:15:01.430Z</time>
      </trkpt>
      <trkpt lat="42.99836" lon="-0.75308">
        <ele>1232.04</ele>
        <time>2024-05-29T14:15:07.115Z</time>
      </trkpt>
      <trkpt lat="42.99828" lon="-0.75281">
        <ele>1235.13</ele>
        <time>2024-05-29T14:15:12.804Z</time>
      </trkpt>
      <trkpt lat="42.9982" lon="-0.75289">
        <ele>1237.87</ele>
        <time>2024-05-29T14:15:18.494Z</time>
      </trkpt>
      <trkpt lat="42.99805" lon="-0.75345">
        <ele>1240.33</ele>
        <time>2024-05-29T14:15:24.193Z</time>
      </trkpt>
      <trkpt lat="42.99761" lon="-0.75468">
        <ele>1242.7</ele>
        <time>2024-05-29T14:15:29.910Z</time>
      </trkpt>
      <trkpt lat="42.99743" lon="-0.75486">
        <ele>1244.98</ele>
        <time>2024-05-29T14:15:35.631Z</time>
      </trkpt>
      <trkpt lat="42.9973" lon="-0.75507">
        <ele>1246.99</ele>
        <time>2024-05-29T14:15:41.356Z</time>
      </trkpt>
      <trkpt lat="42.99702" lon="-0.7553">
        <ele>1249.31</ele>
        <time>2024-05-29T14:15:47.087Z</time>
      </trkpt>
      <trkpt lat="42.99694" lon="-0.75565">
        <ele>1251.02</ele>
        <time>2024-05-29T14:15:52.823Z</time>
      </trkpt>
      <trkpt lat="42.99659" lon="-0.75613">
        <ele>1252.98</ele>
        <time>2024-05-29T14:15:58.569Z</time>
      </trkpt>
      <trkpt lat="42.99651" lon="-0.75628">
        <ele>1254.54</ele>
        <time>2024-05-29T14:16:04.317Z</time>
      </trkpt>
      <trkpt lat="42.9964" lon="-0.7571">
        <ele>1255.78</ele>
        <time>2024-05-29T14:16:10.076Z</time>
      </trkpt>
      <trkpt lat="42.99641" lon="-0.75752">
        <ele>1256.87</ele>
        <time>2024-05-29T14:16:15.841Z</time>
      </trkpt>
      <trkpt lat="42.99637" lon="-0.75768">
        <ele>1258.09</ele>
        <time>2024-05-29T14:16:21.609Z</time>
      </trkpt>
      <trkpt lat="42.99624" lon="-0.75797">
        <ele>1259.24</ele>
        <time>2024-05-29T14:16:27.381Z</time>
      </trkpt>
      <trkpt lat="42.99615" lon="-0.75808">
        <ele>1260.39</ele>
        <time>2024-05-29T14:16:33.155Z</time>
      </trkpt>
      <trkpt lat="42.99605" lon="-0.75814">
        <ele>1261.62</ele>
        <time>2024-05-29T14:16:38.931Z</time>
      </trkpt>
      <trkpt lat="42.99592" lon="-0.75815">
        <ele>1262.92</ele>
        <time>2024-05-29T14:16:44.710Z</time>
      </trkpt>
      <trkpt lat="42.99582" lon="-0.75809">
        <ele>1264.36</ele>
        <time>2024-05-29T14:16:50.491Z</time>
      </trkpt>
      <trkpt lat="42.99551" lon="-0.75781">
        <ele>1266.01</ele>
        <time>2024-05-29T14:16:56.279Z</time>
      </trkpt>
      <trkpt lat="42.99536" lon="-0.75771">
        <ele>1267.71</ele>
        <time>2024-05-29T14:17:02.070Z</time>
      </trkpt>
      <trkpt lat="42.9952" lon="-0.75764">
        <ele>1269.46</ele>
        <time>2024-05-29T14:17:07.864Z</time>
      </trkpt>
      <trkpt lat="42.99467" lon="-0.7575">
        <ele>1271.64</ele>
        <time>2024-05-29T14:17:13.668Z</time>
      </trkpt>
      <trkpt lat="42.99438" lon="-0.75735">
        <ele>1273.94</ele>
        <time>2024-05-29T14:17:19.478Z</time>
      </trkpt>
      <trkpt lat="42.99417" lon="-0.75719">
        <ele>1276.33</ele>
        <time>2024-05-29T14:17:25.292Z</time>
      </trkpt>
      <trkpt lat="42.99411" lon="-0.75718">
        <ele>1278.49</ele>
        <time>2024-05-29T14:17:31.107Z</time>
      </trkpt>
      <trkpt lat="42.99406" lon="-0.7572">
        <ele>1280.72</ele>
        <time>2024-05-29T14:17:36.923Z</time>
      </trkpt>
      <trkpt lat="42.99404" lon="-0.75724">
        <ele>1283.07</ele>
        <time>2024-05-29T14:17:42.740Z</time>
      </trkpt>
      <trkpt lat="42.99402" lon="-0.75733">
        <ele>1285.6</ele>
        <time>2024-05-29T14:17:48.558Z</time>
      </trkpt>
      <trkpt lat="42.99404" lon="-0.75743">
        <ele>1288.19</ele>
        <time>2024-05-29T14:17:54.378Z</time>
      </trkpt>
      <trkpt lat="42.99417" lon="-0.75768">
        <ele>1290.81</ele>
        <time>2024-05-29T14:18:00.202Z</time>
      </trkpt>
      <trkpt lat="42.99447" lon="-0.75818">
        <ele>1293.51</ele>
        <time>2024-05-29T14:18:06.035Z</time>
      </trkpt>
      <trkpt lat="42.99465" lon="-0.75844">
        <ele>1296.56</ele>
        <time>2024-05-29T14:18:11.873Z</time>
      </trkpt>
      <trkpt lat="42.99478" lon="-0.75872">
        <ele>1299.73</ele>
        <time>2024-05-29T14:18:17.715Z</time>
      </trkpt>
      <trkpt lat="42.99482" lon="-0.75888">
        <ele>1303.17</ele>
        <time>2024-05-29T14:18:23.559Z</time>
      </trkpt>
      <trkpt lat="42.99483" lon="-0.75903">
        <ele>1306.82</ele>
        <time>2024-05-29T14:18:29.406Z</time>
      </trkpt>
      <trkpt lat="42.99488" lon="-0.75977">
        <ele>1310.86</ele>
        <time>2024-05-29T14:18:35.263Z</time>
      </trkpt>
      <trkpt lat="42.9948" lon="-0.76044">
        <ele>1314.85</ele>
        <time>2024-05-29T14:18:41.129Z</time>
      </trkpt>
      <trkpt lat="42.9947" lon="-0.76089">
        <ele>1319</ele>
        <time>2024-05-29T14:18:47.001Z</time>
      </trkpt>
      <trkpt lat="42.99454" lon="-0.76153">
        <ele>1323.53</ele>
        <time>2024-05-29T14:18:52.883Z</time>
      </trkpt>
      <trkpt lat="42.99441" lon="-0.76242">
        <ele>1327.8</ele>
        <time>2024-05-29T14:18:58.777Z</time>
      </trkpt>
      <trkpt lat="42.99433" lon="-0.76277">
        <ele>1332.32</ele>
        <time>2024-05-29T14:19:04.676Z</time>
      </trkpt>
      <trkpt lat="42.99421" lon="-0.76356">
        <ele>1336.97</ele>
        <time>2024-05-29T14:19:10.586Z</time>
      </trkpt>
      <trkpt lat="42.99407" lon="-0.76413">
        <ele>1341.36</ele>
        <time>2024-05-29T14:19:16.504Z</time>
      </trkpt>
      <trkpt lat="42.9939" lon="-0.76463">
        <ele>1346.1</ele>
        <time>2024-05-29T14:19:22.430Z</time>
      </trkpt>
      <trkpt lat="42.99378" lon="-0.76514">
        <ele>1350.56</ele>
        <time>2024-05-29T14:19:28.363Z</time>
      </trkpt>
      <trkpt lat="42.99254" lon="-0.76789">
        <ele>1356.02</ele>
        <time>2024-05-29T14:19:34.340Z</time>
      </trkpt>
      <trkpt lat="42.99235" lon="-0.76819">
        <ele>1360.49</ele>
        <time>2024-05-29T14:19:40.323Z</time>
      </trkpt>
      <trkpt lat="42.99221" lon="-0.76833">
        <ele>1364.8</ele>
        <time>2024-05-29T14:19:46.309Z</time>
      </trkpt>
      <trkpt lat="42.99202" lon="-0.76847">
        <ele>1369.07</ele>
        <time>2024-05-29T14:19:52.299Z</time>
      </trkpt>
      <trkpt lat="42.99156" lon="-0.76865">
        <ele>1373.33</ele>
        <time>2024-05-29T14:19:58.298Z</time>
      </trkpt>
      <trkpt lat="42.99111" lon="-0.76897">
        <ele>1377.68</ele>
        <time>2024-05-29T14:20:04.306Z</time>
      </trkpt>
      <trkpt lat="42.99094" lon="-0.76911">
        <ele>1381.73</ele>
        <time>2024-05-29T14:20:10.318Z</time>
      </trkpt>
      <trkpt lat="42.99086" lon="-0.76925">
        <ele>1385.48</ele>
        <time>2024-05-29T14:20:16.332Z</time>
      </trkpt>
      <trkpt lat="42.9907" lon="-0.76959">
        <ele>1389.03</ele>
        <time>2024-05-29T14:20:22.352Z</time>
      </trkpt>
      <trkpt lat="42.99063" lon="-0.76968">
        <ele>1392.52</ele>
        <time>2024-05-29T14:20:28.374Z</time>
      </trkpt>
      <trkpt lat="42.99056" lon="-0.76971">
        <ele>1395.93</ele>
        <time>2024-05-29T14:20:34.397Z</time>
      </trkpt>
      <trkpt lat="42.99048" lon="-0.76967">
        <ele>1399.3</ele>
        <time>2024-05-29T14:20:40.422Z</time>
      </trkpt>
      <trkpt lat="42.99044" lon="-0.76962">
        <ele>1402.62</ele>
        <time>2024-05-29T14:20:46.448Z</time>
      </trkpt>
      <trkpt lat="42.98952" lon="-0.76822">
        <ele>1406.11</ele>
        <time>2024-05-29T14:20:52.499Z</time>
      </trkpt>
      <trkpt lat="42.98938" lon="-0.76795">
        <ele>1409.26</ele>
        <time>2024-05-29T14:20:58.555Z</time>
      </trkpt>
      <trkpt lat="42.98914" lon="-0.76738">
        <ele>1412.5</ele>
        <time>2024-05-29T14:21:04.620Z</time>
      </trkpt>
      <trkpt lat="42.9888" lon="-0.76641">
        <ele>1415.88</ele>
        <time>2024-05-29T14:21:10.699Z</time>
      </trkpt>
      <trkpt lat="42.98817" lon="-0.76497">
        <ele>1419.26</ele>
        <time>2024-05-29T14:21:16.801Z</time>
      </trkpt>
      <trkpt lat="42.98804" lon="-0.76453">
        <ele>1422.11</ele>
        <time>2024-05-29T14:21:22.910Z</time>
      </trkpt>
      <trkpt lat="42.98795" lon="-0.76409">
        <ele>1424.9</ele>
        <time>2024-05-29T14:21:29.025Z</time>
      </trkpt>
      <trkpt lat="42.98795" lon="-0.76399">
        <ele>1427.49</ele>
        <time>2024-05-29T14:21:35.141Z</time>
      </trkpt>
      <trkpt lat="42.98797" lon="-0.7639">
        <ele>1429.99</ele>
        <time>2024-05-29T14:21:41.259Z</time>
      </trkpt>
      <trkpt lat="42.98803" lon="-0.76386">
        <ele>1432.45</ele>
        <time>2024-05-29T14:21:47.378Z</time>
      </trkpt>
      <trkpt lat="42.98808" lon="-0.76386">
        <ele>1434.82</ele>
        <time>2024-05-29T14:21:53.498Z</time>
      </trkpt>
      <trkpt lat="42.98816" lon="-0.76392">
        <ele>1437.14</ele>
        <time>2024-05-29T14:21:59.619Z</time>
      </trkpt>
      <trkpt lat="42.98823" lon="-0.76403">
        <ele>1439.37</ele>
        <time>2024-05-29T14:22:05.742Z</time>
      </trkpt>
      <trkpt lat="42.9883" lon="-0.76422">
        <ele>1441.51</ele>
        <time>2024-05-29T14:22:11.868Z</time>
      </trkpt>
      <trkpt lat="42.98844" lon="-0.7645">
        <ele>1443.67</ele>
        <time>2024-05-29T14:22:17.999Z</time>
      </trkpt>
      <trkpt lat="42.9888" lon="-0.76482">
        <ele>1445.94</ele>
        <time>2024-05-29T14:22:24.138Z</time>
      </trkpt>
      <trkpt lat="42.9892" lon="-0.76523">
        <ele>1448.01</ele>
        <time>2024-05-29T14:22:30.286Z</time>
      </trkpt>
      <trkpt lat="42.98952" lon="-0.76569">
        <ele>1450.21</ele>
        <time>2024-05-29T14:22:36.443Z</time>
      </trkpt>
      <trkpt lat="42.9896" lon="-0.76573">
        <ele>1452.42</ele>
        <time>2024-05-29T14:22:42.602Z</time>
      </trkpt>
      <trkpt lat="42.98966" lon="-0.76572">
        <ele>1454.65</ele>
        <time>2024-05-29T14:22:48.762Z</time>
      </trkpt>
      <trkpt lat="42.98971" lon="-0.76566">
        <ele>1456.94</ele>
        <time>2024-05-29T14:22:54.923Z</time>
      </trkpt>
      <trkpt lat="42.98974" lon="-0.7656">
        <ele>1459.26</ele>
        <time>2024-05-29T14:23:01.085Z</time>
      </trkpt>
      <trkpt lat="42.98974" lon="-0.76551">
        <ele>1461.63</ele>
        <time>2024-05-29T14:23:07.248Z</time>
      </trkpt>
      <trkpt lat="42.98971" lon="-0.76538">
        <ele>1464.06</ele>
        <time>2024-05-29T14:23:13.413Z</time>
      </trkpt>
      <trkpt lat="42.98957" lon="-0.76508">
        <ele>1466.59</ele>
        <time>2024-05-29T14:23:19.583Z</time>
      </trkpt>
      <trkpt lat="42.98954" lon="-0.76499">
        <ele>1469.17</ele>
        <time>2024-05-29T14:23:25.754Z</time>
      </trkpt>
      <trkpt lat="42.98943" lon="-0.76445">
        <ele>1472.14</ele>
        <time>2024-05-29T14:23:31.933Z</time>
      </trkpt>
      <trkpt lat="42.98921" lon="-0.7632">
        <ele>1475.34</ele>
        <time>2024-05-29T14:23:38.129Z</time>
      </trkpt>
      <trkpt lat="42.98914" lon="-0.76266">
        <ele>1478.2</ele>
        <time>2024-05-29T14:23:44.333Z</time>
      </trkpt>
      <trkpt lat="42.98907" lon="-0.76232">
        <ele>1480.97</ele>
        <time>2024-05-29T14:23:50.542Z</time>
      </trkpt>
      <trkpt lat="42.98904" lon="-0.76206">
        <ele>1483.91</ele>
        <time>2024-05-29T14:23:56.754Z</time>
      </trkpt>
      <trkpt lat="42.98904" lon="-0.76176">
        <ele>1486.86</ele>
        <time>2024-05-29T14:24:02.970Z</time>
      </trkpt>
      <trkpt lat="42.98906" lon="-0.76146">
        <ele>1489.83</ele>
        <time>2024-05-29T14:24:09.191Z</time>
      </trkpt>
      <trkpt lat="42.9893" lon="-0.75986">
        <ele>1493.28</ele>
        <time>2024-05-29T14:24:15.434Z</time>
      </trkpt>
      <trkpt lat="42.98932" lon="-0.75967">
        <ele>1496.24</ele>
        <time>2024-05-29T14:24:21.679Z</time>
      </trkpt>
      <trkpt lat="42.98932" lon="-0.75938">
        <ele>1499.21</ele>
        <time>2024-05-29T14:24:27.928Z</time>
      </trkpt>
      <trkpt lat="42.98931" lon="-0.75912">
        <ele>1502.16</ele>
        <time>2024-05-29T14:24:34.181Z</time>
      </trkpt>
      <trkpt lat="42.98927" lon="-0.75882">
        <ele>1505.07</ele>
        <time>2024-05-29T14:24:40.438Z</time>
      </trkpt>
      <trkpt lat="42.98909" lon="-0.75803">
        <ele>1508.13</ele>
        <time>2024-05-29T14:24:46.706Z</time>
      </trkpt>
      <trkpt lat="42.98908" lon="-0.75765">
        <ele>1511.08</ele>
        <time>2024-05-29T14:24:52.980Z</time>
      </trkpt>
      <trkpt lat="42.98906" lon="-0.75752">
        <ele>1513.76</ele>
        <time>2024-05-29T14:24:59.255Z</time>
      </trkpt>
      <trkpt lat="42.98903" lon="-0.75742">
        <ele>1516.3</ele>
        <time>2024-05-29T14:25:05.532Z</time>
      </trkpt>
      <trkpt lat="42.98896" lon="-0.7573">
        <ele>1518.74</ele>
        <time>2024-05-29T14:25:11.811Z</time>
      </trkpt>
      <trkpt lat="42.98886" lon="-0.75716">
        <ele>1521.09</ele>
        <time>2024-05-29T14:25:18.093Z</time>
      </trkpt>
      <trkpt lat="42.98848" lon="-0.75673">
        <ele>1523.34</ele>
        <time>2024-05-29T14:25:24.384Z</time>
      </trkpt>
      <trkpt lat="42.98838" lon="-0.75664">
        <ele>1525.45</ele>
        <time>2024-05-29T14:25:30.677Z</time>
      </trkpt>
      <trkpt lat="42.98826" lon="-0.75656">
        <ele>1527.43</ele>
        <time>2024-05-29T14:25:36.973Z</time>
      </trkpt>
      <trkpt lat="42.98814" lon="-0.75652">
        <ele>1529.25</ele>
        <time>2024-05-29T14:25:43.271Z</time>
      </trkpt>
      <trkpt lat="42.98805" lon="-0.75645">
        <ele>1530.95</ele>
        <time>2024-05-29T14:25:49.571Z</time>
      </trkpt>
      <trkpt lat="42.98797" lon="-0.75637">
        <ele>1532.51</ele>
        <time>2024-05-29T14:25:55.873Z</time>
      </trkpt>
      <trkpt lat="42.98781" lon="-0.75612">
        <ele>1533.99</ele>
        <time>2024-05-29T14:26:02.179Z</time>
      </trkpt>
      <trkpt lat="42.98768" lon="-0.75595">
        <ele>1535.26</ele>
        <time>2024-05-29T14:26:08.489Z</time>
      </trkpt>
      <trkpt lat="42.98758" lon="-0.75586">
        <ele>1536.37</ele>
        <time>2024-05-29T14:26:14.801Z</time>
      </trkpt>
      <trkpt lat="42.9873" lon="-0.7557">
        <ele>1537.38</ele>
        <time>2024-05-29T14:26:21.118Z</time>
      </trkpt>
      <trkpt lat="42.98719" lon="-0.75558">
        <ele>1538.21</ele>
        <time>2024-05-29T14:26:27.438Z</time>
      </trkpt>
      <trkpt lat="42.98696" lon="-0.75519">
        <ele>1538.95</ele>
        <time>2024-05-29T14:26:33.765Z</time>
      </trkpt>
      <trkpt lat="42.98678" lon="-0.75496">
        <ele>1539.51</ele>
        <time>2024-05-29T14:26:40.096Z</time>
      </trkpt>
      <trkpt lat="42.98671" lon="-0.75481">
        <ele>1539.87</ele>
        <time>2024-05-29T14:26:46.430Z</time>
      </trkpt>
      <trkpt lat="42.9867" lon="-0.75474">
        <ele>1540.06</ele>
        <time>2024-05-29T14:26:52.765Z</time>
      </trkpt>
      <trkpt lat="42.9867" lon="-0.75469">
        <ele>1540.1</ele>
        <time>2024-05-29T14:26:59.101Z</time>
      </trkpt>
      <trkpt lat="42.98678" lon="-0.75473">
        <ele>1540.01</ele>
        <time>2024-05-29T14:27:05.438Z</time>
      </trkpt>
      <trkpt lat="42.98688" lon="-0.75472">
        <ele>1539.75</ele>
        <time>2024-05-29T14:27:11.777Z</time>
      </trkpt>
      <trkpt lat="42.98696" lon="-0.75468">
        <ele>1539.36</ele>
        <time>2024-05-29T14:27:18.118Z</time>
      </trkpt>
      <trkpt lat="42.98702" lon="-0.75461">
        <ele>1538.83</ele>
        <time>2024-05-29T14:27:24.460Z</time>
      </trkpt>
      <trkpt lat="42.98706" lon="-0.75452">
        <ele>1538.18</ele>
        <time>2024-05-29T14:27:30.803Z</time>
      </trkpt>
      <trkpt lat="42.98709" lon="-0.75441">
        <ele>1537.41</ele>
        <time>2024-05-29T14:27:37.148Z</time>
      </trkpt>
      <trkpt lat="42.98709" lon="-0.75429">
        <ele>1536.53</ele>
        <time>2024-05-29T14:27:43.495Z</time>
      </trkpt>
      <trkpt lat="42.98688" lon="-0.75362">
        <ele>1535.46</ele>
        <time>2024-05-29T14:27:49.852Z</time>
      </trkpt>
      <trkpt lat="42.98663" lon="-0.7529">
        <ele>1534.2</ele>
        <time>2024-05-29T14:27:56.220Z</time>
      </trkpt>
      <trkpt lat="42.9863" lon="-0.75234">
        <ele>1533.26</ele>
        <time>2024-05-29T14:28:02.597Z</time>
      </trkpt>
      <trkpt lat="42.98623" lon="-0.75214">
        <ele>1532.11</ele>
        <time>2024-05-29T14:28:08.977Z</time>
      </trkpt>
      <trkpt lat="42.98619" lon="-0.75181">
        <ele>1530.87</ele>
        <time>2024-05-29T14:28:15.362Z</time>
      </trkpt>
      <trkpt lat="42.98617" lon="-0.75124">
        <ele>1529.58</ele>
        <time>2024-05-29T14:28:21.755Z</time>
      </trkpt>
      <trkpt lat="42.98615" lon="-0.75106">
        <ele>1528.14</ele>
        <time>2024-05-29T14:28:28.150Z</time>
      </trkpt>
      <trkpt lat="42.98606" lon="-0.75046">
        <ele>1526.67</ele>
        <time>2024-05-29T14:28:34.554Z</time>
      </trkpt>
      <trkpt lat="42.98589" lon="-0.74909">
        <ele>1524.81</ele>
        <time>2024-05-29T14:28:40.977Z</time>
      </trkpt>
      <trkpt lat="42.98574" lon="-0.7483">
        <ele>1522.84</ele>
        <time>2024-05-29T14:28:47.411Z</time>
      </trkpt>
      <trkpt lat="42.9857" lon="-0.74819">
        <ele>1521.15</ele>
        <time>2024-05-29T14:28:53.846Z</time>
      </trkpt>
      <trkpt lat="42.9857" lon="-0.74819">
        <ele>1521.15</ele>
        <time>2024-05-29T14:29:00.281Z</time>
      </trkpt>
      <trkpt lat="42.9857" lon="-0.74819">
        <ele>1521.15</ele>
        <time>2024-05-29T14:29:06.716Z</time>
      </trkpt>
      <trkpt lat="42.9857" lon="-0.74819">
        <ele>1521.14</ele>
        <time>2024-05-29T14:29:13.151Z</time>
      </trkpt>
      <trkpt lat="42.98549" lon="-0.7479">
        <ele>1519.57</ele>
        <time>2024-05-29T14:29:19.592Z</time>
      </trkpt>
      <trkpt lat="42.98529" lon="-0.7475">
        <ele>1517.86</ele>
        <time>2024-05-29T14:29:26.040Z</time>
      </trkpt>
      <trkpt lat="42.98504" lon="-0.7467">
        <ele>1515.82</ele>
        <time>2024-05-29T14:29:32.499Z</time>
      </trkpt>
      <trkpt lat="42.98493" lon="-0.74648">
        <ele>1513.93</ele>
        <time>2024-05-29T14:29:38.962Z</time>
      </trkpt>
      <trkpt lat="42.98481" lon="-0.74635">
        <ele>1512.13</ele>
        <time>2024-05-29T14:29:45.428Z</time>
      </trkpt>
      <trkpt lat="42.98481" lon="-0.74634">
        <ele>1510.42</ele>
        <time>2024-05-29T14:29:51.894Z</time>
      </trkpt>
      <trkpt lat="42.98474" lon="-0.74627">
        <ele>1508.68</ele>
        <time>2024-05-29T14:29:58.362Z</time>
      </trkpt>
      <trkpt lat="42.98446" lon="-0.74586">
        <ele>1506.93</ele>
        <time>2024-05-29T14:30:04.837Z</time>
      </trkpt>
      <trkpt lat="42.98436" lon="-0.74558">
        <ele>1505.33</ele>
        <time>2024-05-29T14:30:11.317Z</time>
      </trkpt>
      <trkpt lat="42.9843" lon="-0.7451">
        <ele>1503.76</ele>
        <time>2024-05-29T14:30:17.803Z</time>
      </trkpt>
      <trkpt lat="42.98421" lon="-0.74471">
        <ele>1502.18</ele>
        <time>2024-05-29T14:30:24.295Z</time>
      </trkpt>
      <trkpt lat="42.98409" lon="-0.74452">
        <ele>1500.62</ele>
        <time>2024-05-29T14:30:30.790Z</time>
      </trkpt>
      <trkpt lat="42.98386" lon="-0.74432">
        <ele>1499.14</ele>
        <time>2024-05-29T14:30:37.290Z</time>
      </trkpt>
      <trkpt lat="42.9838" lon="-0.74422">
        <ele>1497.71</ele>
        <time>2024-05-29T14:30:43.792Z</time>
      </trkpt>
      <trkpt lat="42.98378" lon="-0.74406">
        <ele>1496.31</ele>
        <time>2024-05-29T14:30:50.296Z</time>
      </trkpt>
      <trkpt lat="42.98382" lon="-0.74381">
        <ele>1494.9</ele>
        <time>2024-05-29T14:30:56.804Z</time>
      </trkpt>
      <trkpt lat="42.98397" lon="-0.74317">
        <ele>1493.31</ele>
        <time>2024-05-29T14:31:03.321Z</time>
      </trkpt>
      <trkpt lat="42.9841" lon="-0.74291">
        <ele>1491.81</ele>
        <time>2024-05-29T14:31:09.842Z</time>
      </trkpt>
      <trkpt lat="42.98422" lon="-0.74277">
        <ele>1490.42</ele>
        <time>2024-05-29T14:31:16.366Z</time>
      </trkpt>
      <trkpt lat="42.98433" lon="-0.7427">
        <ele>1489.13</ele>
        <time>2024-05-29T14:31:22.892Z</time>
      </trkpt>
      <trkpt lat="42.98453" lon="-0.74264">
        <ele>1487.94</ele>
        <time>2024-05-29T14:31:29.422Z</time>
      </trkpt>
      <trkpt lat="42.98461" lon="-0.74264">
        <ele>1486.86</ele>
        <time>2024-05-29T14:31:35.954Z</time>
      </trkpt>
      <trkpt lat="42.98468" lon="-0.74267">
        <ele>1485.86</ele>
        <time>2024-05-29T14:31:42.487Z</time>
      </trkpt>
      <trkpt lat="42.98483" lon="-0.74281">
        <ele>1484.9</ele>
        <time>2024-05-29T14:31:49.023Z</time>
      </trkpt>
      <trkpt lat="42.98511" lon="-0.74321">
        <ele>1483.91</ele>
        <time>2024-05-29T14:31:55.567Z</time>
      </trkpt>
      <trkpt lat="42.98557" lon="-0.74362">
        <ele>1482.95</ele>
        <time>2024-05-29T14:32:02.121Z</time>
      </trkpt>
      <trkpt lat="42.98566" lon="-0.74368">
        <ele>1482.02</ele>
        <time>2024-05-29T14:32:08.677Z</time>
      </trkpt>
      <trkpt lat="42.98576" lon="-0.74371">
        <ele>1481.13</ele>
        <time>2024-05-29T14:32:15.235Z</time>
      </trkpt>
      <trkpt lat="42.9859" lon="-0.74366">
        <ele>1480.24</ele>
        <time>2024-05-29T14:32:21.796Z</time>
      </trkpt>
      <trkpt lat="42.98595" lon="-0.74359">
        <ele>1479.4</ele>
        <time>2024-05-29T14:32:28.358Z</time>
      </trkpt>
      <trkpt lat="42.98609" lon="-0.74327">
        <ele>1478.61</ele>
        <time>2024-05-29T14:32:34.925Z</time>
      </trkpt>
      <trkpt lat="42.98621" lon="-0.74319">
        <ele>1477.78</ele>
        <time>2024-05-29T14:32:41.495Z</time>
      </trkpt>
      <trkpt lat="42.9864" lon="-0.74317">
        <ele>1476.91</ele>
        <time>2024-05-29T14:32:48.068Z</time>
      </trkpt>
      <trkpt lat="42.98647" lon="-0.74314">
        <ele>1476.04</ele>
        <time>2024-05-29T14:32:54.643Z</time>
      </trkpt>
      <trkpt lat="42.98652" lon="-0.74309">
        <ele>1475.16</ele>
        <time>2024-05-29T14:33:01.219Z</time>
      </trkpt>
      <trkpt lat="42.98659" lon="-0.74292">
        <ele>1474.25</ele>
        <time>2024-05-29T14:33:07.797Z</time>
      </trkpt>
      <trkpt lat="42.98663" lon="-0.74273">
        <ele>1473.28</ele>
        <time>2024-05-29T14:33:14.378Z</time>
      </trkpt>
      <trkpt lat="42.9869" lon="-0.74193">
        <ele>1471.98</ele>
        <time>2024-05-29T14:33:20.971Z</time>
      </trkpt>
      <trkpt lat="42.98697" lon="-0.74181">
        <ele>1470.82</ele>
        <time>2024-05-29T14:33:27.566Z</time>
      </trkpt>
      <trkpt lat="42.98707" lon="-0.74175">
        <ele>1469.58</ele>
        <time>2024-05-29T14:33:34.163Z</time>
      </trkpt>
      <trkpt lat="42.98718" lon="-0.74175">
        <ele>1468.37</ele>
        <time>2024-05-29T14:33:40.762Z</time>
      </trkpt>
      <trkpt lat="42.98748" lon="-0.74188">
        <ele>1467.11</ele>
        <time>2024-05-29T14:33:47.367Z</time>
      </trkpt>
      <trkpt lat="42.98763" lon="-0.74187">
        <ele>1465.89</ele>
        <time>2024-05-29T14:33:53.975Z</time>
      </trkpt>
      <trkpt lat="42.98808" lon="-0.74163">
        <ele>1464.58</ele>
        <time>2024-05-29T14:34:00.592Z</time>
      </trkpt>
      <trkpt lat="42.98815" lon="-0.74156">
        <ele>1463.23</ele>
        <time>2024-05-29T14:34:07.210Z</time>
      </trkpt>
      <trkpt lat="42.98828" lon="-0.74137">
        <ele>1461.85</ele>
        <time>2024-05-29T14:34:13.832Z</time>
      </trkpt>
      <trkpt lat="42.98839" lon="-0.74111">
        <ele>1460.42</ele>
        <time>2024-05-29T14:34:20.458Z</time>
      </trkpt>
      <trkpt lat="42.98856" lon="-0.74036">
        <ele>1458.72</ele>
        <time>2024-05-29T14:34:27.095Z</time>
      </trkpt>
      <trkpt lat="42.9886" lon="-0.74024">
        <ele>1457.01</ele>
        <time>2024-05-29T14:34:33.734Z</time>
      </trkpt>
      <trkpt lat="42.98866" lon="-0.74015">
        <ele>1455.22</ele>
        <time>2024-05-29T14:34:40.374Z</time>
      </trkpt>
      <trkpt lat="42.9888" lon="-0.74007">
        <ele>1453.29</ele>
        <time>2024-05-29T14:34:47.017Z</time>
      </trkpt>
      <trkpt lat="42.98927" lon="-0.73993">
        <ele>1451.3</ele>
        <time>2024-05-29T14:34:53.669Z</time>
      </trkpt>
      <trkpt lat="42.9895" lon="-0.73989">
        <ele>1449.28</ele>
        <time>2024-05-29T14:35:00.325Z</time>
      </trkpt>
      <trkpt lat="42.98956" lon="-0.73984">
        <ele>1447.27</ele>
        <time>2024-05-29T14:35:06.983Z</time>
      </trkpt>
      <trkpt lat="42.99001" lon="-0.73898">
        <ele>1444.95</ele>
        <time>2024-05-29T14:35:13.655Z</time>
      </trkpt>
      <trkpt lat="42.99028" lon="-0.73853">
        <ele>1442.68</ele>
        <time>2024-05-29T14:35:20.335Z</time>
      </trkpt>
      <trkpt lat="42.99041" lon="-0.73839">
        <ele>1440.44</ele>
        <time>2024-05-29T14:35:27.018Z</time>
      </trkpt>
      <trkpt lat="42.99053" lon="-0.73836">
        <ele>1438.21</ele>
        <time>2024-05-29T14:35:33.703Z</time>
      </trkpt>
      <trkpt lat="42.99065" lon="-0.73843">
        <ele>1435.94</ele>
        <time>2024-05-29T14:35:40.391Z</time>
      </trkpt>
      <trkpt lat="42.9908" lon="-0.73862">
        <ele>1433.72</ele>
        <time>2024-05-29T14:35:47.083Z</time>
      </trkpt>
      <trkpt lat="42.99099" lon="-0.73875">
        <ele>1431.44</ele>
        <time>2024-05-29T14:35:53.779Z</time>
      </trkpt>
      <trkpt lat="42.99165" lon="-0.73905">
        <ele>1428.87</ele>
        <time>2024-05-29T14:36:00.488Z</time>
      </trkpt>
      <trkpt lat="42.99204" lon="-0.7392">
        <ele>1426.55</ele>
        <time>2024-05-29T14:36:07.204Z</time>
      </trkpt>
      <trkpt lat="42.99235" lon="-0.73935">
        <ele>1424.31</ele>
        <time>2024-05-29T14:36:13.926Z</time>
      </trkpt>
      <trkpt lat="42.99279" lon="-0.73948">
        <ele>1421.97</ele>
        <time>2024-05-29T14:36:20.657Z</time>
      </trkpt>
      <trkpt lat="42.99353" lon="-0.73978">
        <ele>1419.56</ele>
        <time>2024-05-29T14:36:27.402Z</time>
      </trkpt>
      <trkpt lat="42.99388" lon="-0.73988">
        <ele>1417.38</ele>
        <time>2024-05-29T14:36:34.154Z</time>
      </trkpt>
      <trkpt lat="42.99431" lon="-0.74005">
        <ele>1415.15</ele>
        <time>2024-05-29T14:36:40.914Z</time>
      </trkpt>
      <trkpt lat="42.99489" lon="-0.74018">
        <ele>1413.05</ele>
        <time>2024-05-29T14:36:47.685Z</time>
      </trkpt>
      <trkpt lat="42.99534" lon="-0.74023">
        <ele>1410.97</ele>
        <time>2024-05-29T14:36:54.464Z</time>
      </trkpt>
      <trkpt lat="42.99628" lon="-0.74025">
        <ele>1409.21</ele>
        <time>2024-05-29T14:37:01.261Z</time>
      </trkpt>
      <trkpt lat="42.99668" lon="-0.74028">
        <ele>1407.27</ele>
        <time>2024-05-29T14:37:08.065Z</time>
      </trkpt>
      <trkpt lat="42.99693" lon="-0.74024">
        <ele>1405.58</ele>
        <time>2024-05-29T14:37:14.874Z</time>
      </trkpt>
      <trkpt lat="42.99721" lon="-0.7401">
        <ele>1404.01</ele>
        <time>2024-05-29T14:37:21.688Z</time>
      </trkpt>
      <trkpt lat="42.99734" lon="-0.73998">
        <ele>1402.55</ele>
        <time>2024-05-29T14:37:28.505Z</time>
      </trkpt>
      <trkpt lat="42.99759" lon="-0.73965">
        <ele>1400.98</ele>
        <time>2024-05-29T14:37:35.329Z</time>
      </trkpt>
      <trkpt lat="42.9978" lon="-0.7392">
        <ele>1399.79</ele>
        <time>2024-05-29T14:37:42.160Z</time>
      </trkpt>
      <trkpt lat="42.99814" lon="-0.7388">
        <ele>1398.08</ele>
        <time>2024-05-29T14:37:48.999Z</time>
      </trkpt>
      <trkpt lat="42.99848" lon="-0.7383">
        <ele>1396.31</ele>
        <time>2024-05-29T14:37:55.848Z</time>
      </trkpt>
      <trkpt lat="42.99879" lon="-0.7379">
        <ele>1394.93</ele>
        <time>2024-05-29T14:38:02.705Z</time>
      </trkpt>
      <trkpt lat="42.999" lon="-0.73766">
        <ele>1393.41</ele>
        <time>2024-05-29T14:38:09.567Z</time>
      </trkpt>
      <trkpt lat="42.99916" lon="-0.73752">
        <ele>1391.89</ele>
        <time>2024-05-29T14:38:16.432Z</time>
      </trkpt>
      <trkpt lat="42.99999" lon="-0.73697">
        <ele>1390.28</ele>
        <time>2024-05-29T14:38:23.315Z</time>
      </trkpt>
      <trkpt lat="43.00033" lon="-0.73664">
        <ele>1388.39</ele>
        <time>2024-05-29T14:38:30.205Z</time>
      </trkpt>
      <trkpt lat="43.00082" lon="-0.73602">
        <ele>1386.53</ele>
        <time>2024-05-29T14:38:37.108Z</time>
      </trkpt>
      <trkpt lat="43.00091" lon="-0.73587">
        <ele>1384.88</ele>
        <time>2024-05-29T14:38:44.013Z</time>
      </trkpt>
      <trkpt lat="43.00097" lon="-0.7357">
        <ele>1383.26</ele>
        <time>2024-05-29T14:38:50.921Z</time>
      </trkpt>
      <trkpt lat="43.00116" lon="-0.73481">
        <ele>1381.41</ele>
        <time>2024-05-29T14:38:57.842Z</time>
      </trkpt>
      <trkpt lat="43.00124" lon="-0.73458">
        <ele>1379.7</ele>
        <time>2024-05-29T14:39:04.766Z</time>
      </trkpt>
      <trkpt lat="43.00152" lon="-0.73395">
        <ele>1377.93</ele>
        <time>2024-05-29T14:39:11.700Z</time>
      </trkpt>
      <trkpt lat="43.00169" lon="-0.73342">
        <ele>1376.21</ele>
        <time>2024-05-29T14:39:18.642Z</time>
      </trkpt>
      <trkpt lat="43.00176" lon="-0.73329">
        <ele>1374.47</ele>
        <time>2024-05-29T14:39:25.586Z</time>
      </trkpt>
      <trkpt lat="43.00193" lon="-0.73305">
        <ele>1372.67</ele>
        <time>2024-05-29T14:39:32.535Z</time>
      </trkpt>
      <trkpt lat="43.00228" lon="-0.73258">
        <ele>1370.91</ele>
        <time>2024-05-29T14:39:39.493Z</time>
      </trkpt>
      <trkpt lat="43.00286" lon="-0.73192">
        <ele>1369</ele>
        <time>2024-05-29T14:39:46.465Z</time>
      </trkpt>
      <trkpt lat="43.00304" lon="-0.73174">
        <ele>1367.37</ele>
        <time>2024-05-29T14:39:53.441Z</time>
      </trkpt>
      <trkpt lat="43.00324" lon="-0.7316">
        <ele>1365.76</ele>
        <time>2024-05-29T14:40:00.421Z</time>
      </trkpt>
      <trkpt lat="43.0036" lon="-0.73141">
        <ele>1364.09</ele>
        <time>2024-05-29T14:40:07.408Z</time>
      </trkpt>
      <trkpt lat="43.00361" lon="-0.73124">
        <ele>1362.66</ele>
        <time>2024-05-29T14:40:14.398Z</time>
      </trkpt>
      <trkpt lat="43.00366" lon="-0.73107">
        <ele>1361.19</ele>
        <time>2024-05-29T14:40:21.390Z</time>
      </trkpt>
      <trkpt lat="43.00383" lon="-0.73086">
        <ele>1359.85</ele>
        <time>2024-05-29T14:40:28.387Z</time>
      </trkpt>
      <trkpt lat="43.00391" lon="-0.73073">
        <ele>1358.52</ele>
        <time>2024-05-29T14:40:35.386Z</time>
      </trkpt>
      <trkpt lat="43.00396" lon="-0.73059">
        <ele>1357.13</ele>
        <time>2024-05-29T14:40:42.387Z</time>
      </trkpt>
      <trkpt lat="43.00401" lon="-0.73029">
        <ele>1355.7</ele>
        <time>2024-05-29T14:40:49.392Z</time>
      </trkpt>
      <trkpt lat="43.00403" lon="-0.72976">
        <ele>1354</ele>
        <time>2024-05-29T14:40:56.404Z</time>
      </trkpt>
      <trkpt lat="43.00412" lon="-0.72933">
        <ele>1352.13</ele>
        <time>2024-05-29T14:41:03.423Z</time>
      </trkpt>
      <trkpt lat="43.00419" lon="-0.72918">
        <ele>1350.51</ele>
        <time>2024-05-29T14:41:10.444Z</time>
      </trkpt>
      <trkpt lat="43.00428" lon="-0.72907">
        <ele>1348.94</ele>
        <time>2024-05-29T14:41:17.467Z</time>
      </trkpt>
      <trkpt lat="43.00438" lon="-0.729">
        <ele>1347.37</ele>
        <time>2024-05-29T14:41:24.492Z</time>
      </trkpt>
      <trkpt lat="43.00473" lon="-0.72883">
        <ele>1345.67</ele>
        <time>2024-05-29T14:41:31.524Z</time>
      </trkpt>
      <trkpt lat="43.00494" lon="-0.72877">
        <ele>1344.08</ele>
        <time>2024-05-29T14:41:38.560Z</time>
      </trkpt>
      <trkpt lat="43.00513" lon="-0.7288">
        <ele>1342.65</ele>
        <time>2024-05-29T14:41:45.600Z</time>
      </trkpt>
      <trkpt lat="43.0052" lon="-0.72879">
        <ele>1341.11</ele>
        <time>2024-05-29T14:41:52.641Z</time>
      </trkpt>
      <trkpt lat="43.00528" lon="-0.72872">
        <ele>1339.46</ele>
        <time>2024-05-29T14:41:59.684Z</time>
      </trkpt>
      <trkpt lat="43.00541" lon="-0.72856">
        <ele>1337.72</ele>
        <time>2024-05-29T14:42:06.730Z</time>
      </trkpt>
      <trkpt lat="43.00552" lon="-0.72847">
        <ele>1336.1</ele>
        <time>2024-05-29T14:42:13.779Z</time>
      </trkpt>
      <trkpt lat="43.00557" lon="-0.72837">
        <ele>1334.38</ele>
        <time>2024-05-29T14:42:20.829Z</time>
      </trkpt>
      <trkpt lat="43.00559" lon="-0.72816">
        <ele>1332.63</ele>
        <time>2024-05-29T14:42:27.882Z</time>
      </trkpt>
      <trkpt lat="43.00572" lon="-0.72776">
        <ele>1331</ele>
        <time>2024-05-29T14:42:34.941Z</time>
      </trkpt>
      <trkpt lat="43.00572" lon="-0.72768">
        <ele>1329.26</ele>
        <time>2024-05-29T14:42:42.001Z</time>
      </trkpt>
      <trkpt lat="43.00569" lon="-0.72762">
        <ele>1327.44</ele>
        <time>2024-05-29T14:42:49.062Z</time>
      </trkpt>
      <trkpt lat="43.00547" lon="-0.7276">
        <ele>1325.35</ele>
        <time>2024-05-29T14:42:56.127Z</time>
      </trkpt>
      <trkpt lat="43.00366" lon="-0.72682">
        <ele>1322.72</ele>
        <time>2024-05-29T14:43:03.228Z</time>
      </trkpt>
      <trkpt lat="43.00352" lon="-0.7267">
        <ele>1320.82</ele>
        <time>2024-05-29T14:43:10.332Z</time>
      </trkpt>
      <trkpt lat="43.00341" lon="-0.72652">
        <ele>1318.9</ele>
        <time>2024-05-29T14:43:17.439Z</time>
      </trkpt>
      <trkpt lat="43.00338" lon="-0.72642">
        <ele>1317.05</ele>
        <time>2024-05-29T14:43:24.547Z</time>
      </trkpt>
      <trkpt lat="43.00339" lon="-0.72631">
        <ele>1315.24</ele>
        <time>2024-05-29T14:43:31.657Z</time>
      </trkpt>
      <trkpt lat="43.00371" lon="-0.72549">
        <ele>1313.39</ele>
        <time>2024-05-29T14:43:38.779Z</time>
      </trkpt>
      <trkpt lat="43.0038" lon="-0.72534">
        <ele>1311.61</ele>
        <time>2024-05-29T14:43:45.904Z</time>
      </trkpt>
      <trkpt lat="43.00379" lon="-0.72527">
        <ele>1309.85</ele>
        <time>2024-05-29T14:43:53.030Z</time>
      </trkpt>
      <trkpt lat="43.00375" lon="-0.72522">
        <ele>1308.13</ele>
        <time>2024-05-29T14:44:00.157Z</time>
      </trkpt>
      <trkpt lat="43.00369" lon="-0.7252">
        <ele>1306.45</ele>
        <time>2024-05-29T14:44:07.285Z</time>
      </trkpt>
      <trkpt lat="43.00358" lon="-0.72521">
        <ele>1304.82</ele>
        <time>2024-05-29T14:44:14.415Z</time>
      </trkpt>
      <trkpt lat="43.00256" lon="-0.72537">
        <ele>1303.05</ele>
        <time>2024-05-29T14:44:21.564Z</time>
      </trkpt>
      <trkpt lat="43.00242" lon="-0.72534">
        <ele>1301.54</ele>
        <time>2024-05-29T14:44:28.716Z</time>
      </trkpt>
      <trkpt lat="43.00238" lon="-0.72529">
        <ele>1300.13</ele>
        <time>2024-05-29T14:44:35.869Z</time>
      </trkpt>
      <trkpt lat="43.00237" lon="-0.72522">
        <ele>1298.77</ele>
        <time>2024-05-29T14:44:43.023Z</time>
      </trkpt>
      <trkpt lat="43.00243" lon="-0.7251">
        <ele>1297.51</ele>
        <time>2024-05-29T14:44:50.179Z</time>
      </trkpt>
      <trkpt lat="43.00305" lon="-0.72463">
        <ele>1296.07</ele>
        <time>2024-05-29T14:44:57.348Z</time>
      </trkpt>
      <trkpt lat="43.00326" lon="-0.72452">
        <ele>1294.7</ele>
        <time>2024-05-29T14:45:04.521Z</time>
      </trkpt>
      <trkpt lat="43.00337" lon="-0.7245">
        <ele>1293.52</ele>
        <time>2024-05-29T14:45:11.696Z</time>
      </trkpt>
      <trkpt lat="43.00345" lon="-0.72451">
        <ele>1292.43</ele>
        <time>2024-05-29T14:45:18.873Z</time>
      </trkpt>
      <trkpt lat="43.00353" lon="-0.72454">
        <ele>1291.43</ele>
        <time>2024-05-29T14:45:26.051Z</time>
      </trkpt>
      <trkpt lat="43.00365" lon="-0.72463">
        <ele>1290.57</ele>
        <time>2024-05-29T14:45:33.232Z</time>
      </trkpt>
      <trkpt lat="43.00383" lon="-0.72472">
        <ele>1289.77</ele>
        <time>2024-05-29T14:45:40.417Z</time>
      </trkpt>
      <trkpt lat="43.004" lon="-0.72476">
        <ele>1289</ele>
        <time>2024-05-29T14:45:47.605Z</time>
      </trkpt>
      <trkpt lat="43.00405" lon="-0.72475">
        <ele>1288.03</ele>
        <time>2024-05-29T14:45:54.794Z</time>
      </trkpt>
      <trkpt lat="43.00409" lon="-0.72471">
        <ele>1286.99</ele>
        <time>2024-05-29T14:46:01.984Z</time>
      </trkpt>
      <trkpt lat="43.00429" lon="-0.72434">
        <ele>1285.48</ele>
        <time>2024-05-29T14:46:09.180Z</time>
      </trkpt>
      <trkpt lat="43.00438" lon="-0.72424">
        <ele>1284.38</ele>
        <time>2024-05-29T14:46:16.378Z</time>
      </trkpt>
      <trkpt lat="43.00466" lon="-0.72415">
        <ele>1283.52</ele>
        <time>2024-05-29T14:46:23.581Z</time>
      </trkpt>
      <trkpt lat="43.00487" lon="-0.72401">
        <ele>1282.44</ele>
        <time>2024-05-29T14:46:30.789Z</time>
      </trkpt>
      <trkpt lat="43.00505" lon="-0.724">
        <ele>1281.5</ele>
        <time>2024-05-29T14:46:38.000Z</time>
      </trkpt>
      <trkpt lat="43.00514" lon="-0.72391">
        <ele>1280.26</ele>
        <time>2024-05-29T14:46:45.213Z</time>
      </trkpt>
      <trkpt lat="43.00522" lon="-0.72376">
        <ele>1278.89</ele>
        <time>2024-05-29T14:46:52.429Z</time>
      </trkpt>
      <trkpt lat="43.00531" lon="-0.72343">
        <ele>1277.17</ele>
        <time>2024-05-29T14:46:59.650Z</time>
      </trkpt>
      <trkpt lat="43.00553" lon="-0.72312">
        <ele>1275.64</ele>
        <time>2024-05-29T14:47:06.876Z</time>
      </trkpt>
      <trkpt lat="43.00577" lon="-0.7227">
        <ele>1273.94</ele>
        <time>2024-05-29T14:47:14.110Z</time>
      </trkpt>
      <trkpt lat="43.00591" lon="-0.72258">
        <ele>1272.55</ele>
        <time>2024-05-29T14:47:21.347Z</time>
      </trkpt>
      <trkpt lat="43.00597" lon="-0.72242">
        <ele>1271.01</ele>
        <time>2024-05-29T14:47:28.586Z</time>
      </trkpt>
      <trkpt lat="43.00596" lon="-0.72202">
        <ele>1269.23</ele>
        <time>2024-05-29T14:47:35.831Z</time>
      </trkpt>
      <trkpt lat="43.00602" lon="-0.7215">
        <ele>1267.64</ele>
        <time>2024-05-29T14:47:43.083Z</time>
      </trkpt>
      <trkpt lat="43.00597" lon="-0.72128">
        <ele>1265.84</ele>
        <time>2024-05-29T14:47:50.338Z</time>
      </trkpt>
      <trkpt lat="43.00583" lon="-0.72096">
        <ele>1263.75</ele>
        <time>2024-05-29T14:47:57.598Z</time>
      </trkpt>
      <trkpt lat="43.00583" lon="-0.72081">
        <ele>1261.94</ele>
        <time>2024-05-29T14:48:04.860Z</time>
      </trkpt>
      <trkpt lat="43.00587" lon="-0.72068">
        <ele>1260.23</ele>
        <time>2024-05-29T14:48:12.124Z</time>
      </trkpt>
      <trkpt lat="43.00599" lon="-0.72038">
        <ele>1258.67</ele>
        <time>2024-05-29T14:48:19.393Z</time>
      </trkpt>
      <trkpt lat="43.00601" lon="-0.72024">
        <ele>1256.8</ele>
        <time>2024-05-29T14:48:26.664Z</time>
      </trkpt>
      <trkpt lat="43.00599" lon="-0.72011">
        <ele>1254.79</ele>
        <time>2024-05-29T14:48:33.937Z</time>
      </trkpt>
      <trkpt lat="43.00591" lon="-0.71992">
        <ele>1252.47</ele>
        <time>2024-05-29T14:48:41.213Z</time>
      </trkpt>
      <trkpt lat="43.00549" lon="-0.71933">
        <ele>1249.07</ele>
        <time>2024-05-29T14:48:48.500Z</time>
      </trkpt>
      <trkpt lat="43.00547" lon="-0.71927">
        <ele>1246.96</ele>
        <time>2024-05-29T14:48:55.788Z</time>
      </trkpt>
      <trkpt lat="43.00547" lon="-0.71918">
        <ele>1244.86</ele>
        <time>2024-05-29T14:49:03.077Z</time>
      </trkpt>
      <trkpt lat="43.00555" lon="-0.71906">
        <ele>1242.9</ele>
        <time>2024-05-29T14:49:10.368Z</time>
      </trkpt>
      <trkpt lat="43.00569" lon="-0.71888">
        <ele>1241.01</ele>
        <time>2024-05-29T14:49:17.663Z</time>
      </trkpt>
      <trkpt lat="43.00596" lon="-0.71872">
        <ele>1239.51</ele>
        <time>2024-05-29T14:49:24.963Z</time>
      </trkpt>
      <trkpt lat="43.00602" lon="-0.71863">
        <ele>1237.5</ele>
        <time>2024-05-29T14:49:32.265Z</time>
      </trkpt>
      <trkpt lat="43.00603" lon="-0.71852">
        <ele>1235.36</ele>
        <time>2024-05-29T14:49:39.568Z</time>
      </trkpt>
      <trkpt lat="43.00601" lon="-0.71841">
        <ele>1233.13</ele>
        <time>2024-05-29T14:49:46.873Z</time>
      </trkpt>
      <trkpt lat="43.00589" lon="-0.71814">
        <ele>1230.56</ele>
        <time>2024-05-29T14:49:54.182Z</time>
      </trkpt>
      <trkpt lat="43.00583" lon="-0.71794">
        <ele>1228.24</ele>
        <time>2024-05-29T14:50:01.494Z</time>
      </trkpt>
      <trkpt lat="43.00585" lon="-0.71774">
        <ele>1226.17</ele>
        <time>2024-05-29T14:50:08.809Z</time>
      </trkpt>
      <trkpt lat="43.00602" lon="-0.71721">
        <ele>1224.16</ele>
        <time>2024-05-29T14:50:16.132Z</time>
      </trkpt>
      <trkpt lat="43.00632" lon="-0.71668">
        <ele>1222.24</ele>
        <time>2024-05-29T14:50:23.464Z</time>
      </trkpt>
      <trkpt lat="43.00636" lon="-0.71649">
        <ele>1219.98</ele>
        <time>2024-05-29T14:50:30.799Z</time>
      </trkpt>
      <trkpt lat="43.00636" lon="-0.71643">
        <ele>1217.84</ele>
        <time>2024-05-29T14:50:38.134Z</time>
      </trkpt>
      <trkpt lat="43.00631" lon="-0.71638">
        <ele>1215.61</ele>
        <time>2024-05-29T14:50:45.471Z</time>
      </trkpt>
      <trkpt lat="43.00624" lon="-0.71638">
        <ele>1213.48</ele>
        <time>2024-05-29T14:50:52.809Z</time>
      </trkpt>
      <trkpt lat="43.00606" lon="-0.71661">
        <ele>1211.42</ele>
        <time>2024-05-29T14:51:00.151Z</time>
      </trkpt>
      <trkpt lat="43.00595" lon="-0.71669">
        <ele>1209.33</ele>
        <time>2024-05-29T14:51:07.496Z</time>
      </trkpt>
      <trkpt lat="43.00567" lon="-0.71677">
        <ele>1207.01</ele>
        <time>2024-05-29T14:51:14.846Z</time>
      </trkpt>
      <trkpt lat="43.0055" lon="-0.71693">
        <ele>1204.97</ele>
        <time>2024-05-29T14:51:22.200Z</time>
      </trkpt>
      <trkpt lat="43.00528" lon="-0.71733">
        <ele>1202.88</ele>
        <time>2024-05-29T14:51:29.561Z</time>
      </trkpt>
      <trkpt lat="43.00524" lon="-0.71734">
        <ele>1200.92</ele>
        <time>2024-05-29T14:51:36.923Z</time>
      </trkpt>
      <trkpt lat="43.0052" lon="-0.71733">
        <ele>1198.98</ele>
        <time>2024-05-29T14:51:44.285Z</time>
      </trkpt>
      <trkpt lat="43.00515" lon="-0.71717">
        <ele>1197.01</ele>
        <time>2024-05-29T14:51:51.650Z</time>
      </trkpt>
      <trkpt lat="43.00519" lon="-0.71691">
        <ele>1195.11</ele>
        <time>2024-05-29T14:51:59.018Z</time>
      </trkpt>
      <trkpt lat="43.0055" lon="-0.71604">
        <ele>1193.02</ele>
        <time>2024-05-29T14:52:06.400Z</time>
      </trkpt>
      <trkpt lat="43.00558" lon="-0.71591">
        <ele>1191.19</ele>
        <time>2024-05-29T14:52:13.784Z</time>
      </trkpt>
      <trkpt lat="43.00562" lon="-0.71585">
        <ele>1189.35</ele>
        <time>2024-05-29T14:52:21.169Z</time>
      </trkpt>
      <trkpt lat="43.0059" lon="-0.71563">
        <ele>1187.5</ele>
        <time>2024-05-29T14:52:28.560Z</time>
      </trkpt>
      <trkpt lat="43.00622" lon="-0.71544">
        <ele>1185.83</ele>
        <time>2024-05-29T14:52:35.957Z</time>
      </trkpt>
      <trkpt lat="43.00625" lon="-0.7154">
        <ele>1184.02</ele>
        <time>2024-05-29T14:52:43.355Z</time>
      </trkpt>
      <trkpt lat="43.00626" lon="-0.71535">
        <ele>1182.16</ele>
        <time>2024-05-29T14:52:50.754Z</time>
      </trkpt>
      <trkpt lat="43.00623" lon="-0.71526">
        <ele>1180.21</ele>
        <time>2024-05-29T14:52:58.154Z</time>
      </trkpt>
      <trkpt lat="43.00614" lon="-0.71526">
        <ele>1178.32</ele>
        <time>2024-05-29T14:53:05.556Z</time>
      </trkpt>
      <trkpt lat="43.00597" lon="-0.71535">
        <ele>1176.46</ele>
        <time>2024-05-29T14:53:12.961Z</time>
      </trkpt>
      <trkpt lat="43.0056" lon="-0.71528">
        <ele>1174.38</ele>
        <time>2024-05-29T14:53:20.373Z</time>
      </trkpt>
      <trkpt lat="43.00541" lon="-0.71535">
        <ele>1172.57</ele>
        <time>2024-05-29T14:53:27.789Z</time>
      </trkpt>
      <trkpt lat="43.0053" lon="-0.71546">
        <ele>1170.71</ele>
        <time>2024-05-29T14:53:35.207Z</time>
      </trkpt>
      <trkpt lat="43.00518" lon="-0.71565">
        <ele>1168.86</ele>
        <time>2024-05-29T14:53:42.629Z</time>
      </trkpt>
      <trkpt lat="43.00505" lon="-0.71595">
        <ele>1166.91</ele>
        <time>2024-05-29T14:53:50.056Z</time>
      </trkpt>
      <trkpt lat="43.00485" lon="-0.71652">
        <ele>1164.98</ele>
        <time>2024-05-29T14:53:57.491Z</time>
      </trkpt>
      <trkpt lat="43.00479" lon="-0.71659">
        <ele>1162.92</ele>
        <time>2024-05-29T14:54:04.928Z</time>
      </trkpt>
      <trkpt lat="43.00475" lon="-0.71658">
        <ele>1160.79</ele>
        <time>2024-05-29T14:54:12.366Z</time>
      </trkpt>
      <trkpt lat="43.00472" lon="-0.71654">
        <ele>1158.64</ele>
        <time>2024-05-29T14:54:19.804Z</time>
      </trkpt>
      <trkpt lat="43.00503" lon="-0.71547">
        <ele>1156.49</ele>
        <time>2024-05-29T14:54:27.258Z</time>
      </trkpt>
      <trkpt lat="43.00506" lon="-0.71524">
        <ele>1154.26</ele>
        <time>2024-05-29T14:54:34.715Z</time>
      </trkpt>
      <trkpt lat="43.00523" lon="-0.71476">
        <ele>1151.81</ele>
        <time>2024-05-29T14:54:42.179Z</time>
      </trkpt>
      <trkpt lat="43.00537" lon="-0.71432">
        <ele>1149.19</ele>
        <time>2024-05-29T14:54:49.650Z</time>
      </trkpt>
      <trkpt lat="43.00543" lon="-0.71422">
        <ele>1146.91</ele>
        <time>2024-05-29T14:54:57.123Z</time>
      </trkpt>
      <trkpt lat="43.00591" lon="-0.71415">
        <ele>1144.46</ele>
        <time>2024-05-29T14:55:04.605Z</time>
      </trkpt>
      <trkpt lat="43.00637" lon="-0.714">
        <ele>1142.25</ele>
        <time>2024-05-29T14:55:12.096Z</time>
      </trkpt>
      <trkpt lat="43.00652" lon="-0.71391">
        <ele>1140</ele>
        <time>2024-05-29T14:55:19.590Z</time>
      </trkpt>
      <trkpt lat="43.00662" lon="-0.71376">
        <ele>1137.72</ele>
        <time>2024-05-29T14:55:27.086Z</time>
      </trkpt>
      <trkpt lat="43.00675" lon="-0.71332">
        <ele>1135.21</ele>
        <time>2024-05-29T14:55:34.589Z</time>
      </trkpt>
      <trkpt lat="43.00681" lon="-0.71293">
        <ele>1132.61</ele>
        <time>2024-05-29T14:55:42.097Z</time>
      </trkpt>
      <trkpt lat="43.00702" lon="-0.71248">
        <ele>1130.17</ele>
        <time>2024-05-29T14:55:49.613Z</time>
      </trkpt>
      <trkpt lat="43.00712" lon="-0.71194">
        <ele>1127.31</ele>
        <time>2024-05-29T14:55:57.136Z</time>
      </trkpt>
      <trkpt lat="43.0072" lon="-0.71186">
        <ele>1125.03</ele>
        <time>2024-05-29T14:56:04.661Z</time>
      </trkpt>
      <trkpt lat="43.00734" lon="-0.71178">
        <ele>1122.87</ele>
        <time>2024-05-29T14:56:12.189Z</time>
      </trkpt>
      <trkpt lat="43.00745" lon="-0.71168">
        <ele>1120.57</ele>
        <time>2024-05-29T14:56:19.719Z</time>
      </trkpt>
      <trkpt lat="43.00757" lon="-0.71145">
        <ele>1118.06</ele>
        <time>2024-05-29T14:56:27.253Z</time>
      </trkpt>
      <trkpt lat="43.0077" lon="-0.71082">
        <ele>1115.03</ele>
        <time>2024-05-29T14:56:34.796Z</time>
      </trkpt>
      <trkpt lat="43.0079" lon="-0.71044">
        <ele>1112.58</ele>
        <time>2024-05-29T14:56:42.345Z</time>
      </trkpt>
      <trkpt lat="43.0079" lon="-0.71038">
        <ele>1110.09</ele>
        <time>2024-05-29T14:56:49.895Z</time>
      </trkpt>
      <trkpt lat="43.00787" lon="-0.71033">
        <ele>1107.55</ele>
        <time>2024-05-29T14:56:57.446Z</time>
      </trkpt>
      <trkpt lat="43.00783" lon="-0.71032">
        <ele>1105.01</ele>
        <time>2024-05-29T14:57:04.998Z</time>
      </trkpt>
      <trkpt lat="43.00778" lon="-0.71035">
        <ele>1102.49</ele>
        <time>2024-05-29T14:57:12.551Z</time>
      </trkpt>
      <trkpt lat="43.00763" lon="-0.71055">
        <ele>1099.96</ele>
        <time>2024-05-29T14:57:20.108Z</time>
      </trkpt>
      <trkpt lat="43.00753" lon="-0.71083">
        <ele>1097.61</ele>
        <time>2024-05-29T14:57:27.669Z</time>
      </trkpt>
      <trkpt lat="43.00742" lon="-0.71093">
        <ele>1095.08</ele>
        <time>2024-05-29T14:57:35.233Z</time>
      </trkpt>
      <trkpt lat="43.00716" lon="-0.71109">
        <ele>1092.36</ele>
        <time>2024-05-29T14:57:42.802Z</time>
      </trkpt>
      <trkpt lat="43.00675" lon="-0.71169">
        <ele>1089.75</ele>
        <time>2024-05-29T14:57:50.382Z</time>
      </trkpt>
      <trkpt lat="43.0065" lon="-0.71201">
        <ele>1087.09</ele>
        <time>2024-05-29T14:57:57.968Z</time>
      </trkpt>
      <trkpt lat="43.00638" lon="-0.71211">
        <ele>1084.54</ele>
        <time>2024-05-29T14:58:05.557Z</time>
      </trkpt>
      <trkpt lat="43.00628" lon="-0.71217">
        <ele>1081.98</ele>
        <time>2024-05-29T14:58:13.148Z</time>
      </trkpt>
      <trkpt lat="43.00595" lon="-0.71227">
        <ele>1079.16</ele>
        <time>2024-05-29T14:58:20.745Z</time>
      </trkpt>
      <trkpt lat="43.00566" lon="-0.71254">
        <ele>1076.64</ele>
        <time>2024-05-29T14:58:28.349Z</time>
      </trkpt>
      <trkpt lat="43.00551" lon="-0.71261">
        <ele>1074.15</ele>
        <time>2024-05-29T14:58:35.956Z</time>
      </trkpt>
      <trkpt lat="43.00527" lon="-0.71266">
        <ele>1071.58</ele>
        <time>2024-05-29T14:58:43.567Z</time>
      </trkpt>
      <trkpt lat="43.00496" lon="-0.71262">
        <ele>1068.8</ele>
        <time>2024-05-29T14:58:51.184Z</time>
      </trkpt>
      <trkpt lat="43.00486" lon="-0.71272">
        <ele>1066.47</ele>
        <time>2024-05-29T14:58:58.803Z</time>
      </trkpt>
      <trkpt lat="43.00472" lon="-0.71296">
        <ele>1064.24</ele>
        <time>2024-05-29T14:59:06.427Z</time>
      </trkpt>
      <trkpt lat="43.00446" lon="-0.71309">
        <ele>1061.62</ele>
        <time>2024-05-29T14:59:14.056Z</time>
      </trkpt>
      <trkpt lat="43.00431" lon="-0.71338">
        <ele>1059.57</ele>
        <time>2024-05-29T14:59:21.690Z</time>
      </trkpt>
      <trkpt lat="43.00414" lon="-0.71354">
        <ele>1057.19</ele>
        <time>2024-05-29T14:59:29.328Z</time>
      </trkpt>
      <trkpt lat="43.00402" lon="-0.71388">
        <ele>1055.18</ele>
        <time>2024-05-29T14:59:36.971Z</time>
      </trkpt>
      <trkpt lat="43.00393" lon="-0.71397">
        <ele>1052.98</ele>
        <time>2024-05-29T14:59:44.616Z</time>
      </trkpt>
      <trkpt lat="43.00316" lon="-0.7145">
        <ele>1050.13</ele>
        <time>2024-05-29T14:59:52.277Z</time>
      </trkpt>
      <trkpt lat="43.00288" lon="-0.71455">
        <ele>1047.79</ele>
        <time>2024-05-29T14:59:59.943Z</time>
      </trkpt>
      <trkpt lat="43.00281" lon="-0.71464">
        <ele>1045.85</ele>
        <time>2024-05-29T15:00:07.611Z</time>
      </trkpt>
      <trkpt lat="43.00274" lon="-0.71478">
        <ele>1044.02</ele>
        <time>2024-05-29T15:00:15.281Z</time>
      </trkpt>
      <trkpt lat="43.00261" lon="-0.71513">
        <ele>1042.26</ele>
        <time>2024-05-29T15:00:22.956Z</time>
      </trkpt>
      <trkpt lat="43.00239" lon="-0.7153">
        <ele>1040.37</ele>
        <time>2024-05-29T15:00:30.636Z</time>
      </trkpt>
      <trkpt lat="43.00225" lon="-0.71546">
        <ele>1038.63</ele>
        <time>2024-05-29T15:00:38.320Z</time>
      </trkpt>
      <trkpt lat="43.0022" lon="-0.71556">
        <ele>1037.04</ele>
        <time>2024-05-29T15:00:46.005Z</time>
      </trkpt>
      <trkpt lat="43.00217" lon="-0.71566">
        <ele>1035.51</ele>
        <time>2024-05-29T15:00:53.692Z</time>
      </trkpt>
      <trkpt lat="43.00219" lon="-0.71577">
        <ele>1034.08</ele>
        <time>2024-05-29T15:01:01.380Z</time>
      </trkpt>
      <trkpt lat="43.0024" lon="-0.71636">
        <ele>1032.9</ele>
        <time>2024-05-29T15:01:09.077Z</time>
      </trkpt>
      <trkpt lat="43.00238" lon="-0.71655">
        <ele>1031.45</ele>
        <time>2024-05-29T15:01:16.777Z</time>
      </trkpt>
      <trkpt lat="43.00228" lon="-0.71669">
        <ele>1029.96</ele>
        <time>2024-05-29T15:01:24.480Z</time>
      </trkpt>
      <trkpt lat="43.00202" lon="-0.71684">
        <ele>1028.36</ele>
        <time>2024-05-29T15:01:32.188Z</time>
      </trkpt>
      <trkpt lat="43.00191" lon="-0.71683">
        <ele>1026.91</ele>
        <time>2024-05-29T15:01:39.898Z</time>
      </trkpt>
      <trkpt lat="43.00178" lon="-0.71674">
        <ele>1025.37</ele>
        <time>2024-05-29T15:01:47.611Z</time>
      </trkpt>
      <trkpt lat="43.00167" lon="-0.71671">
        <ele>1024.01</ele>
        <time>2024-05-29T15:01:55.326Z</time>
      </trkpt>
      <trkpt lat="43.00157" lon="-0.71674">
        <ele>1022.69</ele>
        <time>2024-05-29T15:02:03.043Z</time>
      </trkpt>
      <trkpt lat="43.00149" lon="-0.71682">
        <ele>1021.39</ele>
        <time>2024-05-29T15:02:10.761Z</time>
      </trkpt>
      <trkpt lat="43.00138" lon="-0.71716">
        <ele>1020.23</ele>
        <time>2024-05-29T15:02:18.484Z</time>
      </trkpt>
      <trkpt lat="43.00131" lon="-0.71721">
        <ele>1018.88</ele>
        <time>2024-05-29T15:02:26.209Z</time>
      </trkpt>
      <trkpt lat="43.00125" lon="-0.71721">
        <ele>1017.46</ele>
        <time>2024-05-29T15:02:33.935Z</time>
      </trkpt>
      <trkpt lat="43.00118" lon="-0.71715">
        <ele>1015.99</ele>
        <time>2024-05-29T15:02:41.663Z</time>
      </trkpt>
      <trkpt lat="43.00112" lon="-0.71705">
        <ele>1014.46</ele>
        <time>2024-05-29T15:02:49.392Z</time>
      </trkpt>
      <trkpt lat="43.00105" lon="-0.71667">
        <ele>1012.75</ele>
        <time>2024-05-29T15:02:57.127Z</time>
      </trkpt>
      <trkpt lat="43.00106" lon="-0.71643">
        <ele>1011.13</ele>
        <time>2024-05-29T15:03:04.865Z</time>
      </trkpt>
      <trkpt lat="43.00098" lon="-0.7161">
        <ele>1009.23</ele>
        <time>2024-05-29T15:03:12.608Z</time>
      </trkpt>
      <trkpt lat="43.00084" lon="-0.71597">
        <ele>1007.66</ele>
        <time>2024-05-29T15:03:20.354Z</time>
      </trkpt>
      <trkpt lat="43.00061" lon="-0.71591">
        <ele>1006.21</ele>
        <time>2024-05-29T15:03:28.104Z</time>
      </trkpt>
      <trkpt lat="43.00036" lon="-0.71493">
        <ele>1004.33</ele>
        <time>2024-05-29T15:03:35.868Z</time>
      </trkpt>
      <trkpt lat="43.00038" lon="-0.71468">
        <ele>1002.25</ele>
        <time>2024-05-29T15:03:43.636Z</time>
      </trkpt>
      <trkpt lat="43.00045" lon="-0.71453">
        <ele>999.98</ele>
        <time>2024-05-29T15:03:51.406Z</time>
      </trkpt>
      <trkpt lat="43.00058" lon="-0.71447">
        <ele>997.44</ele>
        <time>2024-05-29T15:03:59.179Z</time>
      </trkpt>
      <trkpt lat="43.00089" lon="-0.71449">
        <ele>994.53</ele>
        <time>2024-05-29T15:04:06.958Z</time>
      </trkpt>
      <trkpt lat="43.00102" lon="-0.71442">
        <ele>991.98</ele>
        <time>2024-05-29T15:04:14.739Z</time>
      </trkpt>
      <trkpt lat="43.00112" lon="-0.71432">
        <ele>989.46</ele>
        <time>2024-05-29T15:04:22.522Z</time>
      </trkpt>
      <trkpt lat="43.00115" lon="-0.71415">
        <ele>986.89</ele>
        <time>2024-05-29T15:04:30.308Z</time>
      </trkpt>
      <trkpt lat="43.00116" lon="-0.71385">
        <ele>984.22</ele>
        <time>2024-05-29T15:04:38.098Z</time>
      </trkpt>
      <trkpt lat="43.00084" lon="-0.71299">
        <ele>981.53</ele>
        <time>2024-05-29T15:04:45.901Z</time>
      </trkpt>
      <trkpt lat="43.0006" lon="-0.71257">
        <ele>978.54</ele>
        <time>2024-05-29T15:04:53.711Z</time>
      </trkpt>
      <trkpt lat="43.00056" lon="-0.7124">
        <ele>975.85</ele>
        <time>2024-05-29T15:05:01.524Z</time>
      </trkpt>
      <trkpt lat="43.00057" lon="-0.71227">
        <ele>973.06</ele>
        <time>2024-05-29T15:05:09.339Z</time>
      </trkpt>
      <trkpt lat="43.00062" lon="-0.71216">
        <ele>970.26</ele>
        <time>2024-05-29T15:05:17.155Z</time>
      </trkpt>
      <trkpt lat="43.00069" lon="-0.7121">
        <ele>967.39</ele>
        <time>2024-05-29T15:05:24.973Z</time>
      </trkpt>
      <trkpt lat="43.00081" lon="-0.7121">
        <ele>964.46</ele>
        <time>2024-05-29T15:05:32.793Z</time>
      </trkpt>
      <trkpt lat="43.00122" lon="-0.71223">
        <ele>961.4</ele>
        <time>2024-05-29T15:05:40.621Z</time>
      </trkpt>
      <trkpt lat="43.00139" lon="-0.71222">
        <ele>958.36</ele>
        <time>2024-05-29T15:05:48.452Z</time>
      </trkpt>
      <trkpt lat="43.00145" lon="-0.71217">
        <ele>955.36</ele>
        <time>2024-05-29T15:05:56.284Z</time>
      </trkpt>
      <trkpt lat="43.00152" lon="-0.71204">
        <ele>952.28</ele>
        <time>2024-05-29T15:06:04.119Z</time>
      </trkpt>
      <trkpt lat="43.00154" lon="-0.71186">
        <ele>949.26</ele>
        <time>2024-05-29T15:06:11.956Z</time>
      </trkpt>
      <trkpt lat="43.00143" lon="-0.71134">
        <ele>946.35</ele>
        <time>2024-05-29T15:06:19.801Z</time>
      </trkpt>
      <trkpt lat="43.00147" lon="-0.71083">
        <ele>943.15</ele>
        <time>2024-05-29T15:06:27.653Z</time>
      </trkpt>
      <trkpt lat="43.00143" lon="-0.71018">
        <ele>939.88</ele>
        <time>2024-05-29T15:06:35.513Z</time>
      </trkpt>
      <trkpt lat="43.00146" lon="-0.7101">
        <ele>936.89</ele>
        <time>2024-05-29T15:06:43.375Z</time>
      </trkpt>
      <trkpt lat="43.00151" lon="-0.71005">
        <ele>933.92</ele>
        <time>2024-05-29T15:06:51.238Z</time>
      </trkpt>
      <trkpt lat="43.00176" lon="-0.71004">
        <ele>930.87</ele>
        <time>2024-05-29T15:06:59.105Z</time>
      </trkpt>
      <trkpt lat="43.00204" lon="-0.70991">
        <ele>927.74</ele>
        <time>2024-05-29T15:07:06.978Z</time>
      </trkpt>
      <trkpt lat="43.0021" lon="-0.70994">
        <ele>924.88</ele>
        <time>2024-05-29T15:07:14.852Z</time>
      </trkpt>
      <trkpt lat="43.00217" lon="-0.70999">
        <ele>922.04</ele>
        <time>2024-05-29T15:07:22.728Z</time>
      </trkpt>
      <trkpt lat="43.00231" lon="-0.71047">
        <ele>919.38</ele>
        <time>2024-05-29T15:07:30.611Z</time>
      </trkpt>
      <trkpt lat="43.00238" lon="-0.7105">
        <ele>916.64</ele>
        <time>2024-05-29T15:07:38.495Z</time>
      </trkpt>
      <trkpt lat="43.00245" lon="-0.71048">
        <ele>913.97</ele>
        <time>2024-05-29T15:07:46.380Z</time>
      </trkpt>
      <trkpt lat="43.0025" lon="-0.71044">
        <ele>911.34</ele>
        <time>2024-05-29T15:07:54.266Z</time>
      </trkpt>
      <trkpt lat="43.00255" lon="-0.71033">
        <ele>908.71</ele>
        <time>2024-05-29T15:08:02.154Z</time>
      </trkpt>
      <trkpt lat="43.00258" lon="-0.70992">
        <ele>906</ele>
        <time>2024-05-29T15:08:10.048Z</time>
      </trkpt>
      <trkpt lat="43.00242" lon="-0.70787">
        <ele>903.35</ele>
        <time>2024-05-29T15:08:17.970Z</time>
      </trkpt>
      <trkpt lat="43.00242" lon="-0.70779">
        <ele>900.93</ele>
        <time>2024-05-29T15:08:25.893Z</time>
      </trkpt>
      <trkpt lat="43.00245" lon="-0.70764">
        <ele>898.54</ele>
        <time>2024-05-29T15:08:33.818Z</time>
      </trkpt>
      <trkpt lat="43.00271" lon="-0.70718">
        <ele>895.92</ele>
        <time>2024-05-29T15:08:41.751Z</time>
      </trkpt>
      <trkpt lat="43.00274" lon="-0.70701">
        <ele>893.67</ele>
        <time>2024-05-29T15:08:49.687Z</time>
      </trkpt>
      <trkpt lat="43.0027" lon="-0.70661">
        <ele>891.52</ele>
        <time>2024-05-29T15:08:57.628Z</time>
      </trkpt>
      <trkpt lat="43.00272" lon="-0.70647">
        <ele>889.48</ele>
        <time>2024-05-29T15:09:05.571Z</time>
      </trkpt>
      <trkpt lat="43.00298" lon="-0.70595">
        <ele>886.97</ele>
        <time>2024-05-29T15:09:13.523Z</time>
      </trkpt>
      <trkpt lat="43.00301" lon="-0.70572">
        <ele>885.07</ele>
        <time>2024-05-29T15:09:21.478Z</time>
      </trkpt>
      <trkpt lat="43.003" lon="-0.70551">
        <ele>883.29</ele>
        <time>2024-05-29T15:09:29.436Z</time>
      </trkpt>
      <trkpt lat="43.00287" lon="-0.70499">
        <ele>881.77</ele>
        <time>2024-05-29T15:09:37.401Z</time>
      </trkpt>
      <trkpt lat="43.00286" lon="-0.70482">
        <ele>880.17</ele>
        <time>2024-05-29T15:09:45.368Z</time>
      </trkpt>
      <trkpt lat="43.00288" lon="-0.70467">
        <ele>878.65</ele>
        <time>2024-05-29T15:09:53.338Z</time>
      </trkpt>
      <trkpt lat="43.00299" lon="-0.70451">
        <ele>877.16</ele>
        <time>2024-05-29T15:10:01.311Z</time>
      </trkpt>
      <trkpt lat="43.00304" lon="-0.70432">
        <ele>875.91</ele>
        <time>2024-05-29T15:10:09.286Z</time>
      </trkpt>
      <trkpt lat="43.00306" lon="-0.7035">
        <ele>874.85</ele>
        <time>2024-05-29T15:10:17.272Z</time>
      </trkpt>
      <trkpt lat="43.00306" lon="-0.70342">
        <ele>873.88</ele>
        <time>2024-05-29T15:10:25.260Z</time>
      </trkpt>
      <trkpt lat="43.00298" lon="-0.70309">
        <ele>872.92</ele>
        <time>2024-05-29T15:10:33.252Z</time>
      </trkpt>
      <trkpt lat="43.0029" lon="-0.70299">
        <ele>872.23</ele>
        <time>2024-05-29T15:10:41.246Z</time>
      </trkpt>
      <trkpt lat="43.0028" lon="-0.70291">
        <ele>871.63</ele>
        <time>2024-05-29T15:10:49.243Z</time>
      </trkpt>
      <trkpt lat="43.00272" lon="-0.70288">
        <ele>871.21</ele>
        <time>2024-05-29T15:10:57.241Z</time>
      </trkpt>
      <trkpt lat="43.00263" lon="-0.70289">
        <ele>870.97</ele>
        <time>2024-05-29T15:11:05.241Z</time>
      </trkpt>
      <trkpt lat="43.00259" lon="-0.70292">
        <ele>870.91</ele>
        <time>2024-05-29T15:11:13.242Z</time>
      </trkpt>
      <trkpt lat="43.00252" lon="-0.70303">
        <ele>871.05</ele>
        <time>2024-05-29T15:11:21.245Z</time>
      </trkpt>
      <trkpt lat="43.00221" lon="-0.70385">
        <ele>871.68</ele>
        <time>2024-05-29T15:11:29.260Z</time>
      </trkpt>
      <trkpt lat="43.00212" lon="-0.70389">
        <ele>872.07</ele>
        <time>2024-05-29T15:11:37.277Z</time>
      </trkpt>
      <trkpt lat="43.00204" lon="-0.70389">
        <ele>872.58</ele>
        <time>2024-05-29T15:11:45.295Z</time>
      </trkpt>
      <trkpt lat="43.00178" lon="-0.70377">
        <ele>873.13</ele>
        <time>2024-05-29T15:11:53.319Z</time>
      </trkpt>
      <trkpt lat="43.00161" lon="-0.70354">
        <ele>873.86</ele>
        <time>2024-05-29T15:12:01.347Z</time>
      </trkpt>
      <trkpt lat="43.00147" lon="-0.70324">
        <ele>874.88</ele>
        <time>2024-05-29T15:12:09.380Z</time>
      </trkpt>
      <trkpt lat="43.00143" lon="-0.70285">
        <ele>875.99</ele>
        <time>2024-05-29T15:12:17.418Z</time>
      </trkpt>
      <trkpt lat="43.00131" lon="-0.70228">
        <ele>877.27</ele>
        <time>2024-05-29T15:12:25.464Z</time>
      </trkpt>
      <trkpt lat="43.00124" lon="-0.70204">
        <ele>878.73</ele>
        <time>2024-05-29T15:12:33.514Z</time>
      </trkpt>
      <trkpt lat="43.00119" lon="-0.70195">
        <ele>880.27</ele>
        <time>2024-05-29T15:12:41.565Z</time>
      </trkpt>
      <trkpt lat="43.00115" lon="-0.70189">
        <ele>881.93</ele>
        <time>2024-05-29T15:12:49.617Z</time>
      </trkpt>
      <trkpt lat="43.00089" lon="-0.70169">
        <ele>883.79</ele>
        <time>2024-05-29T15:12:57.675Z</time>
      </trkpt>
      <trkpt lat="43.00057" lon="-0.7015">
        <ele>885.71</ele>
        <time>2024-05-29T15:13:05.740Z</time>
      </trkpt>
      <trkpt lat="43.00041" lon="-0.70148">
        <ele>887.67</ele>
        <time>2024-05-29T15:13:13.808Z</time>
      </trkpt>
      <trkpt lat="43.00028" lon="-0.70151">
        <ele>889.62</ele>
        <time>2024-05-29T15:13:21.878Z</time>
      </trkpt>
      <trkpt lat="42.99987" lon="-0.70184">
        <ele>891.67</ele>
        <time>2024-05-29T15:13:29.957Z</time>
      </trkpt>
      <trkpt lat="42.99972" lon="-0.70204">
        <ele>893.82</ele>
        <time>2024-05-29T15:13:38.040Z</time>
      </trkpt>
      <trkpt lat="42.99948" lon="-0.70248">
        <ele>896.42</ele>
        <time>2024-05-29T15:13:46.130Z</time>
      </trkpt>
      <trkpt lat="42.99936" lon="-0.70264">
        <ele>898.83</ele>
        <time>2024-05-29T15:13:54.223Z</time>
      </trkpt>
      <trkpt lat="42.9993" lon="-0.70267">
        <ele>901.02</ele>
        <time>2024-05-29T15:14:02.318Z</time>
      </trkpt>
      <trkpt lat="42.99909" lon="-0.70256">
        <ele>903.91</ele>
        <time>2024-05-29T15:14:10.417Z</time>
      </trkpt>
      <trkpt lat="42.99904" lon="-0.70242">
        <ele>906.2</ele>
        <time>2024-05-29T15:14:18.518Z</time>
      </trkpt>
      <trkpt lat="42.99905" lon="-0.70225">
        <ele>908.16</ele>
        <time>2024-05-29T15:14:26.621Z</time>
      </trkpt>
      <trkpt lat="42.99918" lon="-0.70165">
        <ele>909.17</ele>
        <time>2024-05-29T15:14:34.733Z</time>
      </trkpt>
      <trkpt lat="42.99919" lon="-0.70141">
        <ele>910.92</ele>
        <time>2024-05-29T15:14:42.848Z</time>
      </trkpt>
      <trkpt lat="42.99906" lon="-0.70039">
        <ele>912.95</ele>
        <time>2024-05-29T15:14:50.977Z</time>
      </trkpt>
      <trkpt lat="42.99906" lon="-0.70023">
        <ele>914.65</ele>
        <time>2024-05-29T15:14:59.108Z</time>
      </trkpt>
      <trkpt lat="42.99923" lon="-0.69962">
        <ele>915.78</ele>
        <time>2024-05-29T15:15:07.248Z</time>
      </trkpt>
      <trkpt lat="42.99922" lon="-0.69949">
        <ele>917.29</ele>
        <time>2024-05-29T15:15:15.390Z</time>
      </trkpt>
      <trkpt lat="42.99916" lon="-0.69941">
        <ele>918.83</ele>
        <time>2024-05-29T15:15:23.534Z</time>
      </trkpt>
      <trkpt lat="42.99814" lon="-0.69866">
        <ele>920.28</ele>
        <time>2024-05-29T15:15:31.699Z</time>
      </trkpt>
      <trkpt lat="42.99798" lon="-0.69849">
        <ele>921.66</ele>
        <time>2024-05-29T15:15:39.868Z</time>
      </trkpt>
      <trkpt lat="42.99791" lon="-0.69835">
        <ele>922.93</ele>
        <time>2024-05-29T15:15:48.039Z</time>
      </trkpt>
      <trkpt lat="42.99777" lon="-0.69792">
        <ele>924.14</ele>
        <time>2024-05-29T15:15:56.217Z</time>
      </trkpt>
      <trkpt lat="42.99772" lon="-0.69782">
        <ele>925.23</ele>
        <time>2024-05-29T15:16:04.396Z</time>
      </trkpt>
      <trkpt lat="42.99765" lon="-0.69771">
        <ele>926.25</ele>
        <time>2024-05-29T15:16:12.577Z</time>
      </trkpt>
      <trkpt lat="42.99738" lon="-0.69738">
        <ele>927.47</ele>
        <time>2024-05-29T15:16:20.765Z</time>
      </trkpt>
      <trkpt lat="42.99728" lon="-0.69721">
        <ele>928.54</ele>
        <time>2024-05-29T15:16:28.956Z</time>
      </trkpt>
      <trkpt lat="42.99722" lon="-0.69704">
        <ele>929.37</ele>
        <time>2024-05-29T15:16:37.150Z</time>
      </trkpt>
      <trkpt lat="42.99693" lon="-0.69576">
        <ele>930.47</ele>
        <time>2024-05-29T15:16:45.362Z</time>
      </trkpt>
      <trkpt lat="42.99681" lon="-0.69494">
        <ele>930.63</ele>
        <time>2024-05-29T15:16:53.585Z</time>
      </trkpt>
      <trkpt lat="42.99676" lon="-0.69476">
        <ele>930.96</ele>
        <time>2024-05-29T15:17:01.811Z</time>
      </trkpt>
      <trkpt lat="42.99669" lon="-0.69464">
        <ele>931.21</ele>
        <time>2024-05-29T15:17:10.039Z</time>
      </trkpt>
      <trkpt lat="42.99654" lon="-0.6945">
        <ele>931.67</ele>
        <time>2024-05-29T15:17:18.270Z</time>
      </trkpt>
      <trkpt lat="42.99648" lon="-0.69436">
        <ele>931.5</ele>
        <time>2024-05-29T15:17:26.504Z</time>
      </trkpt>
      <trkpt lat="42.99647" lon="-0.69427">
        <ele>931.04</ele>
        <time>2024-05-29T15:17:34.739Z</time>
      </trkpt>
      <trkpt lat="42.99654" lon="-0.69419">
        <ele>930.3</ele>
        <time>2024-05-29T15:17:42.976Z</time>
      </trkpt>
      <trkpt lat="42.99729" lon="-0.69437">
        <ele>928.19</ele>
        <time>2024-05-29T15:17:51.227Z</time>
      </trkpt>
      <trkpt lat="42.99744" lon="-0.69449">
        <ele>927.04</ele>
        <time>2024-05-29T15:17:59.481Z</time>
      </trkpt>
      <trkpt lat="42.99749" lon="-0.69463">
        <ele>925.87</ele>
        <time>2024-05-29T15:18:07.737Z</time>
      </trkpt>
      <trkpt lat="42.99762" lon="-0.69478">
        <ele>924.47</ele>
        <time>2024-05-29T15:18:15.996Z</time>
      </trkpt>
      <trkpt lat="42.9977" lon="-0.69484">
        <ele>923.09</ele>
        <time>2024-05-29T15:18:24.257Z</time>
      </trkpt>
      <trkpt lat="42.9978" lon="-0.69489">
        <ele>921.62</ele>
        <time>2024-05-29T15:18:32.520Z</time>
      </trkpt>
      <trkpt lat="42.99792" lon="-0.69491">
        <ele>919.95</ele>
        <time>2024-05-29T15:18:40.785Z</time>
      </trkpt>
      <trkpt lat="42.99827" lon="-0.69479">
        <ele>918.38</ele>
        <time>2024-05-29T15:18:49.057Z</time>
      </trkpt>
      <trkpt lat="42.99836" lon="-0.69482">
        <ele>916.66</ele>
        <time>2024-05-29T15:18:57.331Z</time>
      </trkpt>
      <trkpt lat="42.99839" lon="-0.69491">
        <ele>914.74</ele>
        <time>2024-05-29T15:19:05.606Z</time>
      </trkpt>
      <trkpt lat="42.99835" lon="-0.69499">
        <ele>912.72</ele>
        <time>2024-05-29T15:19:13.882Z</time>
      </trkpt>
      <trkpt lat="42.99787" lon="-0.69517">
        <ele>910.67</ele>
        <time>2024-05-29T15:19:22.168Z</time>
      </trkpt>
      <trkpt lat="42.99781" lon="-0.69522">
        <ele>908.69</ele>
        <time>2024-05-29T15:19:30.455Z</time>
      </trkpt>
      <trkpt lat="42.99779" lon="-0.69532">
        <ele>906.54</ele>
        <time>2024-05-29T15:19:38.743Z</time>
      </trkpt>
      <trkpt lat="42.99783" lon="-0.69537">
        <ele>904.33</ele>
        <time>2024-05-29T15:19:47.032Z</time>
      </trkpt>
      <trkpt lat="42.99789" lon="-0.69541">
        <ele>902.05</ele>
        <time>2024-05-29T15:19:55.323Z</time>
      </trkpt>
      <trkpt lat="42.99798" lon="-0.6954">
        <ele>899.78</ele>
        <time>2024-05-29T15:20:03.615Z</time>
      </trkpt>
      <trkpt lat="42.99837" lon="-0.69523">
        <ele>897.61</ele>
        <time>2024-05-29T15:20:11.915Z</time>
      </trkpt>
      <trkpt lat="42.9986" lon="-0.69516">
        <ele>895.32</ele>
        <time>2024-05-29T15:20:20.219Z</time>
      </trkpt>
      <trkpt lat="42.99933" lon="-0.69485">
        <ele>892.9</ele>
        <time>2024-05-29T15:20:28.537Z</time>
      </trkpt>
      <trkpt lat="42.99963" lon="-0.6947">
        <ele>890.28</ele>
        <time>2024-05-29T15:20:36.861Z</time>
      </trkpt>
      <trkpt lat="42.99993" lon="-0.69461">
        <ele>887.57</ele>
        <time>2024-05-29T15:20:45.191Z</time>
      </trkpt>
      <trkpt lat="43.00002" lon="-0.69456">
        <ele>885.05</ele>
        <time>2024-05-29T15:20:53.523Z</time>
      </trkpt>
      <trkpt lat="43.0001" lon="-0.69446">
        <ele>882.63</ele>
        <time>2024-05-29T15:21:01.857Z</time>
      </trkpt>
      <trkpt lat="43.0005" lon="-0.69389">
        <ele>879.64</ele>
        <time>2024-05-29T15:21:10.202Z</time>
      </trkpt>
      <trkpt lat="43.00087" lon="-0.69301">
        <ele>877.35</ele>
        <time>2024-05-29T15:21:18.561Z</time>
      </trkpt>
      <trkpt lat="43.00093" lon="-0.69296">
        <ele>874.84</ele>
        <time>2024-05-29T15:21:26.921Z</time>
      </trkpt>
      <trkpt lat="43.001" lon="-0.69297">
        <ele>872.18</ele>
        <time>2024-05-29T15:21:35.282Z</time>
      </trkpt>
      <trkpt lat="43.00105" lon="-0.69301">
        <ele>869.49</ele>
        <time>2024-05-29T15:21:43.644Z</time>
      </trkpt>
      <trkpt lat="43.00105" lon="-0.6931">
        <ele>866.81</ele>
        <time>2024-05-29T15:21:52.007Z</time>
      </trkpt>
      <trkpt lat="43.00094" lon="-0.6935">
        <ele>864.03</ele>
        <time>2024-05-29T15:22:00.376Z</time>
      </trkpt>
      <trkpt lat="43.00081" lon="-0.69437">
        <ele>861.44</ele>
        <time>2024-05-29T15:22:08.757Z</time>
      </trkpt>
      <trkpt lat="43.00083" lon="-0.6945">
        <ele>858.81</ele>
        <time>2024-05-29T15:22:17.140Z</time>
      </trkpt>
      <trkpt lat="43.00089" lon="-0.69455">
        <ele>856.15</ele>
        <time>2024-05-29T15:22:25.525Z</time>
      </trkpt>
      <trkpt lat="43.00095" lon="-0.69453">
        <ele>853.56</ele>
        <time>2024-05-29T15:22:33.911Z</time>
      </trkpt>
      <trkpt lat="43.00099" lon="-0.69445">
        <ele>851.05</ele>
        <time>2024-05-29T15:22:42.298Z</time>
      </trkpt>
      <trkpt lat="43.00108" lon="-0.69387">
        <ele>848.68</ele>
        <time>2024-05-29T15:22:50.693Z</time>
      </trkpt>
      <trkpt lat="43.00117" lon="-0.69356">
        <ele>846.13</ele>
        <time>2024-05-29T15:22:59.093Z</time>
      </trkpt>
      <trkpt lat="43.00163" lon="-0.69281">
        <ele>843.41</ele>
        <time>2024-05-29T15:23:07.506Z</time>
      </trkpt>
      <trkpt lat="43.00193" lon="-0.69244">
        <ele>840.41</ele>
        <time>2024-05-29T15:23:15.926Z</time>
      </trkpt>
      <trkpt lat="43.00199" lon="-0.69232">
        <ele>837.78</ele>
        <time>2024-05-29T15:23:24.348Z</time>
      </trkpt>
      <trkpt lat="43.00211" lon="-0.69198">
        <ele>835.19</ele>
        <time>2024-05-29T15:23:32.776Z</time>
      </trkpt>
      <trkpt lat="43.00215" lon="-0.69194">
        <ele>832.46</ele>
        <time>2024-05-29T15:23:41.205Z</time>
      </trkpt>
      <trkpt lat="43.00219" lon="-0.69196">
        <ele>829.68</ele>
        <time>2024-05-29T15:23:49.634Z</time>
      </trkpt>
      <trkpt lat="43.00222" lon="-0.692">
        <ele>826.87</ele>
        <time>2024-05-29T15:23:58.064Z</time>
      </trkpt>
      <trkpt lat="43.00222" lon="-0.69206">
        <ele>824.04</ele>
        <time>2024-05-29T15:24:06.495Z</time>
      </trkpt>
      <trkpt lat="43.00216" lon="-0.69243">
        <ele>821.15</ele>
        <time>2024-05-29T15:24:14.931Z</time>
      </trkpt>
      <trkpt lat="43.00215" lon="-0.6933">
        <ele>817.83</ele>
        <time>2024-05-29T15:24:23.379Z</time>
      </trkpt>
      <trkpt lat="43.00193" lon="-0.694">
        <ele>815.04</ele>
        <time>2024-05-29T15:24:31.837Z</time>
      </trkpt>
      <trkpt lat="43.00193" lon="-0.69408">
        <ele>812.06</ele>
        <time>2024-05-29T15:24:40.296Z</time>
      </trkpt>
      <trkpt lat="43.00197" lon="-0.69413">
        <ele>808.96</ele>
        <time>2024-05-29T15:24:48.756Z</time>
      </trkpt>
      <trkpt lat="43.00205" lon="-0.69411">
        <ele>805.77</ele>
        <time>2024-05-29T15:24:57.218Z</time>
      </trkpt>
      <trkpt lat="43.00209" lon="-0.69405">
        <ele>802.63</ele>
        <time>2024-05-29T15:25:05.681Z</time>
      </trkpt>
      <trkpt lat="43.00225" lon="-0.69361">
        <ele>799.37</ele>
        <time>2024-05-29T15:25:14.151Z</time>
      </trkpt>
      <trkpt lat="43.00266" lon="-0.69278">
        <ele>795.79</ele>
        <time>2024-05-29T15:25:22.634Z</time>
      </trkpt>
      <trkpt lat="43.00271" lon="-0.6925">
        <ele>792.63</ele>
        <time>2024-05-29T15:25:31.121Z</time>
      </trkpt>
      <trkpt lat="43.00291" lon="-0.69057">
        <ele>788.75</ele>
        <time>2024-05-29T15:25:39.635Z</time>
      </trkpt>
      <trkpt lat="43.00297" lon="-0.68936">
        <ele>785.28</ele>
        <time>2024-05-29T15:25:48.166Z</time>
      </trkpt>
      <trkpt lat="43.00301" lon="-0.68924">
        <ele>781.89</ele>
        <time>2024-05-29T15:25:56.698Z</time>
      </trkpt>
      <trkpt lat="43.00309" lon="-0.68918">
        <ele>778.46</ele>
        <time>2024-05-29T15:26:05.232Z</time>
      </trkpt>
      <trkpt lat="43.00333" lon="-0.68911">
        <ele>774.8</ele>
        <time>2024-05-29T15:26:13.771Z</time>
      </trkpt>
      <trkpt lat="43.00346" lon="-0.689">
        <ele>771.31</ele>
        <time>2024-05-29T15:26:22.312Z</time>
      </trkpt>
      <trkpt lat="43.00354" lon="-0.6889">
        <ele>767.89</ele>
        <time>2024-05-29T15:26:30.856Z</time>
      </trkpt>
      <trkpt lat="43.00384" lon="-0.68842">
        <ele>764.33</ele>
        <time>2024-05-29T15:26:39.408Z</time>
      </trkpt>
      <trkpt lat="43.00411" lon="-0.6879">
        <ele>760.91</ele>
        <time>2024-05-29T15:26:47.969Z</time>
      </trkpt>
      <trkpt lat="43.00425" lon="-0.68778">
        <ele>757.47</ele>
        <time>2024-05-29T15:26:56.533Z</time>
      </trkpt>
      <trkpt lat="43.00438" lon="-0.68778">
        <ele>753.98</ele>
        <time>2024-05-29T15:27:05.099Z</time>
      </trkpt>
      <trkpt lat="43.00446" lon="-0.68783">
        <ele>750.6</ele>
        <time>2024-05-29T15:27:13.667Z</time>
      </trkpt>
      <trkpt lat="43.00452" lon="-0.68792">
        <ele>747.24</ele>
        <time>2024-05-29T15:27:22.237Z</time>
      </trkpt>
      <trkpt lat="43.00456" lon="-0.68807">
        <ele>743.93</ele>
        <time>2024-05-29T15:27:30.809Z</time>
      </trkpt>
      <trkpt lat="43.00445" lon="-0.68865">
        <ele>740.74</ele>
        <time>2024-05-29T15:27:39.389Z</time>
      </trkpt>
      <trkpt lat="43.00452" lon="-0.68878">
        <ele>737.55</ele>
        <time>2024-05-29T15:27:47.971Z</time>
      </trkpt>
      <trkpt lat="43.00452" lon="-0.68878">
        <ele>737.55</ele>
        <time>2024-05-29T15:27:56.553Z</time>
      </trkpt>
      <trkpt lat="43.00452" lon="-0.68878">
        <ele>737.54</ele>
        <time>2024-05-29T15:28:05.135Z</time>
      </trkpt>
      <trkpt lat="43.0046" lon="-0.68883">
        <ele>734.34</ele>
        <time>2024-05-29T15:28:13.719Z</time>
      </trkpt>
      <trkpt lat="43.00467" lon="-0.68884">
        <ele>731.25</ele>
        <time>2024-05-29T15:28:22.304Z</time>
      </trkpt>
      <trkpt lat="43.00537" lon="-0.68866">
        <ele>727.76</ele>
        <time>2024-05-29T15:28:30.902Z</time>
      </trkpt>
      <trkpt lat="43.00548" lon="-0.68857">
        <ele>724.74</ele>
        <time>2024-05-29T15:28:39.503Z</time>
      </trkpt>
      <trkpt lat="43.00552" lon="-0.68847">
        <ele>721.8</ele>
        <time>2024-05-29T15:28:48.105Z</time>
      </trkpt>
      <trkpt lat="43.00553" lon="-0.68835">
        <ele>718.89</ele>
        <time>2024-05-29T15:28:56.709Z</time>
      </trkpt>
      <trkpt lat="43.00547" lon="-0.68804">
        <ele>716.03</ele>
        <time>2024-05-29T15:29:05.317Z</time>
      </trkpt>
      <trkpt lat="43.00546" lon="-0.6879">
        <ele>713.27</ele>
        <time>2024-05-29T15:29:13.927Z</time>
      </trkpt>
      <trkpt lat="43.00549" lon="-0.68776">
        <ele>710.49</ele>
        <time>2024-05-29T15:29:22.539Z</time>
      </trkpt>
      <trkpt lat="43.00575" lon="-0.68691">
        <ele>707.41</ele>
        <time>2024-05-29T15:29:31.164Z</time>
      </trkpt>
      <trkpt lat="43.00579" lon="-0.68647">
        <ele>704.61</ele>
        <time>2024-05-29T15:29:39.795Z</time>
      </trkpt>
      <trkpt lat="43.0057" lon="-0.68612">
        <ele>702.03</ele>
        <time>2024-05-29T15:29:48.431Z</time>
      </trkpt>
      <trkpt lat="43.00572" lon="-0.6859">
        <ele>699.36</ele>
        <time>2024-05-29T15:29:57.070Z</time>
      </trkpt>
      <trkpt lat="43.00578" lon="-0.68584">
        <ele>696.77</ele>
        <time>2024-05-29T15:30:05.710Z</time>
      </trkpt>
      <trkpt lat="43.00583" lon="-0.68583">
        <ele>694.26</ele>
        <time>2024-05-29T15:30:14.351Z</time>
      </trkpt>
      <trkpt lat="43.0059" lon="-0.68585">
        <ele>691.79</ele>
        <time>2024-05-29T15:30:22.994Z</time>
      </trkpt>
      <trkpt lat="43.00636" lon="-0.68629">
        <ele>689.1</ele>
        <time>2024-05-29T15:30:31.647Z</time>
      </trkpt>
      <trkpt lat="43.00647" lon="-0.68648">
        <ele>686.61</ele>
        <time>2024-05-29T15:30:40.303Z</time>
      </trkpt>
      <trkpt lat="43.0067" lon="-0.68721">
        <ele>684.38</ele>
        <time>2024-05-29T15:30:48.970Z</time>
      </trkpt>
      <trkpt lat="43.00686" lon="-0.68739">
        <ele>682.04</ele>
        <time>2024-05-29T15:30:57.641Z</time>
      </trkpt>
      <trkpt lat="43.00697" lon="-0.68744">
        <ele>679.81</ele>
        <time>2024-05-29T15:31:06.314Z</time>
      </trkpt>
      <trkpt lat="43.00704" lon="-0.68742">
        <ele>677.63</ele>
        <time>2024-05-29T15:31:14.989Z</time>
      </trkpt>
      <trkpt lat="43.00713" lon="-0.68735">
        <ele>675.44</ele>
        <time>2024-05-29T15:31:23.665Z</time>
      </trkpt>
      <trkpt lat="43.00722" lon="-0.68725">
        <ele>673.28</ele>
        <time>2024-05-29T15:31:32.344Z</time>
      </trkpt>
      <trkpt lat="43.00725" lon="-0.68707">
        <ele>671.24</ele>
        <time>2024-05-29T15:31:41.025Z</time>
      </trkpt>
      <trkpt lat="43.00722" lon="-0.6865">
        <ele>669.45</ele>
        <time>2024-05-29T15:31:49.714Z</time>
      </trkpt>
      <trkpt lat="43.0073" lon="-0.68639">
        <ele>667.55</ele>
        <time>2024-05-29T15:31:58.405Z</time>
      </trkpt>
      <trkpt lat="43.00751" lon="-0.68627">
        <ele>665.52</ele>
        <time>2024-05-29T15:32:07.100Z</time>
      </trkpt>
      <trkpt lat="43.00771" lon="-0.68627">
        <ele>663.59</ele>
        <time>2024-05-29T15:32:15.799Z</time>
      </trkpt>
      <trkpt lat="43.00783" lon="-0.68629">
        <ele>661.86</ele>
        <time>2024-05-29T15:32:24.500Z</time>
      </trkpt>
      <trkpt lat="43.00796" lon="-0.68635">
        <ele>660.16</ele>
        <time>2024-05-29T15:32:33.204Z</time>
      </trkpt>
      <trkpt lat="43.00801" lon="-0.68642">
        <ele>658.6</ele>
        <time>2024-05-29T15:32:41.909Z</time>
      </trkpt>
      <trkpt lat="43.00802" lon="-0.68662">
        <ele>657.05</ele>
        <time>2024-05-29T15:32:50.617Z</time>
      </trkpt>
      <trkpt lat="43.00793" lon="-0.68692">
        <ele>655.68</ele>
        <time>2024-05-29T15:32:59.329Z</time>
      </trkpt>
      <trkpt lat="43.00795" lon="-0.68701">
        <ele>654.36</ele>
        <time>2024-05-29T15:33:08.043Z</time>
      </trkpt>
      <trkpt lat="43.00802" lon="-0.68706">
        <ele>653.09</ele>
        <time>2024-05-29T15:33:16.758Z</time>
      </trkpt>
      <trkpt lat="43.00808" lon="-0.68708">
        <ele>651.87</ele>
        <time>2024-05-29T15:33:25.474Z</time>
      </trkpt>
      <trkpt lat="43.00815" lon="-0.68702">
        <ele>650.69</ele>
        <time>2024-05-29T15:33:34.192Z</time>
      </trkpt>
      <trkpt lat="43.00828" lon="-0.68679">
        <ele>649.51</ele>
        <time>2024-05-29T15:33:42.914Z</time>
      </trkpt>
      <trkpt lat="43.0084" lon="-0.68664">
        <ele>648.46</ele>
        <time>2024-05-29T15:33:51.639Z</time>
      </trkpt>
      <trkpt lat="43.00848" lon="-0.68658">
        <ele>647.46</ele>
        <time>2024-05-29T15:34:00.365Z</time>
      </trkpt>
      <trkpt lat="43.00855" lon="-0.68657">
        <ele>646.5</ele>
        <time>2024-05-29T15:34:09.093Z</time>
      </trkpt>
      <trkpt lat="43.00885" lon="-0.68678">
        <ele>645.46</ele>
        <time>2024-05-29T15:34:17.827Z</time>
      </trkpt>
      <trkpt lat="43.00924" lon="-0.68671">
        <ele>644.43</ele>
        <time>2024-05-29T15:34:26.568Z</time>
      </trkpt>
      <trkpt lat="43.00933" lon="-0.68676">
        <ele>643.57</ele>
        <time>2024-05-29T15:34:35.311Z</time>
      </trkpt>
      <trkpt lat="43.0094" lon="-0.68683">
        <ele>642.78</ele>
        <time>2024-05-29T15:34:44.056Z</time>
      </trkpt>
      <trkpt lat="43.00945" lon="-0.68686">
        <ele>642.01</ele>
        <time>2024-05-29T15:34:52.802Z</time>
      </trkpt>
      <trkpt lat="43.00961" lon="-0.68682">
        <ele>641.24</ele>
        <time>2024-05-29T15:35:01.551Z</time>
      </trkpt>
      <trkpt lat="43.00974" lon="-0.68673">
        <ele>640.48</ele>
        <time>2024-05-29T15:35:10.303Z</time>
      </trkpt>
      <trkpt lat="43.01" lon="-0.68634">
        <ele>639.75</ele>
        <time>2024-05-29T15:35:19.062Z</time>
      </trkpt>
      <trkpt lat="43.0101" lon="-0.68623">
        <ele>639.13</ele>
        <time>2024-05-29T15:35:27.823Z</time>
      </trkpt>
      <trkpt lat="43.01021" lon="-0.68618">
        <ele>638.52</ele>
        <time>2024-05-29T15:35:36.586Z</time>
      </trkpt>
      <trkpt lat="43.01058" lon="-0.68606">
        <ele>637.89</ele>
        <time>2024-05-29T15:35:45.356Z</time>
      </trkpt>
      <trkpt lat="43.01097" lon="-0.68584">
        <ele>637.3</ele>
        <time>2024-05-29T15:35:54.134Z</time>
      </trkpt>
      <trkpt lat="43.0115" lon="-0.68563">
        <ele>636.91</ele>
        <time>2024-05-29T15:36:02.922Z</time>
      </trkpt>
      <trkpt lat="43.01188" lon="-0.68555">
        <ele>636.27</ele>
        <time>2024-05-29T15:36:11.718Z</time>
      </trkpt>
      <trkpt lat="43.01219" lon="-0.68564">
        <ele>635.52</ele>
        <time>2024-05-29T15:36:20.520Z</time>
      </trkpt>
      <trkpt lat="43.01282" lon="-0.68593">
        <ele>634.85</ele>
        <time>2024-05-29T15:36:29.334Z</time>
      </trkpt>
      <trkpt lat="43.01305" lon="-0.68612">
        <ele>634.34</ele>
        <time>2024-05-29T15:36:38.153Z</time>
      </trkpt>
      <trkpt lat="43.01334" lon="-0.68632">
        <ele>633.86</ele>
        <time>2024-05-29T15:36:46.978Z</time>
      </trkpt>
      <trkpt lat="43.01355" lon="-0.68652">
        <ele>633.4</ele>
        <time>2024-05-29T15:36:55.808Z</time>
      </trkpt>
      <trkpt lat="43.01378" lon="-0.68652">
        <ele>633</ele>
        <time>2024-05-29T15:37:04.642Z</time>
      </trkpt>
      <trkpt lat="43.01491" lon="-0.68722">
        <ele>632.52</ele>
        <time>2024-05-29T15:37:13.499Z</time>
      </trkpt>
      <trkpt lat="43.01503" lon="-0.68723">
        <ele>632.06</ele>
        <time>2024-05-29T15:37:22.358Z</time>
      </trkpt>
      <trkpt lat="43.01569" lon="-0.68718">
        <ele>631.55</ele>
        <time>2024-05-29T15:37:31.230Z</time>
      </trkpt>
      <trkpt lat="43.01586" lon="-0.68725">
        <ele>631.1</ele>
        <time>2024-05-29T15:37:40.105Z</time>
      </trkpt>
      <trkpt lat="43.01627" lon="-0.68757">
        <ele>630.69</ele>
        <time>2024-05-29T15:37:48.989Z</time>
      </trkpt>
      <trkpt lat="43.01707" lon="-0.68848">
        <ele>630.3</ele>
        <time>2024-05-29T15:37:57.892Z</time>
      </trkpt>
      <trkpt lat="43.01719" lon="-0.68855">
        <ele>630.03</ele>
        <time>2024-05-29T15:38:06.798Z</time>
      </trkpt>
      <trkpt lat="43.01766" lon="-0.68875">
        <ele>629.68</ele>
        <time>2024-05-29T15:38:15.713Z</time>
      </trkpt>
      <trkpt lat="43.01818" lon="-0.68904">
        <ele>629.48</ele>
        <time>2024-05-29T15:38:24.638Z</time>
      </trkpt>
      <trkpt lat="43.01834" lon="-0.68919">
        <ele>629.25</ele>
        <time>2024-05-29T15:38:33.567Z</time>
      </trkpt>
      <trkpt lat="43.0189" lon="-0.68985">
        <ele>628.78</ele>
        <time>2024-05-29T15:38:42.510Z</time>
      </trkpt>
      <trkpt lat="43.019" lon="-0.68991">
        <ele>628.43</ele>
        <time>2024-05-29T15:38:51.455Z</time>
      </trkpt>
      <trkpt lat="43.01941" lon="-0.68989">
        <ele>628.15</ele>
        <time>2024-05-29T15:39:00.407Z</time>
      </trkpt>
      <trkpt lat="43.01976" lon="-0.68993">
        <ele>627.91</ele>
        <time>2024-05-29T15:39:09.366Z</time>
      </trkpt>
      <trkpt lat="43.02096" lon="-0.69013">
        <ele>627.32</ele>
        <time>2024-05-29T15:39:18.347Z</time>
      </trkpt>
      <trkpt lat="43.02113" lon="-0.69021">
        <ele>627.06</ele>
        <time>2024-05-29T15:39:27.332Z</time>
      </trkpt>
      <trkpt lat="43.02124" lon="-0.69033">
        <ele>626.77</ele>
        <time>2024-05-29T15:39:36.319Z</time>
      </trkpt>
      <trkpt lat="43.02147" lon="-0.69079">
        <ele>626.82</ele>
        <time>2024-05-29T15:39:45.314Z</time>
      </trkpt>
      <trkpt lat="43.02167" lon="-0.69101">
        <ele>626.86</ele>
        <time>2024-05-29T15:39:54.314Z</time>
      </trkpt>
      <trkpt lat="43.02185" lon="-0.69109">
        <ele>626.52</ele>
        <time>2024-05-29T15:40:03.317Z</time>
      </trkpt>
      <trkpt lat="43.02202" lon="-0.69113">
        <ele>626.23</ele>
        <time>2024-05-29T15:40:12.323Z</time>
      </trkpt>
      <trkpt lat="43.02219" lon="-0.6911">
        <ele>625.8</ele>
        <time>2024-05-29T15:40:21.332Z</time>
      </trkpt>
      <trkpt lat="43.02251" lon="-0.69096">
        <ele>625.14</ele>
        <time>2024-05-29T15:40:30.348Z</time>
      </trkpt>
      <trkpt lat="43.02271" lon="-0.69079">
        <ele>624.64</ele>
        <time>2024-05-29T15:40:39.368Z</time>
      </trkpt>
      <trkpt lat="43.0228" lon="-0.69076">
        <ele>624.27</ele>
        <time>2024-05-29T15:40:48.390Z</time>
      </trkpt>
      <trkpt lat="43.0229" lon="-0.69078">
        <ele>623.9</ele>
        <time>2024-05-29T15:40:57.414Z</time>
      </trkpt>
      <trkpt lat="43.02316" lon="-0.69117">
        <ele>623.65</ele>
        <time>2024-05-29T15:41:06.445Z</time>
      </trkpt>
      <trkpt lat="43.02325" lon="-0.6912">
        <ele>623.33</ele>
        <time>2024-05-29T15:41:15.478Z</time>
      </trkpt>
      <trkpt lat="43.02333" lon="-0.69119">
        <ele>623.01</ele>
        <time>2024-05-29T15:41:24.512Z</time>
      </trkpt>
      <trkpt lat="43.02384" lon="-0.69098">
        <ele>622.63</ele>
        <time>2024-05-29T15:41:33.556Z</time>
      </trkpt>
      <trkpt lat="43.02416" lon="-0.69099">
        <ele>622.46</ele>
        <time>2024-05-29T15:41:42.606Z</time>
      </trkpt>
      <trkpt lat="43.02424" lon="-0.69095">
        <ele>622.13</ele>
        <time>2024-05-29T15:41:51.658Z</time>
      </trkpt>
      <trkpt lat="43.02435" lon="-0.69086">
        <ele>621.82</ele>
        <time>2024-05-29T15:42:00.712Z</time>
      </trkpt>
      <trkpt lat="43.02445" lon="-0.69073">
        <ele>621.59</ele>
        <time>2024-05-29T15:42:09.769Z</time>
      </trkpt>
      <trkpt lat="43.02459" lon="-0.69069">
        <ele>621.27</ele>
        <time>2024-05-29T15:42:18.828Z</time>
      </trkpt>
      <trkpt lat="43.02472" lon="-0.69068">
        <ele>620.69</ele>
        <time>2024-05-29T15:42:27.890Z</time>
      </trkpt>
      <trkpt lat="43.02502" lon="-0.69073">
        <ele>619.95</ele>
        <time>2024-05-29T15:42:36.957Z</time>
      </trkpt>
      <trkpt lat="43.02531" lon="-0.69072">
        <ele>619.01</ele>
        <time>2024-05-29T15:42:46.030Z</time>
      </trkpt>
      <trkpt lat="43.02545" lon="-0.69076">
        <ele>618.04</ele>
        <time>2024-05-29T15:42:55.105Z</time>
      </trkpt>
      <trkpt lat="43.02558" lon="-0.69083">
        <ele>617.17</ele>
        <time>2024-05-29T15:43:04.183Z</time>
      </trkpt>
      <trkpt lat="43.02602" lon="-0.6913">
        <ele>615.73</ele>
        <time>2024-05-29T15:43:13.271Z</time>
      </trkpt>
      <trkpt lat="43.02638" lon="-0.69164">
        <ele>614.8</ele>
        <time>2024-05-29T15:43:22.367Z</time>
      </trkpt>
      <trkpt lat="43.02673" lon="-0.69185">
        <ele>614.15</ele>
        <time>2024-05-29T15:43:31.471Z</time>
      </trkpt>
      <trkpt lat="43.02689" lon="-0.69188">
        <ele>613.21</ele>
        <time>2024-05-29T15:43:40.578Z</time>
      </trkpt>
      <trkpt lat="43.0274" lon="-0.69173">
        <ele>611.73</ele>
        <time>2024-05-29T15:43:49.694Z</time>
      </trkpt>
      <trkpt lat="43.02764" lon="-0.69159">
        <ele>610.4</ele>
        <time>2024-05-29T15:43:58.815Z</time>
      </trkpt>
      <trkpt lat="43.02793" lon="-0.69145">
        <ele>608.83</ele>
        <time>2024-05-29T15:44:07.942Z</time>
      </trkpt>
      <trkpt lat="43.02808" lon="-0.69136">
        <ele>607.34</ele>
        <time>2024-05-29T15:44:17.072Z</time>
      </trkpt>
      <trkpt lat="43.02846" lon="-0.69101">
        <ele>605.91</ele>
        <time>2024-05-29T15:44:26.210Z</time>
      </trkpt>
      <trkpt lat="43.02893" lon="-0.69071">
        <ele>604.83</ele>
        <time>2024-05-29T15:44:35.358Z</time>
      </trkpt>
      <trkpt lat="43.029" lon="-0.69062">
        <ele>603.63</ele>
        <time>2024-05-29T15:44:44.508Z</time>
      </trkpt>
      <trkpt lat="43.0291" lon="-0.69058">
        <ele>602.28</ele>
        <time>2024-05-29T15:44:53.660Z</time>
      </trkpt>
      <trkpt lat="43.02917" lon="-0.69058">
        <ele>600.67</ele>
        <time>2024-05-29T15:45:02.813Z</time>
      </trkpt>
      <trkpt lat="43.02983" lon="-0.69097">
        <ele>599.11</ele>
        <time>2024-05-29T15:45:11.979Z</time>
      </trkpt>
      <trkpt lat="43.03002" lon="-0.69111">
        <ele>597.21</ele>
        <time>2024-05-29T15:45:21.149Z</time>
      </trkpt>
      <trkpt lat="43.03029" lon="-0.69144">
        <ele>594.64</ele>
        <time>2024-05-29T15:45:30.326Z</time>
      </trkpt>
      <trkpt lat="43.03038" lon="-0.69164">
        <ele>592.04</ele>
        <time>2024-05-29T15:45:39.506Z</time>
      </trkpt>
      <trkpt lat="43.03057" lon="-0.69181">
        <ele>589.8</ele>
        <time>2024-05-29T15:45:48.691Z</time>
      </trkpt>
      <trkpt lat="43.03079" lon="-0.69196">
        <ele>587.49</ele>
        <time>2024-05-29T15:45:57.880Z</time>
      </trkpt>
      <trkpt lat="43.0313" lon="-0.69245">
        <ele>584.68</ele>
        <time>2024-05-29T15:46:07.081Z</time>
      </trkpt>
      <trkpt lat="43.03148" lon="-0.69265">
        <ele>581.91</ele>
        <time>2024-05-29T15:46:16.286Z</time>
      </trkpt>
      <trkpt lat="43.03157" lon="-0.69268">
        <ele>579.28</ele>
        <time>2024-05-29T15:46:25.493Z</time>
      </trkpt>
      <trkpt lat="43.03165" lon="-0.69263">
        <ele>576.51</ele>
        <time>2024-05-29T15:46:34.702Z</time>
      </trkpt>
      <trkpt lat="43.03172" lon="-0.69251">
        <ele>573.79</ele>
        <time>2024-05-29T15:46:43.913Z</time>
      </trkpt>
      <trkpt lat="43.03203" lon="-0.69163">
        <ele>571.44</ele>
        <time>2024-05-29T15:46:53.137Z</time>
      </trkpt>
      <trkpt lat="43.0322" lon="-0.69137">
        <ele>568.81</ele>
        <time>2024-05-29T15:47:02.366Z</time>
      </trkpt>
      <trkpt lat="43.03234" lon="-0.69119">
        <ele>565.86</ele>
        <time>2024-05-29T15:47:11.598Z</time>
      </trkpt>
      <trkpt lat="43.03255" lon="-0.69099">
        <ele>562.57</ele>
        <time>2024-05-29T15:47:20.835Z</time>
      </trkpt>
      <trkpt lat="43.03266" lon="-0.69086">
        <ele>559.34</ele>
        <time>2024-05-29T15:47:30.075Z</time>
      </trkpt>
      <trkpt lat="43.03278" lon="-0.69067">
        <ele>556.06</ele>
        <time>2024-05-29T15:47:39.318Z</time>
      </trkpt>
      <trkpt lat="43.03281" lon="-0.69044">
        <ele>553.3</ele>
        <time>2024-05-29T15:47:48.564Z</time>
      </trkpt>
      <trkpt lat="43.03297" lon="-0.68974">
        <ele>550.3</ele>
        <time>2024-05-29T15:47:57.820Z</time>
      </trkpt>
      <trkpt lat="43.03309" lon="-0.68943">
        <ele>544.83</ele>
        <time>2024-05-29T15:48:07.081Z</time>
      </trkpt>
      <trkpt lat="43.03326" lon="-0.68911">
        <ele>540.37</ele>
        <time>2024-05-29T15:48:16.348Z</time>
      </trkpt>
      <trkpt lat="43.0333" lon="-0.68898">
        <ele>536.84</ele>
        <time>2024-05-29T15:48:25.616Z</time>
      </trkpt>
      <trkpt lat="43.03336" lon="-0.68802">
        <ele>532.81</ele>
        <time>2024-05-29T15:48:34.898Z</time>
      </trkpt>
      <trkpt lat="43.03321" lon="-0.68752">
        <ele>529.92</ele>
        <time>2024-05-29T15:48:44.187Z</time>
      </trkpt>
      <trkpt lat="43.03323" lon="-0.68742">
        <ele>526.26</ele>
        <time>2024-05-29T15:48:53.477Z</time>
      </trkpt>
      <trkpt lat="43.03331" lon="-0.68729">
        <ele>522.36</ele>
        <time>2024-05-29T15:49:02.770Z</time>
      </trkpt>
      <trkpt lat="43.03352" lon="-0.68713">
        <ele>517.76</ele>
        <time>2024-05-29T15:49:12.067Z</time>
      </trkpt>
      <trkpt lat="43.03402" lon="-0.68664">
        <ele>513.27</ele>
        <time>2024-05-29T15:49:21.376Z</time>
      </trkpt>
      <trkpt lat="43.03454" lon="-0.68604">
        <ele>508.75</ele>
        <time>2024-05-29T15:49:30.697Z</time>
      </trkpt>
      <trkpt lat="43.03472" lon="-0.68579">
        <ele>504.81</ele>
        <time>2024-05-29T15:49:40.023Z</time>
      </trkpt>
      <trkpt lat="43.03502" lon="-0.68522">
        <ele>500.7</ele>
        <time>2024-05-29T15:49:49.359Z</time>
      </trkpt>
      <trkpt lat="43.03528" lon="-0.68453">
        <ele>496.95</ele>
        <time>2024-05-29T15:49:58.705Z</time>
      </trkpt>
      <trkpt lat="43.03538" lon="-0.68433">
        <ele>493.23</ele>
        <time>2024-05-29T15:50:08.055Z</time>
      </trkpt>
      <trkpt lat="43.03549" lon="-0.68426">
        <ele>489.39</ele>
        <time>2024-05-29T15:50:17.407Z</time>
      </trkpt>
      <trkpt lat="43.03573" lon="-0.68416">
        <ele>485.42</ele>
        <time>2024-05-29T15:50:26.763Z</time>
      </trkpt>
      <trkpt lat="43.03595" lon="-0.684">
        <ele>481.83</ele>
        <time>2024-05-29T15:50:36.124Z</time>
      </trkpt>
      <trkpt lat="43.03662" lon="-0.68378">
        <ele>478.07</ele>
        <time>2024-05-29T15:50:45.498Z</time>
      </trkpt>
      <trkpt lat="43.03698" lon="-0.68368">
        <ele>474.65</ele>
        <time>2024-05-29T15:50:54.879Z</time>
      </trkpt>
      <trkpt lat="43.03716" lon="-0.68367">
        <ele>471.4</ele>
        <time>2024-05-29T15:51:04.263Z</time>
      </trkpt>
      <trkpt lat="43.03723" lon="-0.68369">
        <ele>468.22</ele>
        <time>2024-05-29T15:51:13.648Z</time>
      </trkpt>
      <trkpt lat="43.0374" lon="-0.68376">
        <ele>465.08</ele>
        <time>2024-05-29T15:51:23.037Z</time>
      </trkpt>
      <trkpt lat="43.03767" lon="-0.684">
        <ele>461.76</ele>
        <time>2024-05-29T15:51:32.432Z</time>
      </trkpt>
      <trkpt lat="43.0378" lon="-0.68409">
        <ele>458.67</ele>
        <time>2024-05-29T15:51:41.829Z</time>
      </trkpt>
      <trkpt lat="43.0379" lon="-0.68411">
        <ele>455.9</ele>
        <time>2024-05-29T15:51:51.228Z</time>
      </trkpt>
      <trkpt lat="43.03801" lon="-0.68408">
        <ele>453.25</ele>
        <time>2024-05-29T15:52:00.629Z</time>
      </trkpt>
      <trkpt lat="43.03832" lon="-0.68364">
        <ele>450.85</ele>
        <time>2024-05-29T15:52:10.039Z</time>
      </trkpt>
      <trkpt lat="43.03842" lon="-0.68352">
        <ele>448.47</ele>
        <time>2024-05-29T15:52:19.451Z</time>
      </trkpt>
      <trkpt lat="43.03882" lon="-0.68321">
        <ele>445.8</ele>
        <time>2024-05-29T15:52:28.872Z</time>
      </trkpt>
      <trkpt lat="43.03892" lon="-0.68303">
        <ele>443.86</ele>
        <time>2024-05-29T15:52:38.296Z</time>
      </trkpt>
      <trkpt lat="43.03931" lon="-0.68287">
        <ele>441.74</ele>
        <time>2024-05-29T15:52:47.727Z</time>
      </trkpt>
      <trkpt lat="43.03966" lon="-0.68257">
        <ele>440.06</ele>
        <time>2024-05-29T15:52:57.166Z</time>
      </trkpt>
      <trkpt lat="43.03987" lon="-0.68248">
        <ele>438.55</ele>
        <time>2024-05-29T15:53:06.609Z</time>
      </trkpt>
      <trkpt lat="43.03998" lon="-0.6824">
        <ele>437.23</ele>
        <time>2024-05-29T15:53:16.055Z</time>
      </trkpt>
      <trkpt lat="43.0402" lon="-0.68237">
        <ele>435.98</ele>
        <time>2024-05-29T15:53:25.505Z</time>
      </trkpt>
      <trkpt lat="43.04059" lon="-0.68213">
        <ele>434.8</ele>
        <time>2024-05-29T15:53:34.963Z</time>
      </trkpt>
      <trkpt lat="43.04109" lon="-0.68176">
        <ele>433.74</ele>
        <time>2024-05-29T15:53:44.431Z</time>
      </trkpt>
      <trkpt lat="43.04117" lon="-0.68165">
        <ele>432.89</ele>
        <time>2024-05-29T15:53:53.901Z</time>
      </trkpt>
      <trkpt lat="43.04129" lon="-0.68088">
        <ele>432.54</ele>
        <time>2024-05-29T15:54:03.382Z</time>
      </trkpt>
      <trkpt lat="43.0414" lon="-0.68038">
        <ele>432.06</ele>
        <time>2024-05-29T15:54:12.870Z</time>
      </trkpt>
      <trkpt lat="43.04148" lon="-0.6802">
        <ele>431.51</ele>
        <time>2024-05-29T15:54:22.361Z</time>
      </trkpt>
      <trkpt lat="43.04162" lon="-0.68005">
        <ele>431.02</ele>
        <time>2024-05-29T15:54:31.855Z</time>
      </trkpt>
      <trkpt lat="43.04176" lon="-0.67995">
        <ele>430.6</ele>
        <time>2024-05-29T15:54:41.352Z</time>
      </trkpt>
      <trkpt lat="43.04198" lon="-0.67992">
        <ele>430.07</ele>
        <time>2024-05-29T15:54:50.853Z</time>
      </trkpt>
      <trkpt lat="43.04208" lon="-0.67986">
        <ele>429.69</ele>
        <time>2024-05-29T15:55:00.356Z</time>
      </trkpt>
      <trkpt lat="43.04214" lon="-0.67971">
        <ele>429.45</ele>
        <time>2024-05-29T15:55:09.862Z</time>
      </trkpt>
      <trkpt lat="43.04206" lon="-0.67937">
        <ele>429.45</ele>
        <time>2024-05-29T15:55:19.373Z</time>
      </trkpt>
      <trkpt lat="43.04209" lon="-0.67928">
        <ele>429.23</ele>
        <time>2024-05-29T15:55:28.885Z</time>
      </trkpt>
      <trkpt lat="43.04214" lon="-0.67925">
        <ele>428.99</ele>
        <time>2024-05-29T15:55:38.398Z</time>
      </trkpt>
      <trkpt lat="43.04223" lon="-0.67929">
        <ele>428.71</ele>
        <time>2024-05-29T15:55:47.913Z</time>
      </trkpt>
      <trkpt lat="43.04239" lon="-0.67944">
        <ele>428.25</ele>
        <time>2024-05-29T15:55:57.431Z</time>
      </trkpt>
      <trkpt lat="43.04254" lon="-0.67964">
        <ele>427.77</ele>
        <time>2024-05-29T15:56:06.953Z</time>
      </trkpt>
      <trkpt lat="43.04268" lon="-0.67969">
        <ele>427.32</ele>
        <time>2024-05-29T15:56:16.478Z</time>
      </trkpt>
      <trkpt lat="43.04275" lon="-0.67969">
        <ele>426.93</ele>
        <time>2024-05-29T15:56:26.004Z</time>
      </trkpt>
      <trkpt lat="43.04285" lon="-0.67964">
        <ele>426.57</ele>
        <time>2024-05-29T15:56:35.532Z</time>
      </trkpt>
      <trkpt lat="43.04326" lon="-0.67929">
        <ele>425.99</ele>
        <time>2024-05-29T15:56:45.069Z</time>
      </trkpt>
      <trkpt lat="43.04353" lon="-0.67908">
        <ele>425.45</ele>
        <time>2024-05-29T15:56:54.612Z</time>
      </trkpt>
      <trkpt lat="43.04371" lon="-0.67882">
        <ele>425.01</ele>
        <time>2024-05-29T15:57:04.160Z</time>
      </trkpt>
      <trkpt lat="43.04382" lon="-0.67851">
        <ele>424.72</ele>
        <time>2024-05-29T15:57:13.713Z</time>
      </trkpt>
      <trkpt lat="43.04386" lon="-0.67808">
        <ele>424.69</ele>
        <time>2024-05-29T15:57:23.272Z</time>
      </trkpt>
      <trkpt lat="43.04394" lon="-0.67801">
        <ele>424.23</ele>
        <time>2024-05-29T15:57:32.832Z</time>
      </trkpt>
      <trkpt lat="43.04407" lon="-0.67803">
        <ele>423.64</ele>
        <time>2024-05-29T15:57:42.395Z</time>
      </trkpt>
      <trkpt lat="43.0443" lon="-0.67818">
        <ele>422.91</ele>
        <time>2024-05-29T15:57:51.962Z</time>
      </trkpt>
      <trkpt lat="43.04438" lon="-0.67819">
        <ele>422.26</ele>
        <time>2024-05-29T15:58:01.531Z</time>
      </trkpt>
      <trkpt lat="43.0445" lon="-0.67816">
        <ele>421.62</ele>
        <time>2024-05-29T15:58:11.102Z</time>
      </trkpt>
      <trkpt lat="43.04483" lon="-0.67796">
        <ele>420.96</ele>
        <time>2024-05-29T15:58:20.680Z</time>
      </trkpt>
      <trkpt lat="43.04621" lon="-0.67676">
        <ele>419.97</ele>
        <time>2024-05-29T15:58:30.288Z</time>
      </trkpt>
      <trkpt lat="43.04646" lon="-0.67659">
        <ele>419.03</ele>
        <time>2024-05-29T15:58:39.902Z</time>
      </trkpt>
      <trkpt lat="43.04662" lon="-0.6765">
        <ele>418.04</ele>
        <time>2024-05-29T15:58:49.519Z</time>
      </trkpt>
      <trkpt lat="43.04677" lon="-0.67646">
        <ele>416.98</ele>
        <time>2024-05-29T15:58:59.139Z</time>
      </trkpt>
      <trkpt lat="43.04727" lon="-0.67644">
        <ele>415.71</ele>
        <time>2024-05-29T15:59:08.768Z</time>
      </trkpt>
      <trkpt lat="43.04769" lon="-0.67626">
        <ele>414.69</ele>
        <time>2024-05-29T15:59:18.405Z</time>
      </trkpt>
      <trkpt lat="43.0479" lon="-0.67623">
        <ele>413.63</ele>
        <time>2024-05-29T15:59:28.046Z</time>
      </trkpt>
      <trkpt lat="43.04797" lon="-0.67626">
        <ele>412.51</ele>
        <time>2024-05-29T15:59:37.688Z</time>
      </trkpt>
      <trkpt lat="43.04816" lon="-0.67655">
        <ele>411.05</ele>
        <time>2024-05-29T15:59:47.336Z</time>
      </trkpt>
      <trkpt lat="43.04821" lon="-0.6766">
        <ele>409.89</ele>
        <time>2024-05-29T15:59:56.985Z</time>
      </trkpt>
      <trkpt lat="43.04827" lon="-0.67661">
        <ele>408.76</ele>
        <time>2024-05-29T16:00:06.635Z</time>
      </trkpt>
      <trkpt lat="43.04835" lon="-0.67659">
        <ele>407.67</ele>
        <time>2024-05-29T16:00:16.287Z</time>
      </trkpt>
      <trkpt lat="43.04842" lon="-0.67654">
        <ele>406.62</ele>
        <time>2024-05-29T16:00:25.940Z</time>
      </trkpt>
      <trkpt lat="43.04863" lon="-0.67636">
        <ele>405.66</ele>
        <time>2024-05-29T16:00:35.598Z</time>
      </trkpt>
      <trkpt lat="43.04881" lon="-0.67629">
        <ele>404.68</ele>
        <time>2024-05-29T16:00:45.259Z</time>
      </trkpt>
      <trkpt lat="43.04908" lon="-0.6763">
        <ele>403.64</ele>
        <time>2024-05-29T16:00:54.925Z</time>
      </trkpt>
      <trkpt lat="43.04943" lon="-0.6762">
        <ele>402.69</ele>
        <time>2024-05-29T16:01:04.598Z</time>
      </trkpt>
      <trkpt lat="43.04969" lon="-0.67609">
        <ele>401.76</ele>
        <time>2024-05-29T16:01:14.276Z</time>
      </trkpt>
      <trkpt lat="43.04997" lon="-0.67589">
        <ele>400.92</ele>
        <time>2024-05-29T16:01:23.960Z</time>
      </trkpt>
      <trkpt lat="43.05005" lon="-0.67587">
        <ele>400.14</ele>
        <time>2024-05-29T16:01:33.645Z</time>
      </trkpt>
      <trkpt lat="43.05013" lon="-0.67618">
        <ele>399.35</ele>
        <time>2024-05-29T16:01:43.335Z</time>
      </trkpt>
      <trkpt lat="43.05016" lon="-0.6764">
        <ele>398.75</ele>
        <time>2024-05-29T16:01:53.028Z</time>
      </trkpt>
      <trkpt lat="43.05021" lon="-0.67644">
        <ele>398.14</ele>
        <time>2024-05-29T16:02:02.722Z</time>
      </trkpt>
      <trkpt lat="43.05049" lon="-0.67647">
        <ele>397.55</ele>
        <time>2024-05-29T16:02:12.421Z</time>
      </trkpt>
      <trkpt lat="43.0506" lon="-0.67653">
        <ele>397.06</ele>
        <time>2024-05-29T16:02:22.122Z</time>
      </trkpt>
      <trkpt lat="43.05092" lon="-0.67679">
        <ele>396.56</ele>
        <time>2024-05-29T16:02:31.830Z</time>
      </trkpt>
      <trkpt lat="43.05107" lon="-0.67687">
        <ele>396.13</ele>
        <time>2024-05-29T16:02:41.541Z</time>
      </trkpt>
      <trkpt lat="43.05125" lon="-0.67694">
        <ele>395.74</ele>
        <time>2024-05-29T16:02:51.256Z</time>
      </trkpt>
      <trkpt lat="43.05133" lon="-0.67694">
        <ele>395.42</ele>
        <time>2024-05-29T16:03:00.972Z</time>
      </trkpt>
      <trkpt lat="43.05168" lon="-0.67678">
        <ele>395.14</ele>
        <time>2024-05-29T16:03:10.695Z</time>
      </trkpt>
      <trkpt lat="43.05177" lon="-0.67676">
        <ele>394.89</ele>
        <time>2024-05-29T16:03:20.420Z</time>
      </trkpt>
      <trkpt lat="43.05239" lon="-0.67673">
        <ele>394.6</ele>
        <time>2024-05-29T16:03:30.156Z</time>
      </trkpt>
      <trkpt lat="43.05273" lon="-0.67661">
        <ele>394.31</ele>
        <time>2024-05-29T16:03:39.899Z</time>
      </trkpt>
      <trkpt lat="43.05325" lon="-0.67637">
        <ele>394.26</ele>
        <time>2024-05-29T16:03:49.652Z</time>
      </trkpt>
      <trkpt lat="43.05335" lon="-0.67636">
        <ele>394.2</ele>
        <time>2024-05-29T16:03:59.407Z</time>
      </trkpt>
      <trkpt lat="43.05355" lon="-0.67638">
        <ele>394.2</ele>
        <time>2024-05-29T16:04:09.166Z</time>
      </trkpt>
      <trkpt lat="43.05365" lon="-0.67641">
        <ele>394.11</ele>
        <time>2024-05-29T16:04:18.927Z</time>
      </trkpt>
      <trkpt lat="43.05372" lon="-0.67648">
        <ele>394.04</ele>
        <time>2024-05-29T16:04:28.689Z</time>
      </trkpt>
      <trkpt lat="43.05378" lon="-0.67657">
        <ele>393.99</ele>
        <time>2024-05-29T16:04:38.453Z</time>
      </trkpt>
      <trkpt lat="43.05382" lon="-0.6771">
        <ele>394.06</ele>
        <time>2024-05-29T16:04:48.224Z</time>
      </trkpt>
      <trkpt lat="43.05386" lon="-0.67722">
        <ele>394.09</ele>
        <time>2024-05-29T16:04:57.997Z</time>
      </trkpt>
      <trkpt lat="43.05394" lon="-0.67731">
        <ele>394.08</ele>
        <time>2024-05-29T16:05:07.772Z</time>
      </trkpt>
      <trkpt lat="43.0541" lon="-0.67738">
        <ele>394.08</ele>
        <time>2024-05-29T16:05:17.550Z</time>
      </trkpt>
      <trkpt lat="43.05421" lon="-0.67738">
        <ele>394</ele>
        <time>2024-05-29T16:05:27.330Z</time>
      </trkpt>
      <trkpt lat="43.05447" lon="-0.67729">
        <ele>393.72</ele>
        <time>2024-05-29T16:05:37.115Z</time>
      </trkpt>
      <trkpt lat="43.05464" lon="-0.67715">
        <ele>393.47</ele>
        <time>2024-05-29T16:05:46.904Z</time>
      </trkpt>
      <trkpt lat="43.05477" lon="-0.67695">
        <ele>393.28</ele>
        <time>2024-05-29T16:05:56.696Z</time>
      </trkpt>
      <trkpt lat="43.05503" lon="-0.67646">
        <ele>393.2</ele>
        <time>2024-05-29T16:06:06.497Z</time>
      </trkpt>
      <trkpt lat="43.05517" lon="-0.67635">
        <ele>393.09</ele>
        <time>2024-05-29T16:06:16.301Z</time>
      </trkpt>
      <trkpt lat="43.05523" lon="-0.67635">
        <ele>392.97</ele>
        <time>2024-05-29T16:06:26.106Z</time>
      </trkpt>
      <trkpt lat="43.05531" lon="-0.67638">
        <ele>392.79</ele>
        <time>2024-05-29T16:06:35.912Z</time>
      </trkpt>
      <trkpt lat="43.05537" lon="-0.67645">
        <ele>392.58</ele>
        <time>2024-05-29T16:06:45.720Z</time>
      </trkpt>
      <trkpt lat="43.05551" lon="-0.67672">
        <ele>392.36</ele>
        <time>2024-05-29T16:06:55.532Z</time>
      </trkpt>
      <trkpt lat="43.05591" lon="-0.67719">
        <ele>392.37</ele>
        <time>2024-05-29T16:07:05.354Z</time>
      </trkpt>
      <trkpt lat="43.05606" lon="-0.67724">
        <ele>392.18</ele>
        <time>2024-05-29T16:07:15.179Z</time>
      </trkpt>
      <trkpt lat="43.05616" lon="-0.67721">
        <ele>391.92</ele>
        <time>2024-05-29T16:07:25.006Z</time>
      </trkpt>
      <trkpt lat="43.05646" lon="-0.67705">
        <ele>391.56</ele>
        <time>2024-05-29T16:07:34.839Z</time>
      </trkpt>
      <trkpt lat="43.05658" lon="-0.67692">
        <ele>391.23</ele>
        <time>2024-05-29T16:07:44.675Z</time>
      </trkpt>
      <trkpt lat="43.05666" lon="-0.6768">
        <ele>390.89</ele>
        <time>2024-05-29T16:07:54.513Z</time>
      </trkpt>
      <trkpt lat="43.05689" lon="-0.67632">
        <ele>390.65</ele>
        <time>2024-05-29T16:08:04.359Z</time>
      </trkpt>
      <trkpt lat="43.057" lon="-0.67615">
        <ele>390.41</ele>
        <time>2024-05-29T16:08:14.208Z</time>
      </trkpt>
      <trkpt lat="43.0571" lon="-0.67603">
        <ele>390.12</ele>
        <time>2024-05-29T16:08:24.059Z</time>
      </trkpt>
      <trkpt lat="43.0572" lon="-0.67599">
        <ele>389.74</ele>
        <time>2024-05-29T16:08:33.912Z</time>
      </trkpt>
      <trkpt lat="43.05729" lon="-0.67598">
        <ele>389.33</ele>
        <time>2024-05-29T16:08:43.767Z</time>
      </trkpt>
      <trkpt lat="43.05735" lon="-0.67601">
        <ele>388.89</ele>
        <time>2024-05-29T16:08:53.623Z</time>
      </trkpt>
      <trkpt lat="43.05744" lon="-0.67608">
        <ele>388.43</ele>
        <time>2024-05-29T16:09:03.481Z</time>
      </trkpt>
      <trkpt lat="43.05764" lon="-0.67644">
        <ele>387.94</ele>
        <time>2024-05-29T16:09:13.345Z</time>
      </trkpt>
      <trkpt lat="43.05772" lon="-0.67654">
        <ele>387.56</ele>
        <time>2024-05-29T16:09:23.211Z</time>
      </trkpt>
      <trkpt lat="43.05786" lon="-0.67659">
        <ele>387.17</ele>
        <time>2024-05-29T16:09:33.080Z</time>
      </trkpt>
      <trkpt lat="43.05797" lon="-0.67658">
        <ele>386.74</ele>
        <time>2024-05-29T16:09:42.951Z</time>
      </trkpt>
      <trkpt lat="43.05819" lon="-0.67665">
        <ele>386.27</ele>
        <time>2024-05-29T16:09:52.826Z</time>
      </trkpt>
      <trkpt lat="43.05864" lon="-0.67689">
        <ele>385.65</ele>
        <time>2024-05-29T16:10:02.710Z</time>
      </trkpt>
      <trkpt lat="43.05893" lon="-0.67708">
        <ele>384.93</ele>
        <time>2024-05-29T16:10:12.600Z</time>
      </trkpt>
      <trkpt lat="43.0592" lon="-0.67732">
        <ele>384.5</ele>
        <time>2024-05-29T16:10:22.496Z</time>
      </trkpt>
      <trkpt lat="43.0593" lon="-0.67738">
        <ele>384.06</ele>
        <time>2024-05-29T16:10:32.394Z</time>
      </trkpt>
      <trkpt lat="43.0594" lon="-0.67739">
        <ele>383.62</ele>
        <time>2024-05-29T16:10:42.294Z</time>
      </trkpt>
      <trkpt lat="43.05946" lon="-0.67736">
        <ele>383.14</ele>
        <time>2024-05-29T16:10:52.195Z</time>
      </trkpt>
      <trkpt lat="43.05953" lon="-0.67728">
        <ele>382.62</ele>
        <time>2024-05-29T16:11:02.098Z</time>
      </trkpt>
      <trkpt lat="43.05987" lon="-0.67653">
        <ele>381.7</ele>
        <time>2024-05-29T16:11:12.013Z</time>
      </trkpt>
      <trkpt lat="43.05995" lon="-0.67632">
        <ele>381.11</ele>
        <time>2024-05-29T16:11:21.931Z</time>
      </trkpt>
      <trkpt lat="43.06007" lon="-0.67607">
        <ele>380.6</ele>
        <time>2024-05-29T16:11:31.853Z</time>
      </trkpt>
      <trkpt lat="43.06019" lon="-0.67591">
        <ele>380.19</ele>
        <time>2024-05-29T16:11:41.778Z</time>
      </trkpt>
      <trkpt lat="43.06061" lon="-0.67555">
        <ele>379.91</ele>
        <time>2024-05-29T16:11:51.713Z</time>
      </trkpt>
      <trkpt lat="43.06104" lon="-0.67527">
        <ele>379.61</ele>
        <time>2024-05-29T16:12:01.656Z</time>
      </trkpt>
      <trkpt lat="43.06124" lon="-0.6751">
        <ele>379.41</ele>
        <time>2024-05-29T16:12:11.604Z</time>
      </trkpt>
      <trkpt lat="43.06144" lon="-0.6749">
        <ele>379.33</ele>
        <time>2024-05-29T16:12:21.556Z</time>
      </trkpt>
      <trkpt lat="43.06169" lon="-0.67463">
        <ele>379.21</ele>
        <time>2024-05-29T16:12:31.514Z</time>
      </trkpt>
      <trkpt lat="43.06223" lon="-0.67391">
        <ele>378.84</ele>
        <time>2024-05-29T16:12:41.486Z</time>
      </trkpt>
      <trkpt lat="43.0625" lon="-0.67342">
        <ele>378.44</ele>
        <time>2024-05-29T16:12:51.467Z</time>
      </trkpt>
      <trkpt lat="43.06279" lon="-0.67308">
        <ele>377.86</ele>
        <time>2024-05-29T16:13:01.455Z</time>
      </trkpt>
      <trkpt lat="43.06298" lon="-0.67294">
        <ele>377.6</ele>
        <time>2024-05-29T16:13:11.447Z</time>
      </trkpt>
      <trkpt lat="43.06316" lon="-0.67286">
        <ele>377.27</ele>
        <time>2024-05-29T16:13:21.442Z</time>
      </trkpt>
      <trkpt lat="43.06343" lon="-0.6728">
        <ele>376.87</ele>
        <time>2024-05-29T16:13:31.442Z</time>
      </trkpt>
      <trkpt lat="43.0641" lon="-0.67288">
        <ele>376.8</ele>
        <time>2024-05-29T16:13:41.455Z</time>
      </trkpt>
      <trkpt lat="43.06454" lon="-0.67281">
        <ele>376.56</ele>
        <time>2024-05-29T16:13:51.476Z</time>
      </trkpt>
      <trkpt lat="43.06498" lon="-0.67265">
        <ele>376.11</ele>
        <time>2024-05-29T16:14:01.506Z</time>
      </trkpt>
      <trkpt lat="43.06526" lon="-0.67251">
        <ele>375.77</ele>
        <time>2024-05-29T16:14:11.541Z</time>
      </trkpt>
      <trkpt lat="43.0655" lon="-0.67234">
        <ele>375.53</ele>
        <time>2024-05-29T16:14:21.581Z</time>
      </trkpt>
      <trkpt lat="43.0656" lon="-0.67225">
        <ele>375.31</ele>
        <time>2024-05-29T16:14:31.624Z</time>
      </trkpt>
      <trkpt lat="43.06576" lon="-0.67204">
        <ele>374.94</ele>
        <time>2024-05-29T16:14:41.671Z</time>
      </trkpt>
      <trkpt lat="43.06623" lon="-0.67134">
        <ele>374.61</ele>
        <time>2024-05-29T16:14:51.731Z</time>
      </trkpt>
      <trkpt lat="43.06631" lon="-0.67126">
        <ele>374.5</ele>
        <time>2024-05-29T16:15:01.792Z</time>
      </trkpt>
      <trkpt lat="43.06641" lon="-0.67121">
        <ele>374.37</ele>
        <time>2024-05-29T16:15:11.855Z</time>
      </trkpt>
      <trkpt lat="43.06652" lon="-0.67122">
        <ele>374.23</ele>
        <time>2024-05-29T16:15:21.920Z</time>
      </trkpt>
      <trkpt lat="43.06658" lon="-0.67125">
        <ele>374.13</ele>
        <time>2024-05-29T16:15:31.987Z</time>
      </trkpt>
      <trkpt lat="43.0667" lon="-0.67136">
        <ele>374.01</ele>
        <time>2024-05-29T16:15:42.056Z</time>
      </trkpt>
      <trkpt lat="43.06701" lon="-0.67174">
        <ele>374.07</ele>
        <time>2024-05-29T16:15:52.133Z</time>
      </trkpt>
      <trkpt lat="43.06718" lon="-0.6719">
        <ele>374.37</ele>
        <time>2024-05-29T16:16:02.214Z</time>
      </trkpt>
      <trkpt lat="43.06727" lon="-0.67194">
        <ele>374.54</ele>
        <time>2024-05-29T16:16:12.297Z</time>
      </trkpt>
      <trkpt lat="43.06736" lon="-0.67195">
        <ele>374.66</ele>
        <time>2024-05-29T16:16:22.381Z</time>
      </trkpt>
      <trkpt lat="43.06744" lon="-0.67193">
        <ele>374.67</ele>
        <time>2024-05-29T16:16:32.467Z</time>
      </trkpt>
      <trkpt lat="43.06755" lon="-0.67189">
        <ele>374.65</ele>
        <time>2024-05-29T16:16:42.555Z</time>
      </trkpt>
      <trkpt lat="43.0677" lon="-0.67178">
        <ele>374.5</ele>
        <time>2024-05-29T16:16:52.646Z</time>
      </trkpt>
      <trkpt lat="43.06811" lon="-0.67134">
        <ele>374.21</ele>
        <time>2024-05-29T16:17:02.747Z</time>
      </trkpt>
      <trkpt lat="43.06841" lon="-0.67106">
        <ele>374.2</ele>
        <time>2024-05-29T16:17:12.855Z</time>
      </trkpt>
      <trkpt lat="43.06851" lon="-0.671">
        <ele>374.2</ele>
        <time>2024-05-29T16:17:22.965Z</time>
      </trkpt>
      <trkpt lat="43.06867" lon="-0.67098">
        <ele>374.16</ele>
        <time>2024-05-29T16:17:33.078Z</time>
      </trkpt>
      <trkpt lat="43.06894" lon="-0.67105">
        <ele>374.38</ele>
        <time>2024-05-29T16:17:43.196Z</time>
      </trkpt>
      <trkpt lat="43.06905" lon="-0.67104">
        <ele>374.51</ele>
        <time>2024-05-29T16:17:53.316Z</time>
      </trkpt>
      <trkpt lat="43.06924" lon="-0.67094">
        <ele>374.6</ele>
        <time>2024-05-29T16:18:03.440Z</time>
      </trkpt>
      <trkpt lat="43.06932" lon="-0.67085">
        <ele>374.61</ele>
        <time>2024-05-29T16:18:13.566Z</time>
      </trkpt>
      <trkpt lat="43.0694" lon="-0.67072">
        <ele>374.63</ele>
        <time>2024-05-29T16:18:23.694Z</time>
      </trkpt>
      <trkpt lat="43.06965" lon="-0.67008">
        <ele>374.46</ele>
        <time>2024-05-29T16:18:33.832Z</time>
      </trkpt>
      <trkpt lat="43.06971" lon="-0.67">
        <ele>374.52</ele>
        <time>2024-05-29T16:18:43.971Z</time>
      </trkpt>
      <trkpt lat="43.0698" lon="-0.66993">
        <ele>374.61</ele>
        <time>2024-05-29T16:18:54.112Z</time>
      </trkpt>
      <trkpt lat="43.06987" lon="-0.66991">
        <ele>374.67</ele>
        <time>2024-05-29T16:19:04.255Z</time>
      </trkpt>
      <trkpt lat="43.06994" lon="-0.66991">
        <ele>374.78</ele>
        <time>2024-05-29T16:19:14.399Z</time>
      </trkpt>
      <trkpt lat="43.07003" lon="-0.66995">
        <ele>374.84</ele>
        <time>2024-05-29T16:19:24.545Z</time>
      </trkpt>
      <trkpt lat="43.07056" lon="-0.67035">
        <ele>375.15</ele>
        <time>2024-05-29T16:19:34.702Z</time>
      </trkpt>
      <trkpt lat="43.07091" lon="-0.67052">
        <ele>375.17</ele>
        <time>2024-05-29T16:19:44.866Z</time>
      </trkpt>
      <trkpt lat="43.07104" lon="-0.67056">
        <ele>375.16</ele>
        <time>2024-05-29T16:19:55.032Z</time>
      </trkpt>
      <trkpt lat="43.07119" lon="-0.67058">
        <ele>375.2</ele>
        <time>2024-05-29T16:20:05.201Z</time>
      </trkpt>
      <trkpt lat="43.0713" lon="-0.67056">
        <ele>375.21</ele>
        <time>2024-05-29T16:20:15.372Z</time>
      </trkpt>
      <trkpt lat="43.07142" lon="-0.67052">
        <ele>375.2</ele>
        <time>2024-05-29T16:20:25.545Z</time>
      </trkpt>
      <trkpt lat="43.07154" lon="-0.67045">
        <ele>375.15</ele>
        <time>2024-05-29T16:20:35.721Z</time>
      </trkpt>
      <trkpt lat="43.07187" lon="-0.67016">
        <ele>375.09</ele>
        <time>2024-05-29T16:20:45.904Z</time>
      </trkpt>
      <trkpt lat="43.07209" lon="-0.67004">
        <ele>375.09</ele>
        <time>2024-05-29T16:20:56.092Z</time>
      </trkpt>
      <trkpt lat="43.07219" lon="-0.67004">
        <ele>375.15</ele>
        <time>2024-05-29T16:21:06.281Z</time>
      </trkpt>
      <trkpt lat="43.07229" lon="-0.67007">
        <ele>375.21</ele>
        <time>2024-05-29T16:21:16.472Z</time>
      </trkpt>
      <trkpt lat="43.07239" lon="-0.67015">
        <ele>375.26</ele>
        <time>2024-05-29T16:21:26.666Z</time>
      </trkpt>
      <trkpt lat="43.0725" lon="-0.67029">
        <ele>375.31</ele>
        <time>2024-05-29T16:21:36.862Z</time>
      </trkpt>
      <trkpt lat="43.07266" lon="-0.67056">
        <ele>375.44</ele>
        <time>2024-05-29T16:21:47.063Z</time>
      </trkpt>
      <trkpt lat="43.07289" lon="-0.67069">
        <ele>375.67</ele>
        <time>2024-05-29T16:21:57.269Z</time>
      </trkpt>
      <trkpt lat="43.07307" lon="-0.67074">
        <ele>375.81</ele>
        <time>2024-05-29T16:22:07.478Z</time>
      </trkpt>
      <trkpt lat="43.0736" lon="-0.67077">
        <ele>375.79</ele>
        <time>2024-05-29T16:22:17.697Z</time>
      </trkpt>
      <trkpt lat="43.07377" lon="-0.67075">
        <ele>375.79</ele>
        <time>2024-05-29T16:22:27.919Z</time>
      </trkpt>
      <trkpt lat="43.07426" lon="-0.67058">
        <ele>375.74</ele>
        <time>2024-05-29T16:22:38.151Z</time>
      </trkpt>
      <trkpt lat="43.07442" lon="-0.67056">
        <ele>375.65</ele>
        <time>2024-05-29T16:22:48.386Z</time>
      </trkpt>
      <trkpt lat="43.0745" lon="-0.67062">
        <ele>375.41</ele>
        <time>2024-05-29T16:22:58.622Z</time>
      </trkpt>
      <trkpt lat="43.07473" lon="-0.67085">
        <ele>375.09</ele>
        <time>2024-05-29T16:23:08.864Z</time>
      </trkpt>
      <trkpt lat="43.0749" lon="-0.67098">
        <ele>374.82</ele>
        <time>2024-05-29T16:23:19.109Z</time>
      </trkpt>
      <trkpt lat="43.07503" lon="-0.67104">
        <ele>374.47</ele>
        <time>2024-05-29T16:23:29.357Z</time>
      </trkpt>
      <trkpt lat="43.07512" lon="-0.67107">
        <ele>373.96</ele>
        <time>2024-05-29T16:23:39.606Z</time>
      </trkpt>
      <trkpt lat="43.0752" lon="-0.67105">
        <ele>373.4</ele>
        <time>2024-05-29T16:23:49.857Z</time>
      </trkpt>
      <trkpt lat="43.0753" lon="-0.67099">
        <ele>372.77</ele>
        <time>2024-05-29T16:24:00.110Z</time>
      </trkpt>
      <trkpt lat="43.07562" lon="-0.67069">
        <ele>372.08</ele>
        <time>2024-05-29T16:24:10.370Z</time>
      </trkpt>
      <trkpt lat="43.07577" lon="-0.67058">
        <ele>371.36</ele>
        <time>2024-05-29T16:24:20.633Z</time>
      </trkpt>
      <trkpt lat="43.07607" lon="-0.67044">
        <ele>370.72</ele>
        <time>2024-05-29T16:24:30.902Z</time>
      </trkpt>
      <trkpt lat="43.0762" lon="-0.67043">
        <ele>369.85</ele>
        <time>2024-05-29T16:24:41.174Z</time>
      </trkpt>
      <trkpt lat="43.07631" lon="-0.67046">
        <ele>368.85</ele>
        <time>2024-05-29T16:24:51.448Z</time>
      </trkpt>
      <trkpt lat="43.07662" lon="-0.67063">
        <ele>367.59</ele>
        <time>2024-05-29T16:25:01.728Z</time>
      </trkpt>
      <trkpt lat="43.07689" lon="-0.67074">
        <ele>366.27</ele>
        <time>2024-05-29T16:25:12.013Z</time>
      </trkpt>
      <trkpt lat="43.07728" lon="-0.67075">
        <ele>364.71</ele>
        <time>2024-05-29T16:25:22.306Z</time>
      </trkpt>
      <trkpt lat="43.07801" lon="-0.67069">
        <ele>363.29</ele>
        <time>2024-05-29T16:25:32.612Z</time>
      </trkpt>
      <trkpt lat="43.07825" lon="-0.67079">
        <ele>361.89</ele>
        <time>2024-05-29T16:25:42.923Z</time>
      </trkpt>
      <trkpt lat="43.07838" lon="-0.67089">
        <ele>360.42</ele>
        <time>2024-05-29T16:25:53.237Z</time>
      </trkpt>
      <trkpt lat="43.07855" lon="-0.67107">
        <ele>358.91</ele>
        <time>2024-05-29T16:26:03.555Z</time>
      </trkpt>
      <trkpt lat="43.07866" lon="-0.67123">
        <ele>357.39</ele>
        <time>2024-05-29T16:26:13.876Z</time>
      </trkpt>
      <trkpt lat="43.07913" lon="-0.67225">
        <ele>355.81</ele>
        <time>2024-05-29T16:26:24.213Z</time>
      </trkpt>
      <trkpt lat="43.07926" lon="-0.6725">
        <ele>354.37</ele>
        <time>2024-05-29T16:26:34.554Z</time>
      </trkpt>
      <trkpt lat="43.07936" lon="-0.67263">
        <ele>352.95</ele>
        <time>2024-05-29T16:26:44.898Z</time>
      </trkpt>
      <trkpt lat="43.0795" lon="-0.67275">
        <ele>351.57</ele>
        <time>2024-05-29T16:26:55.245Z</time>
      </trkpt>
      <trkpt lat="43.07963" lon="-0.67283">
        <ele>350.06</ele>
        <time>2024-05-29T16:27:05.594Z</time>
      </trkpt>
      <trkpt lat="43.07997" lon="-0.67287">
        <ele>348.72</ele>
        <time>2024-05-29T16:27:15.950Z</time>
      </trkpt>
      <trkpt lat="43.0801" lon="-0.67284">
        <ele>347.23</ele>
        <time>2024-05-29T16:27:26.308Z</time>
      </trkpt>
      <trkpt lat="43.08024" lon="-0.67277">
        <ele>345.6</ele>
        <time>2024-05-29T16:27:36.669Z</time>
      </trkpt>
      <trkpt lat="43.0808" lon="-0.67235">
        <ele>343.46</ele>
        <time>2024-05-29T16:27:47.042Z</time>
      </trkpt>
      <trkpt lat="43.08101" lon="-0.67215">
        <ele>341.96</ele>
        <time>2024-05-29T16:27:57.420Z</time>
      </trkpt>
      <trkpt lat="43.08124" lon="-0.67185">
        <ele>340.6</ele>
        <time>2024-05-29T16:28:07.804Z</time>
      </trkpt>
      <trkpt lat="43.08155" lon="-0.67115">
        <ele>339.01</ele>
        <time>2024-05-29T16:28:18.199Z</time>
      </trkpt>
      <trkpt lat="43.08166" lon="-0.67095">
        <ele>337.55</ele>
        <time>2024-05-29T16:28:28.597Z</time>
      </trkpt>
      <trkpt lat="43.08203" lon="-0.67046">
        <ele>336.07</ele>
        <time>2024-05-29T16:28:39.005Z</time>
      </trkpt>
      <trkpt lat="43.08257" lon="-0.66951">
        <ele>334.74</ele>
        <time>2024-05-29T16:28:49.429Z</time>
      </trkpt>
      <trkpt lat="43.08284" lon="-0.66899">
        <ele>333.58</ele>
        <time>2024-05-29T16:28:59.862Z</time>
      </trkpt>
      <trkpt lat="43.08305" lon="-0.66871">
        <ele>332.46</ele>
        <time>2024-05-29T16:29:10.300Z</time>
      </trkpt>
      <trkpt lat="43.08329" lon="-0.6685">
        <ele>331.37</ele>
        <time>2024-05-29T16:29:20.744Z</time>
      </trkpt>
      <trkpt lat="43.08354" lon="-0.66831">
        <ele>330.37</ele>
        <time>2024-05-29T16:29:31.193Z</time>
      </trkpt>
      <trkpt lat="43.08377" lon="-0.66817">
        <ele>329.5</ele>
        <time>2024-05-29T16:29:41.647Z</time>
      </trkpt>
      <trkpt lat="43.08399" lon="-0.66807">
        <ele>328.68</ele>
        <time>2024-05-29T16:29:52.105Z</time>
      </trkpt>
      <trkpt lat="43.08461" lon="-0.66787">
        <ele>327.84</ele>
        <time>2024-05-29T16:30:02.575Z</time>
      </trkpt>
      <trkpt lat="43.08482" lon="-0.66784">
        <ele>327.08</ele>
        <time>2024-05-29T16:30:13.049Z</time>
      </trkpt>
      <trkpt lat="43.08504" lon="-0.6679">
        <ele>326.44</ele>
        <time>2024-05-29T16:30:23.527Z</time>
      </trkpt>
      <trkpt lat="43.08518" lon="-0.66799">
        <ele>325.86</ele>
        <time>2024-05-29T16:30:34.008Z</time>
      </trkpt>
      <trkpt lat="43.08531" lon="-0.66813">
        <ele>325.3</ele>
        <time>2024-05-29T16:30:44.492Z</time>
      </trkpt>
      <trkpt lat="43.08545" lon="-0.66831">
        <ele>324.79</ele>
        <time>2024-05-29T16:30:54.979Z</time>
      </trkpt>
      <trkpt lat="43.08556" lon="-0.6685">
        <ele>324.43</ele>
        <time>2024-05-29T16:31:05.470Z</time>
      </trkpt>
      <trkpt lat="43.08568" lon="-0.66875">
        <ele>324.15</ele>
        <time>2024-05-29T16:31:15.965Z</time>
      </trkpt>
      <trkpt lat="43.0859" lon="-0.66937">
        <ele>324.08</ele>
        <time>2024-05-29T16:31:26.469Z</time>
      </trkpt>
      <trkpt lat="43.08596" lon="-0.66949">
        <ele>323.97</ele>
        <time>2024-05-29T16:31:36.975Z</time>
      </trkpt>
      <trkpt lat="43.08608" lon="-0.66959">
        <ele>323.94</ele>
        <time>2024-05-29T16:31:47.484Z</time>
      </trkpt>
      <trkpt lat="43.08615" lon="-0.66961">
        <ele>323.92</ele>
        <time>2024-05-29T16:31:57.994Z</time>
      </trkpt>
      <trkpt lat="43.08689" lon="-0.66947">
        <ele>323.92</ele>
        <time>2024-05-29T16:32:08.518Z</time>
      </trkpt>
      <trkpt lat="43.08731" lon="-0.66932">
        <ele>323.82</ele>
        <time>2024-05-29T16:32:19.050Z</time>
      </trkpt>
      <trkpt lat="43.08749" lon="-0.66935">
        <ele>323.93</ele>
        <time>2024-05-29T16:32:29.585Z</time>
      </trkpt>
      <trkpt lat="43.08781" lon="-0.66946">
        <ele>324.35</ele>
        <time>2024-05-29T16:32:40.127Z</time>
      </trkpt>
      <trkpt lat="43.0884" lon="-0.66955">
        <ele>324.69</ele>
        <time>2024-05-29T16:32:50.680Z</time>
      </trkpt>
      <trkpt lat="43.08874" lon="-0.66953">
        <ele>324.93</ele>
        <time>2024-05-29T16:33:01.239Z</time>
      </trkpt>
      <trkpt lat="43.08986" lon="-0.66941">
        <ele>325.15</ele>
        <time>2024-05-29T16:33:11.819Z</time>
      </trkpt>
      <trkpt lat="43.09047" lon="-0.66929">
        <ele>325.21</ele>
        <time>2024-05-29T16:33:22.410Z</time>
      </trkpt>
      <trkpt lat="43.09073" lon="-0.66929">
        <ele>325.63</ele>
        <time>2024-05-29T16:33:33.006Z</time>
      </trkpt>
      <trkpt lat="43.09148" lon="-0.66939">
        <ele>326.02</ele>
        <time>2024-05-29T16:33:43.616Z</time>
      </trkpt>
      <trkpt lat="43.09173" lon="-0.66945">
        <ele>326.47</ele>
        <time>2024-05-29T16:33:54.231Z</time>
      </trkpt>
      <trkpt lat="43.09231" lon="-0.6697">
        <ele>327.04</ele>
        <time>2024-05-29T16:34:04.857Z</time>
      </trkpt>
      <trkpt lat="43.09273" lon="-0.66981">
        <ele>327.67</ele>
        <time>2024-05-29T16:34:15.491Z</time>
      </trkpt>
      <trkpt lat="43.09306" lon="-0.67003">
        <ele>328.32</ele>
        <time>2024-05-29T16:34:26.132Z</time>
      </trkpt>
      <trkpt lat="43.09317" lon="-0.67007">
        <ele>329.03</ele>
        <time>2024-05-29T16:34:36.775Z</time>
      </trkpt>
      <trkpt lat="43.09381" lon="-0.67019">
        <ele>330.2</ele>
        <time>2024-05-29T16:34:47.430Z</time>
      </trkpt>
      <trkpt lat="43.09433" lon="-0.67033">
        <ele>331.28</ele>
        <time>2024-05-29T16:34:58.095Z</time>
      </trkpt>
      <trkpt lat="43.09494" lon="-0.6702">
        <ele>332.24</ele>
        <time>2024-05-29T16:35:08.771Z</time>
      </trkpt>
      <trkpt lat="43.09547" lon="-0.67015">
        <ele>333.24</ele>
        <time>2024-05-29T16:35:19.457Z</time>
      </trkpt>
      <trkpt lat="43.09588" lon="-0.67017">
        <ele>334.09</ele>
        <time>2024-05-29T16:35:30.151Z</time>
      </trkpt>
      <trkpt lat="43.0967" lon="-0.67037">
        <ele>334.94</ele>
        <time>2024-05-29T16:35:40.860Z</time>
      </trkpt>
      <trkpt lat="43.0967" lon="-0.6705">
        <ele>335.72</ele>
        <time>2024-05-29T16:35:51.571Z</time>
      </trkpt>
      <trkpt lat="43.09677" lon="-0.67099">
        <ele>336.38</ele>
        <time>2024-05-29T16:36:02.289Z</time>
      </trkpt>
      <trkpt lat="43.09677" lon="-0.67115">
        <ele>337.16</ele>
        <time>2024-05-29T16:36:13.009Z</time>
      </trkpt>
      <trkpt lat="43.09672" lon="-0.67144">
        <ele>337.92</ele>
        <time>2024-05-29T16:36:23.733Z</time>
      </trkpt>
      <trkpt lat="43.09662" lon="-0.67166">
        <ele>338.7</ele>
        <time>2024-05-29T16:36:34.461Z</time>
      </trkpt>
      <trkpt lat="43.09652" lon="-0.67179">
        <ele>339.45</ele>
        <time>2024-05-29T16:36:45.191Z</time>
      </trkpt>
      <trkpt lat="43.09652" lon="-0.67179">
        <ele>339.46</ele>
        <time>2024-05-29T16:36:55.921Z</time>
      </trkpt>
      <trkpt lat="43.09652" lon="-0.67179">
        <ele>339.47</ele>
        <time>2024-05-29T16:37:06.651Z</time>
      </trkpt>
      <trkpt lat="43.09652" lon="-0.67179">
        <ele>339.48</ele>
        <time>2024-05-29T16:37:17.381Z</time>
      </trkpt>
      <trkpt lat="43.09609" lon="-0.67212">
        <ele>340.37</ele>
        <time>2024-05-29T16:37:28.121Z</time>
      </trkpt>
      <trkpt lat="43.09594" lon="-0.67234">
        <ele>341.18</ele>
        <time>2024-05-29T16:37:38.865Z</time>
      </trkpt>
      <trkpt lat="43.09584" lon="-0.67259">
        <ele>341.97</ele>
        <time>2024-05-29T16:37:49.613Z</time>
      </trkpt>
      <trkpt lat="43.09579" lon="-0.67304">
        <ele>342.73</ele>
        <time>2024-05-29T16:38:00.367Z</time>
      </trkpt>
      <trkpt lat="43.0955" lon="-0.68081">
        <ele>343.94</ele>
        <time>2024-05-29T16:38:11.227Z</time>
      </trkpt>
      <trkpt lat="43.09539" lon="-0.68276">
        <ele>344.89</ele>
        <time>2024-05-29T16:38:22.113Z</time>
      </trkpt>
      <trkpt lat="43.09535" lon="-0.68293">
        <ele>345.46</ele>
        <time>2024-05-29T16:38:33.002Z</time>
      </trkpt>
      <trkpt lat="43.09509" lon="-0.68363">
        <ele>345.75</ele>
        <time>2024-05-29T16:38:43.902Z</time>
      </trkpt>
      <trkpt lat="43.09495" lon="-0.6839">
        <ele>346.34</ele>
        <time>2024-05-29T16:38:54.806Z</time>
      </trkpt>
      <trkpt lat="43.09475" lon="-0.6842">
        <ele>346.92</ele>
        <time>2024-05-29T16:39:05.716Z</time>
      </trkpt>
      <trkpt lat="43.09465" lon="-0.68429">
        <ele>347.49</ele>
        <time>2024-05-29T16:39:16.628Z</time>
      </trkpt>
      <trkpt lat="43.09453" lon="-0.68435">
        <ele>348.08</ele>
        <time>2024-05-29T16:39:27.542Z</time>
      </trkpt>
      <trkpt lat="43.09416" lon="-0.68447">
        <ele>348.62</ele>
        <time>2024-05-29T16:39:38.463Z</time>
      </trkpt>
      <trkpt lat="43.09407" lon="-0.68453">
        <ele>349.22</ele>
        <time>2024-05-29T16:39:49.386Z</time>
      </trkpt>
      <trkpt lat="43.09399" lon="-0.68461">
        <ele>349.82</ele>
        <time>2024-05-29T16:40:00.311Z</time>
      </trkpt>
      <trkpt lat="43.09393" lon="-0.68472">
        <ele>350.46</ele>
        <time>2024-05-29T16:40:11.238Z</time>
      </trkpt>
      <trkpt lat="43.0939" lon="-0.68489">
        <ele>351.13</ele>
        <time>2024-05-29T16:40:22.167Z</time>
      </trkpt>
      <trkpt lat="43.09378" lon="-0.68579">
        <ele>351.9</ele>
        <time>2024-05-29T16:40:33.109Z</time>
      </trkpt>
      <trkpt lat="43.09372" lon="-0.68595">
        <ele>352.61</ele>
        <time>2024-05-29T16:40:44.053Z</time>
      </trkpt>
      <trkpt lat="43.09316" lon="-0.68694">
        <ele>353.31</ele>
        <time>2024-05-29T16:40:55.014Z</time>
      </trkpt>
      <trkpt lat="43.09304" lon="-0.68727">
        <ele>354.03</ele>
        <time>2024-05-29T16:41:05.980Z</time>
      </trkpt>
      <trkpt lat="43.09299" lon="-0.68747">
        <ele>354.84</ele>
        <time>2024-05-29T16:41:16.949Z</time>
      </trkpt>
      <trkpt lat="43.09295" lon="-0.68776">
        <ele>355.66</ele>
        <time>2024-05-29T16:41:27.922Z</time>
      </trkpt>
      <trkpt lat="43.09294" lon="-0.68803">
        <ele>356.53</ele>
        <time>2024-05-29T16:41:38.899Z</time>
      </trkpt>
      <trkpt lat="43.09294" lon="-0.68859">
        <ele>357.59</ele>
        <time>2024-05-29T16:41:49.884Z</time>
      </trkpt>
      <trkpt lat="43.0929" lon="-0.68901">
        <ele>358.88</ele>
        <time>2024-05-29T16:42:00.874Z</time>
      </trkpt>
      <trkpt lat="43.09285" lon="-0.68927">
        <ele>360.02</ele>
        <time>2024-05-29T16:42:11.868Z</time>
      </trkpt>
      <trkpt lat="43.09279" lon="-0.68946">
        <ele>361.07</ele>
        <time>2024-05-29T16:42:22.865Z</time>
      </trkpt>
      <trkpt lat="43.0927" lon="-0.68965">
        <ele>362.09</ele>
        <time>2024-05-29T16:42:33.865Z</time>
      </trkpt>
      <trkpt lat="43.0925" lon="-0.69">
        <ele>363.11</ele>
        <time>2024-05-29T16:42:44.871Z</time>
      </trkpt>
      <trkpt lat="43.09203" lon="-0.69168">
        <ele>364.15</ele>
        <time>2024-05-29T16:42:55.901Z</time>
      </trkpt>
      <trkpt lat="43.09199" lon="-0.69196">
        <ele>365.4</ele>
        <time>2024-05-29T16:43:06.935Z</time>
      </trkpt>
      <trkpt lat="43.09199" lon="-0.69224">
        <ele>366.66</ele>
        <time>2024-05-29T16:43:17.973Z</time>
      </trkpt>
      <trkpt lat="43.09203" lon="-0.69271">
        <ele>368.03</ele>
        <time>2024-05-29T16:43:29.018Z</time>
      </trkpt>
      <trkpt lat="43.0921" lon="-0.69317">
        <ele>369.29</ele>
        <time>2024-05-29T16:43:40.069Z</time>
      </trkpt>
      <trkpt lat="43.09239" lon="-0.6941">
        <ele>370.44</ele>
        <time>2024-05-29T16:43:51.134Z</time>
      </trkpt>
      <trkpt lat="43.09243" lon="-0.69434">
        <ele>371.75</ele>
        <time>2024-05-29T16:44:02.202Z</time>
      </trkpt>
      <trkpt lat="43.09246" lon="-0.69478">
        <ele>373.13</ele>
        <time>2024-05-29T16:44:13.276Z</time>
      </trkpt>
      <trkpt lat="43.09247" lon="-0.69542">
        <ele>374.85</ele>
        <time>2024-05-29T16:44:24.359Z</time>
      </trkpt>
      <trkpt lat="43.09249" lon="-0.69557">
        <ele>376.24</ele>
        <time>2024-05-29T16:44:35.444Z</time>
      </trkpt>
      <trkpt lat="43.09259" lon="-0.69588">
        <ele>377.56</ele>
        <time>2024-05-29T16:44:46.534Z</time>
      </trkpt>
      <trkpt lat="43.09262" lon="-0.69607">
        <ele>378.98</ele>
        <time>2024-05-29T16:44:57.626Z</time>
      </trkpt>
      <trkpt lat="43.0926" lon="-0.69631">
        <ele>380.47</ele>
        <time>2024-05-29T16:45:08.722Z</time>
      </trkpt>
      <trkpt lat="43.09238" lon="-0.6974">
        <ele>382.2</ele>
        <time>2024-05-29T16:45:19.833Z</time>
      </trkpt>
      <trkpt lat="43.09231" lon="-0.69761">
        <ele>383.62</ele>
        <time>2024-05-29T16:45:30.947Z</time>
      </trkpt>
      <trkpt lat="43.09225" lon="-0.69774">
        <ele>385.05</ele>
        <time>2024-05-29T16:45:42.063Z</time>
      </trkpt>
      <trkpt lat="43.09204" lon="-0.69792">
        <ele>386.67</ele>
        <time>2024-05-29T16:45:53.184Z</time>
      </trkpt>
      <trkpt lat="43.09199" lon="-0.69798">
        <ele>388.01</ele>
        <time>2024-05-29T16:46:04.306Z</time>
      </trkpt>
      <trkpt lat="43.09198" lon="-0.69806">
        <ele>389.26</ele>
        <time>2024-05-29T16:46:15.429Z</time>
      </trkpt>
      <trkpt lat="43.092" lon="-0.69819">
        <ele>390.46</ele>
        <time>2024-05-29T16:46:26.554Z</time>
      </trkpt>
      <trkpt lat="43.09205" lon="-0.69825">
        <ele>391.62</ele>
        <time>2024-05-29T16:46:37.680Z</time>
      </trkpt>
      <trkpt lat="43.09219" lon="-0.69833">
        <ele>392.65</ele>
        <time>2024-05-29T16:46:48.809Z</time>
      </trkpt>
      <trkpt lat="43.09225" lon="-0.6984">
        <ele>393.73</ele>
        <time>2024-05-29T16:46:59.939Z</time>
      </trkpt>
      <trkpt lat="43.0923" lon="-0.69852">
        <ele>394.8</ele>
        <time>2024-05-29T16:47:11.071Z</time>
      </trkpt>
      <trkpt lat="43.09233" lon="-0.69882">
        <ele>395.92</ele>
        <time>2024-05-29T16:47:22.207Z</time>
      </trkpt>
      <trkpt lat="43.09233" lon="-0.69905">
        <ele>396.99</ele>
        <time>2024-05-29T16:47:33.347Z</time>
      </trkpt>
      <trkpt lat="43.0923" lon="-0.69926">
        <ele>398.07</ele>
        <time>2024-05-29T16:47:44.490Z</time>
      </trkpt>
      <trkpt lat="43.09223" lon="-0.6995">
        <ele>399.16</ele>
        <time>2024-05-29T16:47:55.636Z</time>
      </trkpt>
      <trkpt lat="43.09215" lon="-0.69966">
        <ele>400.26</ele>
        <time>2024-05-29T16:48:06.785Z</time>
      </trkpt>
      <trkpt lat="43.09199" lon="-0.69983">
        <ele>401.38</ele>
        <time>2024-05-29T16:48:17.937Z</time>
      </trkpt>
      <trkpt lat="43.09166" lon="-0.70008">
        <ele>402.62</ele>
        <time>2024-05-29T16:48:29.096Z</time>
      </trkpt>
      <trkpt lat="43.09161" lon="-0.70022">
        <ele>403.62</ele>
        <time>2024-05-29T16:48:40.258Z</time>
      </trkpt>
      <trkpt lat="43.09161" lon="-0.70028">
        <ele>404.54</ele>
        <time>2024-05-29T16:48:51.420Z</time>
      </trkpt>
      <trkpt lat="43.09162" lon="-0.70035">
        <ele>405.44</ele>
        <time>2024-05-29T16:49:02.583Z</time>
      </trkpt>
      <trkpt lat="43.09166" lon="-0.70042">
        <ele>406.31</ele>
        <time>2024-05-29T16:49:13.748Z</time>
      </trkpt>
      <trkpt lat="43.09173" lon="-0.70044">
        <ele>407.12</ele>
        <time>2024-05-29T16:49:24.914Z</time>
      </trkpt>
      <trkpt lat="43.09193" lon="-0.70041">
        <ele>407.82</ele>
        <time>2024-05-29T16:49:36.084Z</time>
      </trkpt>
      <trkpt lat="43.09219" lon="-0.7004">
        <ele>408.46</ele>
        <time>2024-05-29T16:49:47.259Z</time>
      </trkpt>
      <trkpt lat="43.09228" lon="-0.70044">
        <ele>409.2</ele>
        <time>2024-05-29T16:49:58.435Z</time>
      </trkpt>
      <trkpt lat="43.09235" lon="-0.70057">
        <ele>409.95</ele>
        <time>2024-05-29T16:50:09.613Z</time>
      </trkpt>
      <trkpt lat="43.09236" lon="-0.70068">
        <ele>410.75</ele>
        <time>2024-05-29T16:50:20.793Z</time>
      </trkpt>
      <trkpt lat="43.09233" lon="-0.70084">
        <ele>411.6</ele>
        <time>2024-05-29T16:50:31.975Z</time>
      </trkpt>
      <trkpt lat="43.09223" lon="-0.70105">
        <ele>412.48</ele>
        <time>2024-05-29T16:50:43.161Z</time>
      </trkpt>
      <trkpt lat="43.09208" lon="-0.70129">
        <ele>413.39</ele>
        <time>2024-05-29T16:50:54.351Z</time>
      </trkpt>
      <trkpt lat="43.09135" lon="-0.70201">
        <ele>414.69</ele>
        <time>2024-05-29T16:51:05.558Z</time>
      </trkpt>
      <trkpt lat="43.09128" lon="-0.70215">
        <ele>415.48</ele>
        <time>2024-05-29T16:51:16.767Z</time>
      </trkpt>
      <trkpt lat="43.09129" lon="-0.70231">
        <ele>416.17</ele>
        <time>2024-05-29T16:51:27.978Z</time>
      </trkpt>
      <trkpt lat="43.09136" lon="-0.7024">
        <ele>416.77</ele>
        <time>2024-05-29T16:51:39.191Z</time>
      </trkpt>
      <trkpt lat="43.09146" lon="-0.70244">
        <ele>417.29</ele>
        <time>2024-05-29T16:51:50.406Z</time>
      </trkpt>
      <trkpt lat="43.09233" lon="-0.70217">
        <ele>417.6</ele>
        <time>2024-05-29T16:52:01.638Z</time>
      </trkpt>
      <trkpt lat="43.09242" lon="-0.70219">
        <ele>418.09</ele>
        <time>2024-05-29T16:52:12.871Z</time>
      </trkpt>
      <trkpt lat="43.09247" lon="-0.70223">
        <ele>418.54</ele>
        <time>2024-05-29T16:52:24.105Z</time>
      </trkpt>
      <trkpt lat="43.09251" lon="-0.70232">
        <ele>418.97</ele>
        <time>2024-05-29T16:52:35.341Z</time>
      </trkpt>
      <trkpt lat="43.09255" lon="-0.70244">
        <ele>419.3</ele>
        <time>2024-05-29T16:52:46.579Z</time>
      </trkpt>
      <trkpt lat="43.09255" lon="-0.70258">
        <ele>419.51</ele>
        <time>2024-05-29T16:52:57.818Z</time>
      </trkpt>
      <trkpt lat="43.09243" lon="-0.70349">
        <ele>419.86</ele>
        <time>2024-05-29T16:53:09.070Z</time>
      </trkpt>
      <trkpt lat="43.09242" lon="-0.70404">
        <ele>420.01</ele>
        <time>2024-05-29T16:53:20.330Z</time>
      </trkpt>
      <trkpt lat="43.09236" lon="-0.70419">
        <ele>420.05</ele>
        <time>2024-05-29T16:53:31.592Z</time>
      </trkpt>
      <trkpt lat="43.09212" lon="-0.70448">
        <ele>419.99</ele>
        <time>2024-05-29T16:53:42.860Z</time>
      </trkpt>
      <trkpt lat="43.09207" lon="-0.70462">
        <ele>419.8</ele>
        <time>2024-05-29T16:53:54.130Z</time>
      </trkpt>
      <trkpt lat="43.09201" lon="-0.70496">
        <ele>419.52</ele>
        <time>2024-05-29T16:54:05.405Z</time>
      </trkpt>
      <trkpt lat="43.09202" lon="-0.70524">
        <ele>419.19</ele>
        <time>2024-05-29T16:54:16.684Z</time>
      </trkpt>
      <trkpt lat="43.09213" lon="-0.70557">
        <ele>418.82</ele>
        <time>2024-05-29T16:54:27.968Z</time>
      </trkpt>
      <trkpt lat="43.09216" lon="-0.7057">
        <ele>418.37</ele>
        <time>2024-05-29T16:54:39.253Z</time>
      </trkpt>
      <trkpt lat="43.09214" lon="-0.70589">
        <ele>417.8</ele>
        <time>2024-05-29T16:54:50.541Z</time>
      </trkpt>
      <trkpt lat="43.0921" lon="-0.70599">
        <ele>417.16</ele>
        <time>2024-05-29T16:55:01.831Z</time>
      </trkpt>
      <trkpt lat="43.09187" lon="-0.70626">
        <ele>416.24</ele>
        <time>2024-05-29T16:55:13.126Z</time>
      </trkpt>
      <trkpt lat="43.09178" lon="-0.7064">
        <ele>415.45</ele>
        <time>2024-05-29T16:55:24.424Z</time>
      </trkpt>
      <trkpt lat="43.09161" lon="-0.70677">
        <ele>414.55</ele>
        <time>2024-05-29T16:55:35.728Z</time>
      </trkpt>
      <trkpt lat="43.09156" lon="-0.70699">
        <ele>413.64</ele>
        <time>2024-05-29T16:55:47.035Z</time>
      </trkpt>
      <trkpt lat="43.09158" lon="-0.70709">
        <ele>412.79</ele>
        <time>2024-05-29T16:55:58.343Z</time>
      </trkpt>
      <trkpt lat="43.09162" lon="-0.70716">
        <ele>411.93</ele>
        <time>2024-05-29T16:56:09.652Z</time>
      </trkpt>
      <trkpt lat="43.09169" lon="-0.70722">
        <ele>411.04</ele>
        <time>2024-05-29T16:56:20.963Z</time>
      </trkpt>
      <trkpt lat="43.09236" lon="-0.70755">
        <ele>410.25</ele>
        <time>2024-05-29T16:56:32.287Z</time>
      </trkpt>
      <trkpt lat="43.09248" lon="-0.70763">
        <ele>409.29</ele>
        <time>2024-05-29T16:56:43.614Z</time>
      </trkpt>
      <trkpt lat="43.09255" lon="-0.70772">
        <ele>408.29</ele>
        <time>2024-05-29T16:56:54.942Z</time>
      </trkpt>
      <trkpt lat="43.0926" lon="-0.70794">
        <ele>407.25</ele>
        <time>2024-05-29T16:57:06.274Z</time>
      </trkpt>
      <trkpt lat="43.09259" lon="-0.70808">
        <ele>406.21</ele>
        <time>2024-05-29T16:57:17.608Z</time>
      </trkpt>
      <trkpt lat="43.09254" lon="-0.70824">
        <ele>405.13</ele>
        <time>2024-05-29T16:57:28.944Z</time>
      </trkpt>
      <trkpt lat="43.09246" lon="-0.70837">
        <ele>404.01</ele>
        <time>2024-05-29T16:57:40.282Z</time>
      </trkpt>
      <trkpt lat="43.09237" lon="-0.70846">
        <ele>402.9</ele>
        <time>2024-05-29T16:57:51.622Z</time>
      </trkpt>
      <trkpt lat="43.09224" lon="-0.70855">
        <ele>401.75</ele>
        <time>2024-05-29T16:58:02.965Z</time>
      </trkpt>
      <trkpt lat="43.09184" lon="-0.70871">
        <ele>400.31</ele>
        <time>2024-05-29T16:58:14.316Z</time>
      </trkpt>
      <trkpt lat="43.09178" lon="-0.70877">
        <ele>399.12</ele>
        <time>2024-05-29T16:58:25.668Z</time>
      </trkpt>
      <trkpt lat="43.09174" lon="-0.70885">
        <ele>397.93</ele>
        <time>2024-05-29T16:58:37.021Z</time>
      </trkpt>
      <trkpt lat="43.09171" lon="-0.70897">
        <ele>396.76</ele>
        <time>2024-05-29T16:58:48.376Z</time>
      </trkpt>
      <trkpt lat="43.09169" lon="-0.70949">
        <ele>395.41</ele>
        <time>2024-05-29T16:58:59.738Z</time>
      </trkpt>
      <trkpt lat="43.09171" lon="-0.70961">
        <ele>394.24</ele>
        <time>2024-05-29T16:59:11.102Z</time>
      </trkpt>
      <trkpt lat="43.09175" lon="-0.70971">
        <ele>393.06</ele>
        <time>2024-05-29T16:59:22.468Z</time>
      </trkpt>
      <trkpt lat="43.09183" lon="-0.7098">
        <ele>391.91</ele>
        <time>2024-05-29T16:59:33.835Z</time>
      </trkpt>
      <trkpt lat="43.09192" lon="-0.70986">
        <ele>390.76</ele>
        <time>2024-05-29T16:59:45.204Z</time>
      </trkpt>
      <trkpt lat="43.09203" lon="-0.70991">
        <ele>389.65</ele>
        <time>2024-05-29T16:59:56.575Z</time>
      </trkpt>
      <trkpt lat="43.09235" lon="-0.70996">
        <ele>388.67</ele>
        <time>2024-05-29T17:00:07.952Z</time>
      </trkpt>
      <trkpt lat="43.09243" lon="-0.71001">
        <ele>387.52</ele>
        <time>2024-05-29T17:00:19.331Z</time>
      </trkpt>
      <trkpt lat="43.09249" lon="-0.71009">
        <ele>386.37</ele>
        <time>2024-05-29T17:00:30.712Z</time>
      </trkpt>
      <trkpt lat="43.09252" lon="-0.71019">
        <ele>385.17</ele>
        <time>2024-05-29T17:00:42.094Z</time>
      </trkpt>
      <trkpt lat="43.09252" lon="-0.71026">
        <ele>383.97</ele>
        <time>2024-05-29T17:00:53.477Z</time>
      </trkpt>
      <trkpt lat="43.09249" lon="-0.71045">
        <ele>382.68</ele>
        <time>2024-05-29T17:01:04.863Z</time>
      </trkpt>
      <trkpt lat="43.09238" lon="-0.71072">
        <ele>381.3</ele>
        <time>2024-05-29T17:01:16.253Z</time>
      </trkpt>
      <trkpt lat="43.09208" lon="-0.71114">
        <ele>379.81</ele>
        <time>2024-05-29T17:01:27.651Z</time>
      </trkpt>
      <trkpt lat="43.09203" lon="-0.71124">
        <ele>378.62</ele>
        <time>2024-05-29T17:01:39.051Z</time>
      </trkpt>
      <trkpt lat="43.09202" lon="-0.71134">
        <ele>377.47</ele>
        <time>2024-05-29T17:01:50.452Z</time>
      </trkpt>
      <trkpt lat="43.09205" lon="-0.71143">
        <ele>376.38</ele>
        <time>2024-05-29T17:02:01.854Z</time>
      </trkpt>
      <trkpt lat="43.09213" lon="-0.71149">
        <ele>375.36</ele>
        <time>2024-05-29T17:02:13.258Z</time>
      </trkpt>
      <trkpt lat="43.09244" lon="-0.71158">
        <ele>374.38</ele>
        <time>2024-05-29T17:02:24.668Z</time>
      </trkpt>
      <trkpt lat="43.09262" lon="-0.71166">
        <ele>373.23</ele>
        <time>2024-05-29T17:02:36.081Z</time>
      </trkpt>
      <trkpt lat="43.09278" lon="-0.71175">
        <ele>372.18</ele>
        <time>2024-05-29T17:02:47.498Z</time>
      </trkpt>
      <trkpt lat="43.09304" lon="-0.71197">
        <ele>371.2</ele>
        <time>2024-05-29T17:02:58.920Z</time>
      </trkpt>
      <trkpt lat="43.09328" lon="-0.71213">
        <ele>370.32</ele>
        <time>2024-05-29T17:03:10.347Z</time>
      </trkpt>
      <trkpt lat="43.09349" lon="-0.71219">
        <ele>369.53</ele>
        <time>2024-05-29T17:03:21.778Z</time>
      </trkpt>
      <trkpt lat="43.0938" lon="-0.71222">
        <ele>368.62</ele>
        <time>2024-05-29T17:03:33.215Z</time>
      </trkpt>
      <trkpt lat="43.09405" lon="-0.71217">
        <ele>367.74</ele>
        <time>2024-05-29T17:03:44.657Z</time>
      </trkpt>
      <trkpt lat="43.09448" lon="-0.71199">
        <ele>366.89</ele>
        <time>2024-05-29T17:03:56.107Z</time>
      </trkpt>
      <trkpt lat="43.09462" lon="-0.71191">
        <ele>366.05</ele>
        <time>2024-05-29T17:04:07.560Z</time>
      </trkpt>
      <trkpt lat="43.0947" lon="-0.71184">
        <ele>365.29</ele>
        <time>2024-05-29T17:04:19.015Z</time>
      </trkpt>
      <trkpt lat="43.09477" lon="-0.71174">
        <ele>364.6</ele>
        <time>2024-05-29T17:04:30.472Z</time>
      </trkpt>
      <trkpt lat="43.09499" lon="-0.71128">
        <ele>363.8</ele>
        <time>2024-05-29T17:04:41.936Z</time>
      </trkpt>
      <trkpt lat="43.09517" lon="-0.7111">
        <ele>362.9</ele>
        <time>2024-05-29T17:04:53.404Z</time>
      </trkpt>
      <trkpt lat="43.09527" lon="-0.71095">
        <ele>362.18</ele>
        <time>2024-05-29T17:05:04.875Z</time>
      </trkpt>
      <trkpt lat="43.09531" lon="-0.71081">
        <ele>361.52</ele>
        <time>2024-05-29T17:05:16.348Z</time>
      </trkpt>
      <trkpt lat="43.09534" lon="-0.71067">
        <ele>360.86</ele>
        <time>2024-05-29T17:05:27.823Z</time>
      </trkpt>
      <trkpt lat="43.09533" lon="-0.71051">
        <ele>360.24</ele>
        <time>2024-05-29T17:05:39.300Z</time>
      </trkpt>
      <trkpt lat="43.0952" lon="-0.70992">
        <ele>359.65</ele>
        <time>2024-05-29T17:05:50.786Z</time>
      </trkpt>
      <trkpt lat="43.09516" lon="-0.70966">
        <ele>358.93</ele>
        <time>2024-05-29T17:06:02.275Z</time>
      </trkpt>
      <trkpt lat="43.09517" lon="-0.70951">
        <ele>358.21</ele>
        <time>2024-05-29T17:06:13.766Z</time>
      </trkpt>
      <trkpt lat="43.09521" lon="-0.70942">
        <ele>357.52</ele>
        <time>2024-05-29T17:06:25.259Z</time>
      </trkpt>
      <trkpt lat="43.0953" lon="-0.7094">
        <ele>356.78</ele>
        <time>2024-05-29T17:06:36.753Z</time>
      </trkpt>
      <trkpt lat="43.09537" lon="-0.70944">
        <ele>355.93</ele>
        <time>2024-05-29T17:06:48.249Z</time>
      </trkpt>
      <trkpt lat="43.09548" lon="-0.70961">
        <ele>354.98</ele>
        <time>2024-05-29T17:06:59.748Z</time>
      </trkpt>
      <trkpt lat="43.09552" lon="-0.70967">
        <ele>354.02</ele>
        <time>2024-05-29T17:07:11.248Z</time>
      </trkpt>
      <trkpt lat="43.09565" lon="-0.71003">
        <ele>352.87</ele>
        <time>2024-05-29T17:07:22.754Z</time>
      </trkpt>
      <trkpt lat="43.09574" lon="-0.71036">
        <ele>351.82</ele>
        <time>2024-05-29T17:07:34.264Z</time>
      </trkpt>
      <trkpt lat="43.09575" lon="-0.71053">
        <ele>350.68</ele>
        <time>2024-05-29T17:07:45.777Z</time>
      </trkpt>
      <trkpt lat="43.09572" lon="-0.71111">
        <ele>349.25</ele>
        <time>2024-05-29T17:07:57.298Z</time>
      </trkpt>
      <trkpt lat="43.09565" lon="-0.71193">
        <ele>347.89</ele>
        <time>2024-05-29T17:08:08.830Z</time>
      </trkpt>
      <trkpt lat="43.09561" lon="-0.71207">
        <ele>346.61</ele>
        <time>2024-05-29T17:08:20.364Z</time>
      </trkpt>
      <trkpt lat="43.09551" lon="-0.71233">
        <ele>345.24</ele>
        <time>2024-05-29T17:08:31.902Z</time>
      </trkpt>
      <trkpt lat="43.09509" lon="-0.71303">
        <ele>343.58</ele>
        <time>2024-05-29T17:08:43.452Z</time>
      </trkpt>
      <trkpt lat="43.09495" lon="-0.71336">
        <ele>342.17</ele>
        <time>2024-05-29T17:08:55.007Z</time>
      </trkpt>
      <trkpt lat="43.09492" lon="-0.71356">
        <ele>340.83</ele>
        <time>2024-05-29T17:09:06.565Z</time>
      </trkpt>
      <trkpt lat="43.09496" lon="-0.71372">
        <ele>339.56</ele>
        <time>2024-05-29T17:09:18.126Z</time>
      </trkpt>
      <trkpt lat="43.09502" lon="-0.71388">
        <ele>338.27</ele>
        <time>2024-05-29T17:09:29.689Z</time>
      </trkpt>
      <trkpt lat="43.09517" lon="-0.71412">
        <ele>337.04</ele>
        <time>2024-05-29T17:09:41.256Z</time>
      </trkpt>
      <trkpt lat="43.09522" lon="-0.71431">
        <ele>335.71</ele>
        <time>2024-05-29T17:09:52.826Z</time>
      </trkpt>
      <trkpt lat="43.09523" lon="-0.71448">
        <ele>334.37</ele>
        <time>2024-05-29T17:10:04.398Z</time>
      </trkpt>
      <trkpt lat="43.0952" lon="-0.71495">
        <ele>332.89</ele>
        <time>2024-05-29T17:10:15.977Z</time>
      </trkpt>
      <trkpt lat="43.09507" lon="-0.71599">
        <ele>331.79</ele>
        <time>2024-05-29T17:10:27.570Z</time>
      </trkpt>
      <trkpt lat="43.09507" lon="-0.71632">
        <ele>330.65</ele>
        <time>2024-05-29T17:10:39.168Z</time>
      </trkpt>
      <trkpt lat="43.09511" lon="-0.71643">
        <ele>329.52</ele>
        <time>2024-05-29T17:10:50.767Z</time>
      </trkpt>
      <trkpt lat="43.09533" lon="-0.71651">
        <ele>328.41</ele>
        <time>2024-05-29T17:11:02.371Z</time>
      </trkpt>
      <trkpt lat="43.0954" lon="-0.71657">
        <ele>327.36</ele>
        <time>2024-05-29T17:11:13.976Z</time>
      </trkpt>
      <trkpt lat="43.09544" lon="-0.71664">
        <ele>326.36</ele>
        <time>2024-05-29T17:11:25.582Z</time>
      </trkpt>
      <trkpt lat="43.09557" lon="-0.71703">
        <ele>325.36</ele>
        <time>2024-05-29T17:11:37.194Z</time>
      </trkpt>
      <trkpt lat="43.09558" lon="-0.71713">
        <ele>324.41</ele>
        <time>2024-05-29T17:11:48.808Z</time>
      </trkpt>
      <trkpt lat="43.09556" lon="-0.71721">
        <ele>323.49</ele>
        <time>2024-05-29T17:12:00.423Z</time>
      </trkpt>
      <trkpt lat="43.09539" lon="-0.71773">
        <ele>322.61</ele>
        <time>2024-05-29T17:12:12.045Z</time>
      </trkpt>
      <trkpt lat="43.09538" lon="-0.7179">
        <ele>321.74</ele>
        <time>2024-05-29T17:12:23.670Z</time>
      </trkpt>
      <trkpt lat="43.09542" lon="-0.71806">
        <ele>320.92</ele>
        <time>2024-05-29T17:12:35.297Z</time>
      </trkpt>
      <trkpt lat="43.09558" lon="-0.71855">
        <ele>320.12</ele>
        <time>2024-05-29T17:12:46.931Z</time>
      </trkpt>
      <trkpt lat="43.09588" lon="-0.71912">
        <ele>319.29</ele>
        <time>2024-05-29T17:12:58.575Z</time>
      </trkpt>
      <trkpt lat="43.09596" lon="-0.71923">
        <ele>318.51</ele>
        <time>2024-05-29T17:13:10.221Z</time>
      </trkpt>
      <trkpt lat="43.09629" lon="-0.71952">
        <ele>317.73</ele>
        <time>2024-05-29T17:13:21.874Z</time>
      </trkpt>
      <trkpt lat="43.09687" lon="-0.71994">
        <ele>316.97</ele>
        <time>2024-05-29T17:13:33.540Z</time>
      </trkpt>
      <trkpt lat="43.09696" lon="-0.72006">
        <ele>316.27</ele>
        <time>2024-05-29T17:13:45.208Z</time>
      </trkpt>
      <trkpt lat="43.09721" lon="-0.72041">
        <ele>315.56</ele>
        <time>2024-05-29T17:13:56.883Z</time>
      </trkpt>
      <trkpt lat="43.09735" lon="-0.72072">
        <ele>314.89</ele>
        <time>2024-05-29T17:14:08.563Z</time>
      </trkpt>
      <trkpt lat="43.09738" lon="-0.72084">
        <ele>314.24</ele>
        <time>2024-05-29T17:14:20.244Z</time>
      </trkpt>
      <trkpt lat="43.09735" lon="-0.72141">
        <ele>313.56</ele>
        <time>2024-05-29T17:14:31.933Z</time>
      </trkpt>
      <trkpt lat="43.09736" lon="-0.72164">
        <ele>312.97</ele>
        <time>2024-05-29T17:14:43.625Z</time>
      </trkpt>
      <trkpt lat="43.09742" lon="-0.72177">
        <ele>312.39</ele>
        <time>2024-05-29T17:14:55.319Z</time>
      </trkpt>
      <trkpt lat="43.09744" lon="-0.72183">
        <ele>311.78</ele>
        <time>2024-05-29T17:15:07.014Z</time>
      </trkpt>
      <trkpt lat="43.09757" lon="-0.72193">
        <ele>311.2</ele>
        <time>2024-05-29T17:15:18.712Z</time>
      </trkpt>
      <trkpt lat="43.09784" lon="-0.72201">
        <ele>310.62</ele>
        <time>2024-05-29T17:15:30.415Z</time>
      </trkpt>
      <trkpt lat="43.09834" lon="-0.72222">
        <ele>309.99</ele>
        <time>2024-05-29T17:15:42.128Z</time>
      </trkpt>
      <trkpt lat="43.09918" lon="-0.72293">
        <ele>309.22</ele>
        <time>2024-05-29T17:15:53.859Z</time>
      </trkpt>
      <trkpt lat="43.09969" lon="-0.72343">
        <ele>308.59</ele>
        <time>2024-05-29T17:16:05.602Z</time>
      </trkpt>
      <trkpt lat="43.10011" lon="-0.72411">
        <ele>308.04</ele>
        <time>2024-05-29T17:16:17.357Z</time>
      </trkpt>
      <trkpt lat="43.10038" lon="-0.7244">
        <ele>307.52</ele>
        <time>2024-05-29T17:16:29.118Z</time>
      </trkpt>
      <trkpt lat="43.1005" lon="-0.72457">
        <ele>307.07</ele>
        <time>2024-05-29T17:16:40.883Z</time>
      </trkpt>
      <trkpt lat="43.10091" lon="-0.72563">
        <ele>306.59</ele>
        <time>2024-05-29T17:16:52.664Z</time>
      </trkpt>
      <trkpt lat="43.1016" lon="-0.72723">
        <ele>306.01</ele>
        <time>2024-05-29T17:17:04.470Z</time>
      </trkpt>
      <trkpt lat="43.1021" lon="-0.72806">
        <ele>305.59</ele>
        <time>2024-05-29T17:17:16.291Z</time>
      </trkpt>
      <trkpt lat="43.10227" lon="-0.72845">
        <ele>305.23</ele>
        <time>2024-05-29T17:17:28.118Z</time>
      </trkpt>
      <trkpt lat="43.10256" lon="-0.72947">
        <ele>304.9</ele>
        <time>2024-05-29T17:17:39.960Z</time>
      </trkpt>
      <trkpt lat="43.10284" lon="-0.73002">
        <ele>304.62</ele>
        <time>2024-05-29T17:17:51.811Z</time>
      </trkpt>
      <trkpt lat="43.10341" lon="-0.73101">
        <ele>304.42</ele>
        <time>2024-05-29T17:18:03.679Z</time>
      </trkpt>
      <trkpt lat="43.10362" lon="-0.73128">
        <ele>304.24</ele>
        <time>2024-05-29T17:18:15.553Z</time>
      </trkpt>
      <trkpt lat="43.10405" lon="-0.7317">
        <ele>304</ele>
        <time>2024-05-29T17:18:27.437Z</time>
      </trkpt>
      <trkpt lat="43.10451" lon="-0.7323">
        <ele>304</ele>
        <time>2024-05-29T17:18:39.332Z</time>
      </trkpt>
      <trkpt lat="43.1049" lon="-0.73269">
        <ele>303.91</ele>
        <time>2024-05-29T17:18:51.236Z</time>
      </trkpt>
      <trkpt lat="43.10591" lon="-0.73396">
        <ele>303.83</ele>
        <time>2024-05-29T17:19:03.166Z</time>
      </trkpt>
      <trkpt lat="43.10641" lon="-0.73446">
        <ele>303.73</ele>
        <time>2024-05-29T17:19:15.107Z</time>
      </trkpt>
      <trkpt lat="43.10694" lon="-0.73482">
        <ele>303.81</ele>
        <time>2024-05-29T17:19:27.059Z</time>
      </trkpt>
      <trkpt lat="43.10759" lon="-0.73516">
        <ele>303.72</ele>
        <time>2024-05-29T17:19:39.024Z</time>
      </trkpt>
      <trkpt lat="43.10851" lon="-0.73549">
        <ele>303.9</ele>
        <time>2024-05-29T17:19:51.007Z</time>
      </trkpt>
      <trkpt lat="43.1089" lon="-0.73557">
        <ele>304.1</ele>
        <time>2024-05-29T17:20:02.997Z</time>
      </trkpt>
      <trkpt lat="43.1102" lon="-0.73564">
        <ele>304.76</ele>
        <time>2024-05-29T17:20:15.012Z</time>
      </trkpt>
      <trkpt lat="43.11163" lon="-0.73576">
        <ele>304.71</ele>
        <time>2024-05-29T17:20:27.053Z</time>
      </trkpt>
      <trkpt lat="43.11196" lon="-0.73581">
        <ele>304.92</ele>
        <time>2024-05-29T17:20:39.100Z</time>
      </trkpt>
      <trkpt lat="43.11208" lon="-0.73586">
        <ele>305.02</ele>
        <time>2024-05-29T17:20:51.150Z</time>
      </trkpt>
      <trkpt lat="43.11223" lon="-0.73594">
        <ele>305.13</ele>
        <time>2024-05-29T17:21:03.203Z</time>
      </trkpt>
      <trkpt lat="43.11246" lon="-0.73617">
        <ele>305.26</ele>
        <time>2024-05-29T17:21:15.261Z</time>
      </trkpt>
      <trkpt lat="43.11351" lon="-0.73764">
        <ele>305.14</ele>
        <time>2024-05-29T17:21:27.347Z</time>
      </trkpt>
      <trkpt lat="43.11354" lon="-0.7377">
        <ele>305.15</ele>
        <time>2024-05-29T17:21:39.434Z</time>
      </trkpt>
      <trkpt lat="43.11347" lon="-0.73783">
        <ele>305.15</ele>
        <time>2024-05-29T17:21:51.523Z</time>
      </trkpt>
      <trkpt lat="43.11339" lon="-0.73804">
        <ele>305.11</ele>
        <time>2024-05-29T17:22:03.616Z</time>
      </trkpt>
      <trkpt lat="43.11335" lon="-0.73826">
        <ele>305.07</ele>
        <time>2024-05-29T17:22:15.712Z</time>
      </trkpt>
      <trkpt lat="43.11336" lon="-0.7386">
        <ele>304.99</ele>
        <time>2024-05-29T17:22:27.812Z</time>
      </trkpt>
      <trkpt lat="43.11349" lon="-0.7403">
        <ele>305.11</ele>
        <time>2024-05-29T17:22:39.936Z</time>
      </trkpt>
      <trkpt lat="43.11355" lon="-0.74065">
        <ele>305.02</ele>
        <time>2024-05-29T17:22:52.064Z</time>
      </trkpt>
      <trkpt lat="43.11367" lon="-0.74114">
        <ele>304.95</ele>
        <time>2024-05-29T17:23:04.199Z</time>
      </trkpt>
      <trkpt lat="43.11371" lon="-0.74146">
        <ele>304.84</ele>
        <time>2024-05-29T17:23:16.339Z</time>
      </trkpt>
      <trkpt lat="43.11369" lon="-0.74179">
        <ele>304.81</ele>
        <time>2024-05-29T17:23:28.483Z</time>
      </trkpt>
      <trkpt lat="43.11348" lon="-0.74256">
        <ele>304.97</ele>
        <time>2024-05-29T17:23:40.639Z</time>
      </trkpt>
      <trkpt lat="43.11299" lon="-0.7442">
        <ele>305.11</ele>
        <time>2024-05-29T17:23:52.819Z</time>
      </trkpt>
      <trkpt lat="43.11262" lon="-0.7457">
        <ele>304.78</ele>
        <time>2024-05-29T17:24:05.020Z</time>
      </trkpt>
      <trkpt lat="43.11239" lon="-0.74645">
        <ele>305.21</ele>
        <time>2024-05-29T17:24:17.232Z</time>
      </trkpt>
      <trkpt lat="43.1123" lon="-0.74718">
        <ele>305.13</ele>
        <time>2024-05-29T17:24:29.454Z</time>
      </trkpt>
      <trkpt lat="43.11235" lon="-0.74783">
        <ele>305.47</ele>
        <time>2024-05-29T17:24:41.685Z</time>
      </trkpt>
      <trkpt lat="43.11266" lon="-0.74927">
        <ele>306.1</ele>
        <time>2024-05-29T17:24:53.937Z</time>
      </trkpt>
      <trkpt lat="43.11272" lon="-0.74965">
        <ele>307.01</ele>
        <time>2024-05-29T17:25:06.194Z</time>
      </trkpt>
      <trkpt lat="43.11274" lon="-0.75008">
        <ele>307.86</ele>
        <time>2024-05-29T17:25:18.457Z</time>
      </trkpt>
      <trkpt lat="43.11272" lon="-0.75215">
        <ele>308.95</ele>
        <time>2024-05-29T17:25:30.748Z</time>
      </trkpt>
      <trkpt lat="43.11272" lon="-0.75505">
        <ele>310.85</ele>
        <time>2024-05-29T17:25:43.079Z</time>
      </trkpt>
      <trkpt lat="43.11271" lon="-0.75568">
        <ele>311.85</ele>
        <time>2024-05-29T17:25:55.418Z</time>
      </trkpt>
      <trkpt lat="43.11268" lon="-0.75596">
        <ele>312.76</ele>
        <time>2024-05-29T17:26:07.761Z</time>
      </trkpt>
      <trkpt lat="43.11236" lon="-0.75759">
        <ele>313.91</ele>
        <time>2024-05-29T17:26:20.127Z</time>
      </trkpt>
      <trkpt lat="43.11235" lon="-0.75787">
        <ele>314.76</ele>
        <time>2024-05-29T17:26:32.497Z</time>
      </trkpt>
      <trkpt lat="43.11237" lon="-0.75805">
        <ele>315.56</ele>
        <time>2024-05-29T17:26:44.869Z</time>
      </trkpt>
      <trkpt lat="43.11245" lon="-0.75833">
        <ele>316.35</ele>
        <time>2024-05-29T17:26:57.246Z</time>
      </trkpt>
      <trkpt lat="43.11256" lon="-0.75853">
        <ele>317.1</ele>
        <time>2024-05-29T17:27:09.626Z</time>
      </trkpt>
      <trkpt lat="43.11321" lon="-0.75919">
        <ele>317.67</ele>
        <time>2024-05-29T17:27:22.021Z</time>
      </trkpt>
      <trkpt lat="43.11328" lon="-0.7593">
        <ele>318.35</ele>
        <time>2024-05-29T17:27:34.418Z</time>
      </trkpt>
      <trkpt lat="43.11334" lon="-0.75948">
        <ele>319.01</ele>
        <time>2024-05-29T17:27:46.818Z</time>
      </trkpt>
      <trkpt lat="43.11335" lon="-0.75981">
        <ele>319.63</ele>
        <time>2024-05-29T17:27:59.222Z</time>
      </trkpt>
      <trkpt lat="43.11326" lon="-0.76036">
        <ele>320.34</ele>
        <time>2024-05-29T17:28:11.634Z</time>
      </trkpt>
      <trkpt lat="43.11324" lon="-0.76082">
        <ele>320.91</ele>
        <time>2024-05-29T17:28:24.052Z</time>
      </trkpt>
      <trkpt lat="43.11325" lon="-0.76209">
        <ele>321.43</ele>
        <time>2024-05-29T17:28:36.488Z</time>
      </trkpt>
      <trkpt lat="43.11327" lon="-0.76253">
        <ele>321.87</ele>
        <time>2024-05-29T17:28:48.930Z</time>
      </trkpt>
      <trkpt lat="43.11315" lon="-0.76354">
        <ele>322.03</ele>
        <time>2024-05-29T17:29:01.385Z</time>
      </trkpt>
      <trkpt lat="43.11304" lon="-0.76394">
        <ele>322.29</ele>
        <time>2024-05-29T17:29:13.846Z</time>
      </trkpt>
      <trkpt lat="43.113" lon="-0.76398">
        <ele>322.51</ele>
        <time>2024-05-29T17:29:26.308Z</time>
      </trkpt>
      <trkpt lat="43.11298" lon="-0.76405">
        <ele>322.67</ele>
        <time>2024-05-29T17:29:38.771Z</time>
      </trkpt>
      <trkpt lat="43.113" lon="-0.76414">
        <ele>322.77</ele>
        <time>2024-05-29T17:29:51.236Z</time>
      </trkpt>
      <trkpt lat="43.11297" lon="-0.76442">
        <ele>322.81</ele>
        <time>2024-05-29T17:30:03.704Z</time>
      </trkpt>
      <trkpt lat="43.11216" lon="-0.76731">
        <ele>322.78</ele>
        <time>2024-05-29T17:30:16.215Z</time>
      </trkpt>
      <trkpt lat="43.11181" lon="-0.76901">
        <ele>322.74</ele>
        <time>2024-05-29T17:30:28.750Z</time>
      </trkpt>
      <trkpt lat="43.11175" lon="-0.76919">
        <ele>322.61</ele>
        <time>2024-05-29T17:30:41.287Z</time>
      </trkpt>
      <trkpt lat="43.11161" lon="-0.76958">
        <ele>322.46</ele>
        <time>2024-05-29T17:30:53.830Z</time>
      </trkpt>
      <trkpt lat="43.11148" lon="-0.76984">
        <ele>322.21</ele>
        <time>2024-05-29T17:31:06.378Z</time>
      </trkpt>
      <trkpt lat="43.11132" lon="-0.77006">
        <ele>321.96</ele>
        <time>2024-05-29T17:31:18.930Z</time>
      </trkpt>
      <trkpt lat="43.11113" lon="-0.77021">
        <ele>321.7</ele>
        <time>2024-05-29T17:31:31.486Z</time>
      </trkpt>
      <trkpt lat="43.11052" lon="-0.77047">
        <ele>321.54</ele>
        <time>2024-05-29T17:31:44.054Z</time>
      </trkpt>
      <trkpt lat="43.11042" lon="-0.77055">
        <ele>321.29</ele>
        <time>2024-05-29T17:31:56.624Z</time>
      </trkpt>
      <trkpt lat="43.11036" lon="-0.77063">
        <ele>321.02</ele>
        <time>2024-05-29T17:32:09.195Z</time>
      </trkpt>
      <trkpt lat="43.11026" lon="-0.77084">
        <ele>320.76</ele>
        <time>2024-05-29T17:32:21.770Z</time>
      </trkpt>
      <trkpt lat="43.11025" lon="-0.77095">
        <ele>320.56</ele>
        <time>2024-05-29T17:32:34.346Z</time>
      </trkpt>
      <trkpt lat="43.11028" lon="-0.77212">
        <ele>320.37</ele>
        <time>2024-05-29T17:32:46.938Z</time>
      </trkpt>
      <trkpt lat="43.11028" lon="-0.77214">
        <ele>320.33</ele>
        <time>2024-05-29T17:32:59.531Z</time>
      </trkpt>
      <trkpt lat="43.11028" lon="-0.7722">
        <ele>320.34</ele>
        <time>2024-05-29T17:33:12.124Z</time>
      </trkpt>
      <trkpt lat="43.10988" lon="-0.77229">
        <ele>320.42</ele>
        <time>2024-05-29T17:33:24.725Z</time>
      </trkpt>
      <trkpt lat="43.10965" lon="-0.77247">
        <ele>320.51</ele>
        <time>2024-05-29T17:33:37.331Z</time>
      </trkpt>
      <trkpt lat="43.10945" lon="-0.7726">
        <ele>320.61</ele>
        <time>2024-05-29T17:33:49.941Z</time>
      </trkpt>
      <trkpt lat="43.10927" lon="-0.77263">
        <ele>320.81</ele>
        <time>2024-05-29T17:34:02.554Z</time>
      </trkpt>
      <trkpt lat="43.10905" lon="-0.77263">
        <ele>321.08</ele>
        <time>2024-05-29T17:34:15.171Z</time>
      </trkpt>
      <trkpt lat="43.10842" lon="-0.77252">
        <ele>321.66</ele>
        <time>2024-05-29T17:34:27.800Z</time>
      </trkpt>
      <trkpt lat="43.10702" lon="-0.7727">
        <ele>322.09</ele>
        <time>2024-05-29T17:34:40.455Z</time>
      </trkpt>
      <trkpt lat="43.10682" lon="-0.77277">
        <ele>322.44</ele>
        <time>2024-05-29T17:34:53.114Z</time>
      </trkpt>
      <trkpt lat="43.10614" lon="-0.77311">
        <ele>322.9</ele>
        <time>2024-05-29T17:35:05.787Z</time>
      </trkpt>
      <trkpt lat="43.10579" lon="-0.77339">
        <ele>323.29</ele>
        <time>2024-05-29T17:35:18.467Z</time>
      </trkpt>
      <trkpt lat="43.10559" lon="-0.77352">
        <ele>323.72</ele>
        <time>2024-05-29T17:35:31.151Z</time>
      </trkpt>
      <trkpt lat="43.10545" lon="-0.77357">
        <ele>324.15</ele>
        <time>2024-05-29T17:35:43.838Z</time>
      </trkpt>
      <trkpt lat="43.10522" lon="-0.7736">
        <ele>324.6</ele>
        <time>2024-05-29T17:35:56.529Z</time>
      </trkpt>
      <trkpt lat="43.105" lon="-0.77354">
        <ele>325.02</ele>
        <time>2024-05-29T17:36:09.225Z</time>
      </trkpt>
      <trkpt lat="43.10448" lon="-0.77334">
        <ele>325.54</ele>
        <time>2024-05-29T17:36:21.931Z</time>
      </trkpt>
      <trkpt lat="43.10436" lon="-0.77335">
        <ele>326.22</ele>
        <time>2024-05-29T17:36:34.639Z</time>
      </trkpt>
      <trkpt lat="43.10401" lon="-0.7735">
        <ele>327.01</ele>
        <time>2024-05-29T17:36:47.354Z</time>
      </trkpt>
      <trkpt lat="43.10375" lon="-0.77356">
        <ele>327.64</ele>
        <time>2024-05-29T17:37:00.074Z</time>
      </trkpt>
      <trkpt lat="43.10313" lon="-0.77378">
        <ele>327.92</ele>
        <time>2024-05-29T17:37:12.806Z</time>
      </trkpt>
      <trkpt lat="43.10196" lon="-0.77406">
        <ele>328.68</ele>
        <time>2024-05-29T17:37:25.560Z</time>
      </trkpt>
      <trkpt lat="43.10184" lon="-0.77415">
        <ele>328.85</ele>
        <time>2024-05-29T17:37:38.316Z</time>
      </trkpt>
      <trkpt lat="43.10141" lon="-0.77471">
        <ele>328.94</ele>
        <time>2024-05-29T17:37:51.083Z</time>
      </trkpt>
      <trkpt lat="43.10134" lon="-0.77485">
        <ele>329.38</ele>
        <time>2024-05-29T17:38:03.853Z</time>
      </trkpt>
      <trkpt lat="43.10103" lon="-0.77574">
        <ele>329.91</ele>
        <time>2024-05-29T17:38:16.636Z</time>
      </trkpt>
      <trkpt lat="43.10097" lon="-0.77604">
        <ele>330.37</ele>
        <time>2024-05-29T17:38:29.423Z</time>
      </trkpt>
      <trkpt lat="43.10092" lon="-0.77669">
        <ele>330.87</ele>
        <time>2024-05-29T17:38:42.219Z</time>
      </trkpt>
      <trkpt lat="43.10084" lon="-0.77691">
        <ele>331.48</ele>
        <time>2024-05-29T17:38:55.018Z</time>
      </trkpt>
      <trkpt lat="43.10072" lon="-0.7771">
        <ele>332.15</ele>
        <time>2024-05-29T17:39:07.821Z</time>
      </trkpt>
      <trkpt lat="43.10061" lon="-0.77718">
        <ele>332.75</ele>
        <time>2024-05-29T17:39:20.626Z</time>
      </trkpt>
      <trkpt lat="43.10049" lon="-0.77722">
        <ele>333.34</ele>
        <time>2024-05-29T17:39:33.433Z</time>
      </trkpt>
      <trkpt lat="43.10012" lon="-0.77728">
        <ele>334</ele>
        <time>2024-05-29T17:39:46.247Z</time>
      </trkpt>
      <trkpt lat="43.09979" lon="-0.77746">
        <ele>334.58</ele>
        <time>2024-05-29T17:39:59.068Z</time>
      </trkpt>
      <trkpt lat="43.09929" lon="-0.77777">
        <ele>335.07</ele>
        <time>2024-05-29T17:40:11.899Z</time>
      </trkpt>
      <trkpt lat="43.09835" lon="-0.77849">
        <ele>335.45</ele>
        <time>2024-05-29T17:40:24.750Z</time>
      </trkpt>
      <trkpt lat="43.09821" lon="-0.77857">
        <ele>335.85</ele>
        <time>2024-05-29T17:40:37.604Z</time>
      </trkpt>
      <trkpt lat="43.09807" lon="-0.7786">
        <ele>336.3</ele>
        <time>2024-05-29T17:40:50.461Z</time>
      </trkpt>
      <trkpt lat="43.09746" lon="-0.77859">
        <ele>336.6</ele>
        <time>2024-05-29T17:41:03.329Z</time>
      </trkpt>
      <trkpt lat="43.09728" lon="-0.77867">
        <ele>336.84</ele>
        <time>2024-05-29T17:41:16.201Z</time>
      </trkpt>
      <trkpt lat="43.09712" lon="-0.77879">
        <ele>337.06</ele>
        <time>2024-05-29T17:41:29.076Z</time>
      </trkpt>
    </trkseg>
  </trk>
</gpx>